[[{"header":{"parameterUnit":"m.s-1","parameterCategory":1,"la1":30.6,"la2":29.2853,"lo1":-89.7004,"lo2":-87.6739,"dy":0.0162,"dx":0.0183,"nx":112,"ny":82,"refTime":"2023-03-28T06:00:00:Z","depth":0,"parameterNumber":2,"parameterNumberName":"U-component_of_WINDS"},"data":[0.0,0.0,0.0,0.0,0.0,0.0,0.0,0.0,0.0,0.0,0.0,0.0,0.0,0.0,0.0,0.0,0.0,0.0,0.0,0.0,0.0,0.0,0.0,0.0,0.0,0.0,0.0,0.0,0.0,0.0,0.0,0.0,0.0,0.0,0.0,0.0,0.0,0.0,0.0,0.0,0.0,0.0,0.0,0.0,0.0,0.0,0.0,0.0,0.0,0.0,0.0,0.0,0.0,0.0,0.0,0.0,0.0,0.0,0.0,0.0,0.0,0.0,0.0,0.0,0.0,0.0,0.0,0.0,0.0,0.0,0.0,0.0,0.0,0.0,0.0,0.0,0.0,0.0,0.0,0.0,0.0,0.0,0.0,0.0,0.0,0.0,0.0,0.0,0.0,0.0,-1.647,-1.6942,-1.7603,-1.8,-1.8,-1.8,-1.7506,-1.6369,0.0,0.0,0.0,0.0,0.0,0.0,0.0,0.0,0.0,0.0,0.0,0.0,0.0,0.0,0.0,0.0,0.0,0.0,0.0,0.0,0.0,0.0,0.0,0.0,0.0,0.0,0.0,0.0,0.0,0.0,0.0,0.0,0.0,0.0,0.0,0.0,0.0,0.0,0.0,0.0,0.0,0.0,0.0,0.0,0.0,0.0,0.0,0.0,0.0,0.0,0.0,0.0,0.0,0.0,0.0,0.0,0.0,0.0,0.0,0.0,0.0,0.0,0.0,0.0,0.0,0.0,0.0,0.0,0.0,0.0,0.0,0.0,0.0,0.0,0.0,0.0,0.0,0.0,0.0,0.0,0.0,0.0,0.0,0.0,0.0,0.0,0.0,0.0,0.0,0.0,0.0,0.0,0.0,0.0,0.0,0.0,0.0,0.0,0.0,0.0,0.0,0.0,0.0,0.0,-1.6371,-1.7683,-1.7925,-1.8,-1.8,-1.8,-1.7506,-1.6369,0.0,0.0,0.0,0.0,0.0,0.0,0.0,0.0,0.0,0.0,0.0,0.0,0.0,0.0,0.0,0.0,0.0,0.0,0.0,0.0,0.0,0.0,0.0,0.0,0.0,0.0,0.0,0.0,0.0,0.0,0.0,0.0,0.0,0.0,0.0,0.0,0.0,0.0,0.0,0.0,0.0,0.0,0.0,0.0,0.0,0.0,0.0,0.0,0.0,0.0,0.0,0.0,0.0,0.0,0.0,0.0,0.0,0.0,0.0,0.0,0.0,0.0,0.0,0.0,0.0,0.0,0.0,0.0,0.0,0.0,0.0,0.0,0.0,0.0,0.0,0.0,0.0,0.0,0.0,0.0,0.0,0.0,0.0,0.0,0.0,0.0,0.0,0.0,0.0,0.0,0.0,0.0,0.0,0.0,0.0,0.0,0.0,0.0,0.0,0.0,0.0,0.0,0.0,-1.5745,-1.6563,-1.7857,-1.8,-1.8,-1.8,-1.8,-1.7661,-1.6825,-1.6795,0.0,0.0,0.0,0.0,0.0,0.0,0.0,0.0,0.0,0.0,0.0,0.0,0.0,0.0,0.0,0.0,0.0,0.0,0.0,0.0,0.0,0.0,0.0,0.0,0.0,0.0,0.0,0.0,0.0,0.0,0.0,0.0,0.0,0.0,0.0,0.0,0.0,0.0,0.0,0.0,0.0,0.0,0.0,0.0,0.0,0.0,0.0,0.0,0.0,0.0,0.0,0.0,0.0,0.0,0.0,0.0,0.0,0.0,0.0,0.0,0.0,0.0,0.0,0.0,0.0,0.0,0.0,0.0,0.0,0.0,0.0,0.0,0.0,0.0,0.0,0.0,0.0,0.0,0.0,0.0,0.0,0.0,0.0,0.0,0.0,0.0,0.0,0.0,0.0,0.0,0.0,0.0,0.0,0.0,0.0,0.0,0.0,0.0,0.0,0.0,0.0,0.0,-1.6109,-1.6781,-1.7738,-1.7959,-1.8,-1.8,-1.7837,-1.7585,-1.7225,-1.7048,0.0,0.0,0.0,0.0,0.0,0.0,0.0,0.0,0.0,0.0,0.0,0.0,0.0,0.0,0.0,0.0,0.0,0.0,0.0,0.0,0.0,0.0,0.0,0.0,0.0,0.0,0.0,0.0,0.0,0.0,0.0,0.0,0.0,0.0,0.0,0.0,0.0,0.0,0.0,0.0,0.0,0.0,0.0,0.0,0.0,0.0,0.0,0.0,0.0,0.0,0.0,0.0,0.0,0.0,0.0,0.0,0.0,0.0,0.0,0.0,0.0,0.0,0.0,0.0,0.0,0.0,0.0,0.0,0.0,0.0,0.0,0.0,0.0,0.0,0.0,0.0,0.0,0.0,0.0,0.0,0.0,0.0,0.0,0.0,0.0,0.0,0.0,0.0,0.0,0.0,0.0,0.0,0.0,0.0,0.0,0.0,0.0,0.0,0.0,0.0,0.0,0.0,-1.6242,-1.6887,-1.7392,-1.7797,-1.8,-1.8,-1.7359,-1.7053,-1.7188,-1.6562,0.0,0.0,0.0,0.0,0.0,0.0,0.0,0.0,0.0,0.0,0.0,0.0,0.0,0.0,0.0,0.0,0.0,0.0,0.0,0.0,0.0,0.0,0.0,0.0,0.0,0.0,0.0,0.0,0.0,0.0,0.0,0.0,0.0,0.0,0.0,0.0,0.0,0.0,0.0,0.0,0.0,0.0,0.0,0.0,0.0,0.0,0.0,0.0,0.0,0.0,0.0,0.0,0.0,0.0,0.0,0.0,0.0,0.0,0.0,0.0,0.0,0.0,0.0,0.0,0.0,0.0,0.0,0.0,0.0,0.0,0.0,0.0,0.0,0.0,0.0,0.0,0.0,0.0,0.0,0.0,0.0,0.0,0.0,0.0,0.0,0.0,0.0,0.0,0.0,0.0,0.0,0.0,0.0,0.0,0.0,0.0,0.0,0.0,0.0,0.0,0.0,0.0,-1.5975,-1.6373,0.0,-1.7554,-1.7716,-1.8,-1.7743,-1.7538,-1.7474,0.0,0.0,0.0,0.0,0.0,0.0,0.0,0.0,0.0,0.0,0.0,0.0,0.0,0.0,0.0,0.0,0.0,0.0,0.0,0.0,0.0,0.0,0.0,0.0,0.0,0.0,0.0,0.0,0.0,0.0,0.0,0.0,0.0,0.0,0.0,0.0,0.0,0.0,0.0,0.0,0.0,0.0,0.0,0.0,0.0,0.0,0.0,0.0,0.0,0.0,0.0,0.0,0.0,0.0,0.0,0.0,0.0,0.0,0.0,0.0,0.0,0.0,0.0,0.0,0.0,0.0,0.0,0.0,0.0,0.0,0.0,0.0,0.0,0.0,0.0,0.0,0.0,0.0,0.0,0.0,0.0,0.0,0.0,0.0,0.0,0.0,0.0,0.0,0.0,0.0,0.0,0.0,0.0,0.0,0.0,0.0,0.0,0.0,0.0,0.0,0.0,0.0,-1.5456,-1.5678,-1.6055,0.0,-1.7106,-1.7351,-1.7757,-1.7578,-1.7506,-1.7602,0.0,0.0,0.0,0.0,0.0,0.0,0.0,0.0,0.0,0.0,0.0,0.0,0.0,0.0,0.0,0.0,0.0,0.0,0.0,0.0,0.0,0.0,0.0,0.0,0.0,0.0,0.0,0.0,0.0,0.0,0.0,0.0,0.0,0.0,0.0,0.0,0.0,0.0,0.0,0.0,0.0,0.0,0.0,0.0,0.0,0.0,0.0,0.0,0.0,0.0,0.0,0.0,0.0,0.0,0.0,0.0,0.0,0.0,0.0,0.0,0.0,0.0,0.0,0.0,0.0,0.0,0.0,0.0,0.0,0.0,0.0,0.0,0.0,0.0,0.0,0.0,0.0,0.0,0.0,0.0,0.0,0.0,0.0,0.0,0.0,0.0,0.0,0.0,0.0,0.0,0.0,0.0,0.0,0.0,0.0,0.0,0.0,0.0,0.0,0.0,0.0,0.0,-1.4517,-1.5436,-1.6087,-1.6087,-1.6451,-1.6894,-1.7351,-1.67,-1.6659,0.0,0.0,0.0,0.0,0.0,0.0,0.0,0.0,0.0,0.0,0.0,0.0,0.0,0.0,0.0,0.0,0.0,0.0,0.0,0.0,0.0,0.0,0.0,0.0,0.0,0.0,0.0,0.0,0.0,0.0,0.0,0.0,0.0,0.0,0.0,0.0,0.0,0.0,0.0,0.0,0.0,0.0,0.0,0.0,0.0,0.0,0.0,0.0,0.0,0.0,0.0,0.0,0.0,0.0,0.0,0.0,0.0,0.0,0.0,0.0,0.0,0.0,0.0,0.0,0.0,0.0,0.0,0.0,0.0,0.0,0.0,0.0,0.0,0.0,0.0,0.0,0.0,0.0,0.0,0.0,0.0,0.0,0.0,0.0,0.0,0.0,0.0,0.0,0.0,0.0,0.0,0.0,0.0,0.0,0.0,0.0,0.0,0.0,0.0,0.0,0.0,0.0,0.0,-1.4545,-1.5162,-1.5722,-1.6046,-1.6211,-1.6451,-1.6861,-1.6709,-1.6525,-1.6325,0.0,0.0,0.0,0.0,0.0,0.0,0.0,0.0,0.0,0.0,0.0,0.0,0.0,0.0,0.0,0.0,0.0,0.0,0.0,0.0,0.0,0.0,0.0,0.0,0.0,0.0,0.0,0.0,0.0,0.0,0.0,0.0,0.0,0.0,0.0,0.0,0.0,0.0,0.0,0.0,0.0,0.0,0.0,0.0,0.0,0.0,0.0,0.0,0.0,0.0,0.0,0.0,0.0,0.0,0.0,0.0,0.0,0.0,0.0,0.0,0.0,0.0,0.0,0.0,0.0,0.0,0.0,0.0,0.0,0.0,0.0,0.0,0.0,0.0,0.0,0.0,0.0,0.0,0.0,0.0,0.0,0.0,0.0,0.0,0.0,0.0,0.0,0.0,0.0,0.0,0.0,0.0,0.0,0.0,0.0,0.0,0.0,0.0,0.0,0.0,0.0,0.0,-1.4545,-1.5044,-1.5514,-1.5797,-1.5797,-1.6004,-1.6409,-1.6451,-1.6333,-1.6029,0.0,0.0,0.0,0.0,0.0,0.0,0.0,0.0,0.0,0.0,0.0,0.0,0.0,0.0,0.0,0.0,0.0,0.0,0.0,0.0,0.0,0.0,0.0,0.0,0.0,0.0,0.0,0.0,0.0,0.0,0.0,0.0,0.0,0.0,0.0,0.0,0.0,0.0,0.0,0.0,0.0,0.0,0.0,0.0,0.0,0.0,0.0,0.0,0.0,0.0,0.0,0.0,0.0,0.0,0.0,0.0,0.0,0.0,0.0,0.0,0.0,0.0,0.0,0.0,0.0,0.0,0.0,0.0,0.0,0.0,0.0,0.0,0.0,0.0,0.0,0.0,0.0,0.0,0.0,0.0,0.0,0.0,0.0,0.0,0.0,0.0,0.0,0.0,0.0,0.0,0.0,0.0,0.0,0.0,0.0,0.0,0.0,0.0,0.0,0.0,0.0,0.0,-1.4517,-1.5044,-1.5389,-1.5389,-1.5389,-1.5555,-1.6004,-1.6053,-1.6073,-1.6174,0.0,0.0,0.0,0.0,0.0,0.0,0.0,0.0,0.0,0.0,0.0,0.0,0.0,0.0,0.0,0.0,0.0,0.0,0.0,0.0,0.0,0.0,0.0,0.0,0.0,0.0,0.0,0.0,0.0,0.0,0.0,0.0,0.0,0.0,0.0,0.0,0.0,0.0,0.0,0.0,0.0,0.0,0.0,0.0,0.0,0.0,0.0,0.0,0.0,0.0,0.0,0.0,0.0,0.0,0.0,0.0,0.0,0.0,0.0,0.0,-2.1272,-2.0468,0.0,0.0,0.0,0.0,0.0,0.0,0.0,0.0,0.0,0.0,0.0,0.0,0.0,0.0,0.0,0.0,0.0,0.0,0.0,0.0,0.0,0.0,0.0,0.0,0.0,0.0,0.0,0.0,0.0,0.0,0.0,0.0,0.0,0.0,0.0,0.0,0.0,0.0,0.0,0.0,-1.4553,-1.5044,-1.5389,-1.5389,-1.5389,-1.5431,-1.5555,-1.5555,-1.5431,-1.5227,-1.5607,0.0,0.0,0.0,0.0,0.0,0.0,0.0,0.0,0.0,0.0,0.0,0.0,0.0,0.0,0.0,0.0,0.0,0.0,0.0,0.0,0.0,0.0,0.0,0.0,0.0,0.0,0.0,0.0,0.0,0.0,0.0,0.0,0.0,0.0,0.0,0.0,0.0,0.0,0.0,0.0,0.0,0.0,0.0,0.0,0.0,0.0,0.0,0.0,0.0,0.0,0.0,0.0,0.0,0.0,0.0,0.0,0.0,0.0,0.0,-2.1015,-2.0834,0.0,0.0,0.0,0.0,0.0,0.0,0.0,0.0,0.0,0.0,0.0,0.0,0.0,0.0,0.0,0.0,0.0,0.0,0.0,0.0,0.0,0.0,0.0,0.0,0.0,0.0,0.0,0.0,0.0,0.0,0.0,0.0,0.0,0.0,0.0,0.0,0.0,0.0,0.0,0.0,-1.5401,-1.5193,-1.5124,-1.5257,-1.5264,-1.5305,-1.5389,-1.5389,-1.5325,-1.5149,-1.5482,0.0,0.0,0.0,0.0,0.0,0.0,0.0,0.0,0.0,0.0,0.0,0.0,0.0,0.0,0.0,0.0,0.0,0.0,0.0,0.0,0.0,0.0,0.0,0.0,0.0,0.0,0.0,0.0,0.0,0.0,0.0,0.0,0.0,0.0,0.0,0.0,0.0,0.0,0.0,0.0,0.0,0.0,0.0,0.0,0.0,0.0,0.0,0.0,0.0,0.0,0.0,0.0,0.0,-2.0941,-2.0941,-2.0941,-2.0941,-2.0438,-1.968,-2.0553,-2.1026,-2.1122,-2.019,0.0,0.0,0.0,0.0,0.0,0.0,0.0,0.0,0.0,0.0,0.0,0.0,0.0,0.0,0.0,0.0,0.0,0.0,0.0,0.0,0.0,0.0,0.0,0.0,-1.4893,-1.4015,-1.4219,0.0,0.0,0.0,0.0,0.0,0.0,0.0,0.0,0.0,0.0,0.0,-1.5997,-1.5307,-1.4783,-1.4999,-1.5048,-1.509,-1.5257,-1.5298,-1.5298,-1.5298,-1.5425,-1.5584,0.0,0.0,0.0,0.0,0.0,0.0,0.0,0.0,0.0,0.0,0.0,0.0,0.0,0.0,0.0,0.0,0.0,0.0,0.0,0.0,0.0,0.0,0.0,0.0,0.0,0.0,0.0,0.0,0.0,0.0,0.0,0.0,-2.2211,-2.332,0.0,0.0,0.0,0.0,0.0,0.0,0.0,0.0,0.0,0.0,0.0,0.0,0.0,-2.1146,-2.1826,-2.1207,-2.1212,-2.1901,-2.1901,-2.1901,-2.1901,-2.1901,-2.1828,-2.162,-2.051,0.0,-1.9569,-2.0382,0.0,0.0,0.0,0.0,0.0,0.0,0.0,0.0,0.0,0.0,0.0,0.0,0.0,0.0,0.0,0.0,0.0,0.0,0.0,0.0,0.0,0.0,-1.523,-1.5497,-1.4841,-1.418,0.0,-1.4099,-1.4004,-1.4257,-1.4395,0.0,0.0,0.0,0.0,0.0,0.0,0.0,-1.5011,-1.4837,-1.4692,-1.4741,-1.4741,-1.4776,-1.4776,-1.4776,-1.4776,-1.4776,-1.4823,-1.518,-1.5952,-1.5402,0.0,0.0,0.0,0.0,0.0,0.0,0.0,0.0,0.0,0.0,0.0,0.0,0.0,0.0,0.0,0.0,0.0,0.0,0.0,0.0,0.0,0.0,0.0,0.0,0.0,0.0,0.0,0.0,0.0,-2.2098,-2.3001,-2.3323,-2.3359,-2.3225,0.0,0.0,0.0,0.0,0.0,0.0,0.0,0.0,0.0,-2.2182,-2.1578,-2.1371,-2.1682,-2.1328,-2.1371,-2.1709,-2.1709,-2.1709,-2.1709,-2.1709,-2.1709,-2.1666,-2.0997,-2.0598,-2.0418,-2.0092,-2.0125,-2.0345,0.0,0.0,0.0,0.0,-1.8264,-1.8243,-1.8162,-1.8775,-1.951,-1.9,0.0,0.0,0.0,0.0,0.0,0.0,0.0,0.0,0.0,0.0,-1.51,-1.5074,-1.4534,-1.4111,-1.4387,-1.4152,-1.396,0.0,-1.4421,-1.4524,-1.4455,0.0,0.0,0.0,0.0,-1.4678,-1.524,-1.4731,-1.4412,-1.4524,-1.4524,-1.4566,-1.4692,-1.5186,-1.5477,-1.5477,-1.5966,-1.637,-1.678,-1.6404,-1.6212,0.0,0.0,0.0,0.0,0.0,0.0,0.0,0.0,0.0,0.0,0.0,0.0,0.0,0.0,0.0,0.0,0.0,0.0,0.0,0.0,0.0,0.0,0.0,0.0,0.0,0.0,0.0,0.0,-2.1802,-2.2777,-2.2823,-2.2815,-2.2865,0.0,0.0,0.0,0.0,0.0,0.0,-2.2821,-2.2431,-2.2232,-2.2432,-2.204,-2.181,-2.1696,-2.1704,-2.1704,-2.1704,-2.1704,-2.1704,-2.1704,-2.1704,-2.1704,-2.1696,-2.1602,-2.1559,-2.1448,-2.0244,-1.9999,-2.0289,-1.999,-1.9514,-1.9035,-1.8857,-1.8813,-1.8763,-1.8513,-1.896,-1.9592,-1.9401,-1.9273,-1.9097,-1.8376,0.0,0.0,0.0,0.0,-1.6166,-1.4855,-1.4675,-1.4766,-1.4636,-1.4296,-1.4102,-1.4437,-1.4275,-1.4134,0.0,-1.4372,-1.4443,-1.4306,0.0,0.0,0.0,0.0,-1.4451,-1.5197,-1.4573,-1.4166,-1.4321,-1.4321,-1.4363,-1.4531,-1.5193,-1.5602,-1.5602,-1.6214,-1.6542,-1.6542,-1.6494,-1.621,-1.567,0.0,0.0,0.0,0.0,0.0,0.0,0.0,0.0,0.0,0.0,0.0,0.0,0.0,0.0,0.0,0.0,0.0,0.0,0.0,0.0,0.0,0.0,0.0,0.0,0.0,0.0,0.0,0.0,0.0,-2.1371,-2.2739,0.0,0.0,0.0,0.0,-2.1275,-2.0368,-2.0322,-2.1436,-2.1143,-2.1462,-2.2574,-2.2541,-2.255,-2.2534,-2.2534,-2.2534,-2.2534,-2.2534,-2.2534,-2.2534,-2.2534,-2.2534,-2.2525,-2.2115,-2.197,-2.1927,-2.1456,-2.1466,-2.1569,-2.0426,-2.0114,-2.0253,-1.9591,-1.9375,-1.9428,-1.9995,-2.0189,-2.0232,-2.026,-1.9608,-1.8704,-1.7954,-1.7026,0.0,0.0,-1.4186,-1.4563,-1.3459,-1.374,-1.431,-1.434,-1.4286,-1.428,-1.4328,-1.4513,-1.4584,0.0,-1.4225,-1.4221,-1.4199,0.0,-1.4157,-1.4245,-1.4199,-1.4132,-1.4166,-1.4124,-1.4088,-1.413,-1.413,-1.413,-1.413,-1.4173,-1.4208,-1.4208,-1.425,-1.425,-1.425,-1.425,-1.4314,-1.4476,-1.4091,0.0,0.0,0.0,0.0,0.0,0.0,0.0,0.0,0.0,0.0,0.0,0.0,0.0,0.0,0.0,0.0,0.0,0.0,0.0,0.0,0.0,0.0,0.0,0.0,0.0,0.0,0.0,0.0,-2.1276,-2.1886,0.0,-2.1491,-2.1656,-2.1578,-2.1072,-2.135,-2.1722,-2.2173,-2.207,-2.2182,-2.2585,-2.2594,-2.2594,-2.2594,-2.2594,-2.2594,-2.2594,-2.2594,-2.2594,-2.2594,-2.2594,-2.2594,-2.2594,-2.2457,-2.2405,-2.2388,-2.2251,-2.1899,-2.1514,-2.1053,-2.0945,-2.102,-2.0798,-2.0701,-2.0709,-2.0706,-2.0668,-2.0533,-1.962,-1.8226,-1.6832,-1.6565,-1.6218,-1.5648,-1.4383,-1.4701,-1.5186,-1.4133,-1.4087,-1.4298,-1.4298,-1.4298,-1.4298,-1.4298,-1.4394,-1.4387,-1.4292,-1.4353,-1.4404,-1.4226,-1.4178,-1.4146,-1.4144,-1.4002,-1.3903,-1.3848,-1.3822,-1.3822,-1.3822,-1.4004,-1.4088,-1.4088,-1.4615,-1.4943,-1.4943,-1.5477,-1.576,-1.576,-1.5235,-1.4985,-1.5061,-1.4337,-1.3663,0.0,0.0,0.0,0.0,0.0,0.0,0.0,0.0,0.0,0.0,0.0,0.0,0.0,0.0,0.0,0.0,0.0,0.0,0.0,0.0,0.0,0.0,0.0,0.0,0.0,-1.9984,-2.0537,-2.1319,-2.1636,-2.1696,-2.1513,-2.1653,-2.1696,-2.1504,-2.2182,-2.2594,-2.2594,-2.2594,-2.2594,-2.2594,-2.2594,-2.2594,-2.2594,-2.2232,-2.203,-2.2021,-2.1666,-2.1454,-2.1454,-2.1454,-2.1454,-2.1454,-2.1869,-2.1818,-2.1505,-2.1869,-2.1478,-2.0728,-2.1362,-2.136,-2.0995,-2.0918,-2.0627,-2.0248,-2.0021,-1.9948,-1.9812,-1.8894,-1.7435,-1.6031,-1.5985,-1.5719,-1.5274,-1.4514,-1.4765,-1.514,-1.4484,-1.4298,-1.4298,-1.4298,-1.4298,-1.4298,-1.4298,-1.4298,-1.4298,-1.4298,-1.4397,-1.4341,-1.3925,-1.3831,-1.3723,-1.348,-1.3265,-1.3118,-1.3176,-1.3244,-1.3326,-1.3326,-1.3668,-1.387,-1.3955,-1.4207,-1.452,-1.4796,-1.5079,-1.5367,-1.5572,-1.4794,-1.4436,-1.4542,-1.3729,-1.2936,-1.2268,0.0,0.0,0.0,0.0,0.0,0.0,0.0,0.0,0.0,0.0,0.0,0.0,0.0,0.0,0.0,0.0,0.0,0.0,0.0,0.0,0.0,0.0,0.0,-1.9881,-2.0896,-2.1357,-2.1391,-2.2098,-2.2594,-2.2594,-2.2594,-2.2603,-2.2544,-2.2544,-2.2544,-2.2493,-2.2493,-2.2493,-2.2493,-2.2493,-2.2493,-2.2493,-2.1404,-2.0834,-2.0834,-1.9746,-1.9176,-1.9176,-1.9176,-1.9176,-1.928,-2.0364,-2.021,-1.928,-2.0364,-2.021,-1.9406,-2.1179,-2.1255,-2.0253,-1.9905,-1.9086,-1.8136,-1.8136,-1.8086,-1.803,-1.803,-1.7385,-1.649,-1.6261,-1.5503,-1.4672,-1.4401,-1.4316,-1.431,-1.431,-1.4304,-1.4298,-1.4298,-1.4298,-1.4298,-1.4298,-1.4298,-1.4298,-1.4298,-1.4298,-1.4066,-1.3287,-1.315,-1.2908,-1.2277,-1.1995,0.0,-1.2138,-1.2434,-1.2609,-1.2571,-1.3074,-1.3476,-1.3656,-1.2921,-1.2811,-1.3643,-1.2915,-1.2711,-1.336,-1.2775,-1.2596,-1.2922,-1.2149,-1.1905,-1.2229,0.0,0.0,0.0,0.0,0.0,0.0,0.0,0.0,0.0,0.0,0.0,0.0,0.0,0.0,0.0,0.0,0.0,0.0,0.0,0.0,0.0,-1.7122,-1.7733,-1.9645,-1.9884,-2.0127,-2.0963,-2.1954,-2.2594,-2.2594,-2.2594,-2.2283,-2.1454,-2.1353,-2.0987,-2.0158,-2.0107,-2.0107,-2.0107,-2.0107,-2.0107,-2.0107,-1.9797,-1.9694,-1.9642,-1.9332,-1.9176,-1.9176,-1.9176,-1.9176,-1.9228,-1.9539,-1.9487,-1.9228,-1.9539,-1.9487,-1.9265,-1.9751,-1.9764,-1.95,-1.9411,-1.9021,-1.8563,-1.8563,-1.7867,-1.6993,-1.6993,-1.6349,-1.5487,-1.5413,-1.5193,-1.4986,-1.4908,-1.4745,-1.46,-1.46,-1.4449,-1.4298,-1.4298,-1.4298,-1.4298,-1.4298,-1.4298,-1.4298,-1.4298,-1.4298,-1.4255,-1.4005,-1.3957,-1.3878,-1.3654,-1.3448,0.0,-1.3404,-1.3473,-1.3261,-1.246,-1.3287,-1.3578,-1.2705,-1.3076,-1.34,-1.3464,-1.3265,-1.3198,-1.3385,-1.3217,-1.3265,-1.3547,-1.2721,-1.2622,0.0,0.0,0.0,0.0,0.0,0.0,0.0,0.0,0.0,0.0,0.0,0.0,0.0,0.0,0.0,0.0,0.0,0.0,0.0,0.0,0.0,0.0,-1.6392,-1.6946,-1.8318,-1.8895,-1.9449,-2.0089,-2.0783,-2.12,-2.12,-2.12,-2.0885,-2.0261,-2.021,-1.9901,-1.9228,-1.9176,-1.9176,-1.9176,-1.9176,-1.9176,-1.9176,-1.8767,-1.8506,-1.8506,-1.8028,-1.7818,-1.7818,-1.7818,-1.7818,-1.7825,-1.8297,-1.8244,-1.7871,-1.8349,-1.8244,0.0,0.0,0.0,0.0,0.0,-1.771,-1.7509,-1.7509,-1.6988,-1.6298,-1.6298,-1.5892,-1.5415,-1.5306,-1.527,-1.5246,-1.5137,-1.4998,-1.4877,-1.4877,-1.4763,-1.4606,-1.4497,-1.4473,-1.4437,-1.4322,-1.4298,-1.4298,-1.4298,-1.4298,0.0,-1.4298,-1.402,-1.3686,-1.341,-1.3204,-1.3106,-1.3176,-1.3305,-1.3157,-1.2525,-1.3299,-1.3592,-1.2991,-1.3096,0.0,0.0,0.0,-1.3004,-1.3004,-1.3165,0.0,0.0,0.0,-1.2498,-1.3089,0.0,0.0,0.0,-1.2081,-1.1998,0.0,0.0,0.0,0.0,0.0,0.0,0.0,0.0,0.0,0.0,0.0,0.0,0.0,0.0,0.0,0.0,-1.5181,-1.5349,-1.6392,-1.7811,-1.8812,-1.8968,-1.9124,-1.9176,-1.9176,-1.9176,-1.9176,-1.902,-1.902,-1.8968,-1.8812,-1.8812,0.0,0.0,0.0,-1.8812,-1.876,-1.7832,-1.7371,-1.7371,-1.6311,-1.5891,-1.5891,-1.5891,-1.5838,-1.5891,-1.6895,-1.6736,-1.5891,-1.6895,-1.6736,-1.5992,-1.8028,-1.8244,-1.7265,-1.6258,-1.5891,-1.5891,-1.5891,0.0,0.0,-1.5838,-1.5838,-1.5796,-1.5614,-1.5547,-1.5447,-1.5264,-1.5179,-1.5155,-1.5098,-1.508,-1.4996,-1.4767,-1.4713,-1.458,-1.425,-1.4142,-1.4136,-1.3962,-1.3956,-1.4004,-1.41,-1.362,-1.3056,-1.25,-1.2273,-1.2233,-1.239,-1.2681,-1.2837,-1.2717,0.0,0.0,-1.3713,-1.3065,-1.301,-1.3794,-1.3059,-1.2606,-1.2606,-1.2899,-1.2593,-1.1615,-1.1875,-1.2202,-1.2536,-1.2536,-1.3025,-1.3906,-1.302,-1.2916,0.0,0.0,0.0,0.0,0.0,0.0,0.0,0.0,0.0,0.0,0.0,0.0,0.0,0.0,0.0,-1.4618,-1.482,-1.5076,-1.5274,-1.5613,-1.6246,-1.7345,-1.8492,-1.9176,-1.9176,-1.9176,-1.8819,-1.7996,-1.7891,-1.7523,-1.6571,-1.6518,-1.6518,-1.6518,-1.6518,-1.6418,-1.6211,-1.6004,-1.5903,-1.5903,0.0,0.0,-1.5891,-1.569,-1.5583,-1.5583,-1.5523,-1.5357,-1.5196,-1.541,-1.5357,-1.525,-1.6199,-1.6411,-1.6205,-1.5998,-1.5891,-1.5891,-1.5636,-1.5583,-1.5583,-1.5583,-1.5369,-1.5244,-1.5672,-1.566,0.0,-1.5706,-1.559,-1.5369,-1.5156,-1.495,-1.4784,-1.4687,-1.4725,-1.4441,-1.3513,-1.3309,-1.3057,-1.1986,-1.1809,-1.2052,-1.2877,-1.3588,-1.402,-1.3904,-1.3839,-1.3839,-1.3886,-1.3971,-1.3658,-1.2795,-1.3515,-1.3664,-1.2705,-1.3218,-1.3619,-1.3598,-1.3413,-1.3329,-1.3329,-1.3377,-1.3407,-1.3413,-1.3468,-1.3644,-1.3912,-1.3912,-1.402,-1.4208,-1.3811,-1.3783,0.0,0.0,0.0,0.0,0.0,0.0,0.0,0.0,0.0,0.0,0.0,-1.3347,-1.3347,0.0,-1.375,-1.375,-1.4233,-1.4617,-1.4617,-1.4719,-1.5083,-1.5933,-1.6664,-1.7081,-1.7081,-1.7081,-1.6876,-1.6365,-1.6311,-1.6099,-1.5737,-1.5517,-1.5517,-1.5684,-1.5517,-1.5416,-1.5261,-1.5261,-1.5261,-1.5261,-1.5261,-1.5309,-1.5464,-1.5309,-1.5261,-1.5261,-1.5095,-1.4987,-1.4987,-1.4987,-1.4987,-1.5035,-1.5303,-1.5464,-1.5464,-1.563,-1.5577,-1.5464,-1.5482,-1.5369,-1.5261,-1.5261,-1.5148,-1.5035,-1.5357,-1.5363,-1.5261,-1.541,-1.537,-1.5112,-1.4358,-1.4106,-1.3829,-1.3065,-1.2883,-1.2713,-1.2028,-1.1878,-1.1719,-1.1219,-1.1083,-1.1298,-1.1873,-1.2393,-1.3125,-1.4148,-1.4298,-1.4298,-1.4298,-1.4298,-1.4093,-1.3562,-1.3957,-1.3981,-1.335,-1.3768,-1.4052,-1.3906,-1.3906,-1.3906,-1.3906,-1.3906,-1.3966,-1.4099,-1.4099,-1.4165,-1.4298,-1.4298,-1.4298,-1.4292,-1.363,-1.3635,0.0,0.0,0.0,0.0,0.0,0.0,0.0,0.0,-1.3715,-1.383,-1.3485,-1.3161,-1.3161,-1.3221,-1.3313,-1.3313,-1.3809,-1.4196,-1.4196,-1.4401,-1.4611,-1.4826,-1.4934,-1.4987,-1.4987,-1.4987,-1.4987,-1.4987,-1.4987,-1.5095,-1.5369,-1.5148,-1.5095,-1.5369,-1.5148,-1.4987,-1.4928,-1.4928,-1.4928,-1.4928,-1.4928,-1.4928,-1.4987,-1.4928,-1.4928,-1.4928,-1.488,-1.4826,-1.4826,-1.4826,-1.4826,-1.4826,-1.4826,-1.4826,-1.488,-1.5261,-1.5208,-1.5035,-1.5261,-1.5148,-1.4928,-1.4928,-1.488,-1.488,-1.4987,-1.4821,-1.46,-1.4654,-1.4493,-1.4105,-1.3122,-1.2856,-1.2586,-1.1389,-1.1082,-1.0977,-1.0584,-1.0489,-1.0439,-1.0365,-1.0332,-1.0424,-1.0722,-1.0789,-1.1458,-1.3426,-1.3661,-1.3613,-1.3613,-1.3806,-1.3908,-1.3908,-1.4148,-1.4298,-1.4298,-1.4298,-1.4298,-1.4298,-1.4298,-1.4298,-1.4298,-1.4298,-1.4298,-1.4298,-1.4298,-1.4202,-1.4004,-1.4004,-1.3902,-1.3661,-1.2829,-1.2974,-1.1261,-1.1251,-1.1312,-1.1312,-1.1734,-1.2343,0.0,0.0,-1.3368,-1.403,-1.4108,-1.406,-1.406,-1.4072,-1.4073,-1.4073,-1.4143,-1.4196,-1.4196,-1.425,-1.4245,-1.4299,-1.4724,-1.4987,-1.4987,-1.4987,-1.4987,-1.4987,-1.4987,-1.5041,-1.5041,-1.5041,-1.5041,-1.5041,-1.5041,-1.4874,-1.4659,-1.4659,-1.4659,-1.4659,-1.4659,-1.4767,-1.4982,-1.4767,-1.4659,-1.4606,-1.4401,-1.4299,-1.4299,-1.4299,-1.4299,-1.4299,-1.4299,-1.4299,-1.4353,-1.4886,-1.5035,-1.4987,-1.4767,-1.4659,-1.4659,-1.4659,-1.4504,-1.4407,-1.488,-1.411,-1.3181,-1.3398,-1.2733,-1.1796,-1.1433,-1.1324,-1.1319,-1.1134,-1.1071,-1.0862,-0.9927,-0.9732,-0.9367,-0.8223,-0.799,-0.8252,-0.9107,-0.9229,-0.9778,-1.1296,-1.1317,-1.117,-1.117,-1.195,-1.2533,-1.2533,-1.3613,-1.4298,-1.4298,-1.4298,-1.4298,-1.4298,-1.4298,-1.4298,-1.4298,-1.4298,-1.4298,-1.4298,-1.4298,-1.3806,-1.2877,-1.2877,-1.2436,-1.156,-1.1414,-1.1901,-1.1724,-1.1556,-1.1491,-1.2598,-1.2754,-1.285,-1.3577,-1.3739,-1.3825,-1.4132,-1.4196,-1.4196,-1.4196,-1.4196,-1.4196,-1.4196,-1.4196,-1.4196,-1.4196,-1.4196,-1.4196,-1.4196,-1.4527,-1.4658,-1.4526,-1.4509,-1.4564,-1.4702,-1.4713,-1.4828,-1.5138,-1.5033,-1.5033,-1.5143,-1.5033,-1.4861,-1.4806,-1.475,-1.4685,-1.4543,-1.4543,-1.4532,-1.4509,-1.4401,-1.4347,-1.4347,-1.4245,-1.4196,-1.4196,-1.4196,-1.4196,-1.4196,-1.4196,-1.4196,-1.4245,-1.4611,-1.4665,-1.4563,-1.4606,-1.4504,-1.4347,-1.4347,-1.3797,-1.3192,-1.3398,-1.2635,-1.1655,-1.1764,-1.1428,-1.0828,-1.0014,-0.9798,-0.9629,-0.8968,-0.8803,-0.8731,-0.8291,-0.8224,-0.8077,-0.7573,-0.7496,-0.7611,-0.8099,-0.8176,-0.8415,-0.9013,-0.9929,-1.0574,-1.0574,-1.0912,-1.1205,-1.1205,-1.1692,-1.2032,-1.2032,-1.2032,-1.2032,-1.2032,-1.2032,-1.2032,-1.2032,-1.2032,-1.2086,-1.2242,-1.2242,-1.2096,-1.1853,-1.1853,-1.1609,-1.117,-1.0538,-1.0485,-1.1709,-1.1587,-1.1544,-1.307,-1.3283,-1.3282,-1.3853,-1.4083,-1.4196,-1.4196,-1.4196,-1.4196,-1.4196,-1.4196,-1.4196,-1.4196,-1.4196,-1.4196,-1.4196,-1.425,-1.4288,-1.4288,-1.4492,-1.4568,-1.4401,-1.4385,-1.4449,-1.4622,-1.4632,-1.4758,-1.5163,-1.4999,-1.4999,-1.5168,-1.4999,-1.4885,-1.4885,-1.4885,-1.4799,-1.4632,-1.4632,-1.4546,-1.4379,-1.4315,-1.4256,-1.4196,-1.4196,-1.4196,-1.4196,-1.4196,-1.4024,-1.3694,-1.3694,-1.3532,-1.3256,-1.3457,-1.3624,-1.3689,-1.357,-1.3408,-1.3256,-1.3256,-1.2644,-1.1923,-1.1923,-1.1109,-1.0178,-1.0178,-0.9959,-0.9519,-0.8644,-0.8423,-0.8205,-0.7376,-0.721,-0.721,-0.721,-0.721,-0.7241,-0.7316,-0.7354,-0.7371,-0.7408,-0.744,-0.7425,-0.739,-0.8538,-0.9418,-0.947,-0.9665,-0.9976,-1.0369,-1.0418,-1.0418,-1.0418,-1.0418,-1.0418,-1.0418,-1.0418,-1.0418,-1.0418,-1.0418,-1.0471,-1.0676,-1.0676,-1.0627,-1.0529,-1.0529,-1.0435,-1.0194,-0.9312,-0.9015,0.0,0.0,-1.0773,-1.1328,-1.2402,-1.329,-1.331,-1.3753,-1.4196,-1.4196,-1.4196,-1.4196,-1.4196,-1.4196,-1.4196,-1.4196,-1.4196,-1.4196,-1.4196,-1.4385,-1.4469,-1.4469,-1.4729,-1.4869,0.0,-1.4864,-1.4864,-1.4875,-1.4875,-1.4875,-1.4885,-1.4885,-1.4885,-1.4885,-1.4885,-1.4885,-1.4885,-1.4885,-1.488,-1.4875,-1.4875,-1.4869,-1.4853,-1.4627,-1.4406,-1.4196,-1.4196,-1.4196,-1.4196,-1.4196,-1.3527,-1.2472,-1.2472,-1.1764,-1.0836,-1.0836,-1.1487,-1.2309,-1.1214,-1.0836,-1.0836,-1.0836,-1.0781,-1.0726,-1.0726,-0.9908,-0.8975,-0.8975,-0.8149,-0.7321,-0.7265,-0.7265,-0.7265,-0.721,-0.721,-0.721,-0.721,-0.721,-0.721,-0.7207,-0.7204,-0.7169,-0.7054,-0.7035,-0.6993,-0.682,-0.6848,-0.6959,-0.7098,-0.7915,-0.8951,-1.0271,-1.0418,-1.0418,-1.0418,-1.0418,-1.0418,-1.0418,-1.0418,-1.0418,-1.0418,-1.0418,-1.0418,-1.0418,-1.0418,-0.9882,-0.8852,-0.8852,-0.8471,-0.7693,-0.7388,-0.7537,0.0,0.0,-1.0943,-1.1864,-1.2661,-1.3315,-1.3315,-1.3759,-1.4196,-1.4196,-1.3809,-1.347,-1.347,-1.3087,-1.297,-1.3394,-1.361,-1.3884,-1.4352,-1.4622,-1.4767,-1.4767,-1.4982,0.0,0.0,0.0,0.0,-1.5117,-1.5128,-1.5198,-1.5348,-1.5359,-1.5359,-1.5359,-1.5359,-1.5359,-1.5359,-1.5359,-1.5278,-1.5128,-1.4961,-1.4478,-1.3611,-1.3542,-1.2941,-1.1966,-1.1966,-1.1894,-1.1878,-1.1878,-1.1655,-1.1273,-1.1273,-1.1055,-1.0617,-0.9798,-0.9743,-1.0123,-1.0562,-1.0726,-1.0726,-1.0726,-1.0178,-0.9526,-0.9526,-0.8699,-0.7762,-0.7762,-0.7487,-0.721,-0.721,-0.721,-0.721,-0.721,-0.721,-0.721,-0.721,-0.721,-0.721,-0.721,-0.721,-0.7196,-0.7158,-0.7152,-0.7114,-0.6942,-0.6855,-0.676,-0.6741,-0.6989,-0.7327,-0.7726,-0.7766,-0.7766,-0.7766,-0.7766,-0.7766,-0.7766,-0.7766,-0.7766,-0.7766,-0.7766,-0.7819,-0.8021,-0.8021,-0.7925,-0.773,-0.773,-0.758,-0.7341,-0.7238,-0.7288,0.0,-1.0239,-1.063,-1.1199,-1.2001,-1.2713,-1.293,-1.3428,-1.3847,-1.3804,-1.3432,-1.3028,-1.2775,-1.2402,-1.2354,-1.3109,-1.3373,-1.3755,-1.4546,-1.4864,-1.5015,-1.5015,-1.523,-1.5317,0.0,0.0,0.0,-1.5306,-1.5317,-1.544,-1.5591,-1.5601,-1.5601,-1.5601,-1.5601,-1.5601,-1.5601,-1.5601,-1.5284,-1.4662,-1.4033,-1.3283,-1.2458,-1.2458,-1.1831,-1.0855,-1.0795,-1.0763,-1.0706,-1.07,-1.0453,-1.0069,-1.0069,-0.9794,-0.9354,-0.8589,-0.8315,-0.8423,-0.9189,-0.9464,-0.9464,-0.9464,-0.8916,-0.8315,-0.8315,-0.7762,-0.721,-0.721,-0.721,-0.721,-0.721,-0.721,-0.721,-0.721,-0.721,-0.721,-0.721,-0.721,-0.721,-0.721,-0.721,-0.721,-0.721,-0.721,-0.7185,-0.7056,-0.6978,-0.6869,-0.6706,-0.6684,-0.6654,-0.6575,-0.6567,-0.6548,-0.6454,-0.6452,-0.6433,-0.6389,-0.6387,-0.6387,-0.6387,-0.6387,-0.6487,-0.6642,-0.6642,-0.6739,-0.6936,-0.6936,-0.6939,-0.7042,-0.6939,-0.7036,-0.8507,-0.9163,-0.9737,-0.941,-1.0464,-1.1678,-1.2164,-1.2797,-1.3189,-1.3042,-1.2995,-1.2791,0.0,0.0,-1.237,-1.3287,-1.3486,-1.3841,-1.4772,-1.5112,-1.521,0.0,0.0,0.0,0.0,0.0,0.0,-1.5601,-1.5601,-1.5601,-1.5601,-1.5601,-1.5601,-1.5601,-1.5537,-1.5477,-1.5477,-1.5418,-1.4813,-1.3605,-1.2337,-1.1587,-1.1311,-1.1311,-1.1153,-1.0797,-1.0697,-1.0618,-1.0647,-1.0532,-0.986,-0.8813,-0.8813,-0.8149,-0.721,-0.721,-0.721,-0.721,-0.721,-0.721,-0.721,-0.721,-0.721,-0.721,-0.721,-0.721,-0.721,-0.721,-0.721,-0.721,-0.721,-0.721,-0.721,-0.721,-0.721,-0.721,-0.721,-0.721,-0.721,-0.721,-0.721,-0.721,-0.721,-0.721,-0.721,-0.721,-0.721,-0.7125,-0.6842,-0.6812,-0.6809,-0.6801,-0.6801,-0.6755,-0.6638,-0.663,-0.6578,-0.6414,-0.6403,-0.6403,-0.6403,-0.6403,-0.6403,-0.6403,-0.6403,-0.6403,-0.6403,-0.6403,-0.6556,-0.6812,-0.6556,-0.6703,-0.8222,-0.831,-0.8445,-0.8391,-0.9464,-1.0566,-1.0731,-1.1433,-1.2001,-1.1987,-1.1515,-1.1087,-1.1077,-1.1301,-1.1838,-1.284,-1.3545,0.0,-1.499,-1.5365,0.0,-1.551,0.0,-1.5601,-1.5601,-1.5601,0.0,-1.5601,-1.5601,-1.5601,-1.5601,-1.5601,-1.5601,-1.5601,-1.4689,-1.4207,-1.4207,-1.3181,-1.2517,-1.2217,-1.1852,-1.117,-1.0229,-1.0229,-0.961,-0.8532,-0.8499,-0.8369,-0.8177,-0.8201,-0.7959,-0.7651,-0.7651,-0.7429,-0.721,-0.721,-0.721,-0.721,-0.721,-0.721,-0.721,-0.721,-0.721,-0.721,-0.721,-0.721,-0.721,-0.721,-0.721,-0.721,-0.721,-0.721,-0.721,-0.721,-0.721,-0.721,-0.721,-0.721,-0.721,-0.721,-0.721,-0.721,-0.721,-0.721,-0.721,-0.721,-0.721,-0.7158,-0.6956,-0.694,-0.6904,-0.6812,-0.6801,-0.679,-0.6757,-0.6755,-0.6741,-0.6711,-0.6709,-0.6709,-0.6709,-0.6709,-0.6709,-0.6709,-0.6709,-0.6709,-0.6709,-0.6709,-0.6709,-0.6815,-0.6709,-0.6711,-0.8086,-0.7974,-0.7919,-0.7537,-0.864,-0.9793,-0.9518,-1.0143,-1.0644,-1.0069,-0.9851,-0.9828,-1.025,-1.0733,-1.1566,0.0,0.0,0.0,-1.5231,-1.5515,-1.5601,0.0,-1.5601,0.0,-1.4813,-1.4753,-1.451,-1.3904,-1.4446,-1.4753,-1.4753,-1.4207,-1.3904,-1.3904,-1.3181,-1.2817,-1.2817,-1.1491,-1.0891,-1.0887,-1.0286,-0.9684,-0.8961,-0.8961,-0.856,-0.7774,0.0,-0.7622,-0.7489,-0.7323,-0.7296,-0.7228,-0.7232,-0.721,-0.721,-0.721,-0.721,-0.721,-0.721,-0.721,-0.721,-0.721,-0.721,-0.721,-0.721,-0.721,-0.721,-0.721,-0.721,-0.721,-0.721,-0.721,-0.721,-0.721,-0.721,-0.721,-0.721,-0.721,-0.721,-0.721,-0.721,-0.721,-0.721,-0.721,-0.721,-0.721,-0.721,-0.7188,-0.7122,-0.7114,-0.7032,-0.6964,-0.6956,-0.6937,-0.6888,-0.6883,-0.6861,-0.6804,-0.6801,-0.6801,-0.6801,-0.6801,-0.6801,-0.6801,-0.6801,-0.6801,-0.6801,-0.6801,-0.6801,-0.6801,-0.6801,-0.6766,-0.7828,-0.7645,-0.7479,-0.6712,-0.7817,-0.891,-0.8347,-0.8809,-0.9092,-0.7941,-0.8123,-0.8755,-0.9614,-1.0246,-1.141,-1.3604,0.0,-1.4446,-1.499,-1.5235,-1.5299,-1.5116,-1.5056,-1.4629,-1.3545,-1.3421,-1.2942,-1.1792,-1.2637,-1.3241,-1.3421,-1.2333,-1.1611,-1.143,-1.143,-1.137,-1.1189,-1.0105,-0.9562,-0.9562,-0.8416,-0.7872,-0.7872,-0.7872,-0.7872,-0.7867,-0.7766,-0.7717,-0.7684,-0.7472,-0.7317,-0.729,-0.7225,-0.7235,-0.7232,-0.7215,-0.721,-0.721,-0.721,-0.721,-0.721,-0.721,-0.721,-0.721,-0.721,-0.721,-0.721,-0.721,-0.721,-0.721,-0.721,-0.721,-0.721,-0.721,-0.721,-0.721,-0.721,-0.721,-0.721,-0.721,-0.721,-0.721,-0.721,-0.721,-0.721,-0.721,-0.7043,-0.7043,-0.7154,-0.721,-0.721,-0.721,-0.721,-0.7169,-0.7016,-0.7008,-0.6961,-0.6855,-0.685,-0.685,-0.685,-0.685,-0.685,-0.685,-0.685,-0.685,-0.685,-0.685,-0.685,-0.685,-0.685,-0.6839,-0.6251,-0.5824,-0.5824,-0.5659,-0.6381,-0.7059,-0.6747,-0.7023,0.0,0.0,-0.6774,-0.7435,-0.9222,-1.0103,-1.1031,-1.263,-1.3749,-1.3938,-1.255,-1.3301,-1.3605,0.0,-1.2393,-1.2273,-1.2097,-1.2032,0.0,-1.1732,-1.0948,-1.0948,-1.1972,-1.1852,-1.1249,-1.0165,-1.0105,-0.9623,-0.8596,-0.8355,-0.8233,-0.8233,-0.7991,-0.7872,-0.7872,-0.7872,-0.7872,-0.7869,-0.785,0.0,-0.7698,-0.7655,-0.7578,-0.7475,-0.735,-0.7304,-0.7293,-0.7248,-0.721,-0.721,-0.721,-0.721,-0.721,-0.721,-0.721,-0.721,-0.721,-0.721,-0.721,-0.721,-0.721,-0.721,-0.721,-0.721,-0.721,-0.721,-0.721,-0.721,-0.721,-0.721,-0.721,-0.721,-0.721,-0.721,-0.721,-0.721,-0.721,-0.721,-0.6374,-0.6096,-0.7099,-0.721,-0.721,-0.721,-0.721,-0.7202,-0.7182,-0.718,-0.7172,-0.715,-0.715,-0.715,-0.715,-0.715,-0.715,-0.715,-0.715,-0.715,-0.715,-0.715,-0.715,-0.715,-0.715,-0.7098,-0.6278,-0.5654,-0.5382,-0.5382,-0.6049,-0.6471,-0.561,0.0,0.0,-0.521,-0.5454,-0.6312,-0.7979,-0.8968,-0.9992,-1.1434,-1.2312,-1.2481,-1.1645,-1.2213,-1.2397,-1.1792,-1.1671,-1.143,-1.0767,-1.071,-1.0468,-0.9744,-0.914,-0.938,-1.0646,-1.0105,-0.9444,-0.8839,-0.8839,-0.8538,-0.7933,-0.7872,-0.7872,-0.7872,-0.7872,-0.7872,-0.7872,-0.7872,-0.7872,-0.7872,-0.7872,-0.7839,-0.7785,-0.7725,-0.7665,-0.7603,-0.7478,-0.7333,-0.7271,-0.7271,-0.7209,-0.7154,-0.699,-0.6935,-0.6935,-0.6935,-0.7046,-0.721,-0.721,-0.721,-0.721,-0.721,-0.721,-0.721,-0.721,-0.721,-0.721,-0.721,-0.721,-0.721,-0.721,-0.721,-0.721,-0.721,-0.721,-0.721,-0.721,-0.6652,-0.6262,-0.6262,-0.5258,-0.4698,-0.5254,-0.531,-0.5813,-0.7043,-0.721,-0.6932,-0.6318,-0.6262,-0.5982,-0.5365,-0.531,-0.531,-0.531,-0.531,-0.531,-0.531,-0.531,-0.531,-0.531,-0.531,-0.531,-0.531,-0.531,-0.5289,-0.6685,-0.5917,-0.5382,-0.5382,-0.5938,-0.611,-0.4916,-0.5154,0.0,-0.4061,-0.4484,-0.5496,-0.6927,-0.7763,-0.8708,-1.0072,-1.0646,-1.0781,-1.0524,-1.0918,-1.1108,-1.094,-1.0887,0.0,-0.9502,-0.9383,-0.8958,-0.7991,-0.7955,-0.8386,-0.9323,-0.8416,-0.7872,-0.7872,-0.7872,-0.7872,-0.7872,-0.7872,-0.7872,-0.7872,-0.7872,-0.7872,-0.7872,-0.7872,-0.7872,-0.7872,-0.7872,-0.7872,-0.7864,-0.7774,-0.7739,-0.7725,-0.7606,-0.75,-0.7407,-0.7298,-0.722,-0.7078,-0.6778,-0.6659,-0.6604,-0.6604,-0.6826,-0.7099,-0.7099,-0.7099,-0.7099,-0.7046,-0.699,-0.7046,-0.7102,-0.7099,-0.7099,-0.7099,-0.7099,-0.7102,-0.7046,-0.699,-0.6932,-0.6649,-0.6649,-0.6538,-0.6258,-0.5423,-0.481,-0.481,-0.3804,-0.3132,-0.3356,-0.3188,-0.3858,-0.6033,-0.6313,-0.5924,-0.4977,-0.4921,-0.4529,-0.358,-0.358,-0.358,-0.358,-0.358,-0.358,-0.358,-0.358,-0.358,-0.358,-0.358,-0.358,-0.358,-0.358,-0.358,-0.6837,-0.6026,-0.5382,-0.5382,-0.5437,-0.537,-0.48,0.0,-0.4581,-0.4022,-0.4297,-0.5168,-0.6882,-0.7187,-0.7486,-0.8552,-0.9396,-0.9338,-0.77,-0.869,-0.9271,-0.8329,0.0,0.0,-0.8113,-0.8052,-0.8052,-0.7933,-0.8034,-0.8048,-0.8058,-0.7994,-0.7872,-0.7872,-0.7872,-0.7872,-0.7872,-0.7872,-0.7872,-0.7872,-0.7872,-0.7872,-0.7872,-0.7872,-0.7872,-0.7872,-0.7872,-0.7872,0.0,-0.7858,-0.7856,-0.7845,-0.7731,-0.7679,-0.7641,-0.7418,-0.716,-0.6912,-0.6751,-0.655,-0.633,-0.633,-0.6495,-0.6768,-0.6768,-0.6768,-0.6715,-0.6439,-0.6386,-0.6439,-0.6659,-0.6768,-0.6768,-0.6768,-0.6768,-0.6659,-0.6439,-0.6386,-0.6047,-0.4975,-0.4751,-0.4414,-0.3297,-0.3018,-0.2962,-0.2962,-0.1902,-0.1566,-0.2627,-0.1846,-0.1678,-0.2962,-0.3353,-0.341,-0.3299,-0.3299,-0.3243,-0.3131,-0.3412,-0.358,-0.358,-0.358,-0.358,-0.358,-0.358,-0.358,-0.358,-0.358,-0.358,-0.358,-0.358,-0.358,-0.6391,-0.5761,-0.5382,-0.5382,-0.5382,-0.5249,-0.4743,0.0,-0.4444,-0.3991,-0.4226,-0.4706,-0.5457,-0.5706,-0.5955,-0.6495,-0.6977,0.0,-0.6937,-0.7533,-0.7892,-0.7662,-0.775,-0.7811,-0.763,-0.7811,-0.7963,-0.8037,-0.8095,-0.8141,-0.8092,-0.8089,-0.8057,-0.8045,-0.8043,-0.8007,-0.7872,-0.7872,-0.7872,-0.7872,-0.7872,-0.7872,-0.7872,-0.7872,-0.7811,-0.763,-0.763,-0.7508,0.0,-0.7508,-0.763,-0.7625,-0.776,-0.7763,-0.769,-0.7351,-0.71,-0.6912,-0.6457,-0.6195,-0.6132,-0.6011,-0.6047,-0.6212,-0.6383,-0.6439,-0.6439,-0.633,-0.6274,-0.633,-0.6439,-0.6439,-0.6439,-0.6439,-0.6439,-0.6214,-0.5369,-0.5202,-0.4866,-0.3634,-0.3409,-0.3242,-0.2795,-0.2125,-0.1622,-0.1622,-0.0616,0.0,-0.0448,-0.0112,0.0,-0.0504,-0.1902,-0.2573,-0.1846,-0.179,-0.1455,-0.0728,-0.084,-0.0896,-0.0896,-0.1064,-0.1176,-0.1176,-0.1344,-0.1456,-0.1456,-0.1456,-0.1456,-0.1456,-0.1456,-0.1456,-0.6833,-0.6153,-0.5643,-0.5755,-0.556,-0.5186,0.0,0.0,-0.4418,-0.4022,-0.4218,-0.442,-0.446,-0.4745,-0.5034,-0.5153,-0.5402,-0.5795,-0.6386,-0.6694,-0.6937,-0.7005,-0.7345,-0.7391,-0.718,-0.7538,-0.7867,-0.802,-0.8175,-0.8304,-0.8337,-0.8339,-0.8269,-0.8111,-0.8136,-0.8075,-0.7988,-0.7949,-0.7872,-0.775,-0.775,-0.7689,-0.763,-0.763,-0.7447,-0.7266,-0.7266,-0.7143,0.0,-0.7143,-0.7266,-0.7263,-0.7508,-0.7519,-0.7449,-0.717,-0.6929,-0.6735,-0.6221,-0.5937,-0.5842,-0.5717,-0.5678,-0.5712,-0.594,-0.6107,-0.6161,-0.6051,-0.6107,-0.6161,-0.6161,-0.6219,-0.6274,-0.6161,-0.6161,-0.588,-0.4979,-0.4754,-0.4418,-0.3187,-0.2684,-0.2293,-0.1958,-0.0895,-0.0112,-0.0112,0.0616,0.1177,0.1177,0.1177,0.1177,0.1177,-0.0336,-0.1063,-0.0336,-0.0224,0.0112,0.0953,0.0953,0.0897,0.0897,0.0673,0.0561,0.0561,0.0336,0.028,0.028,0.028,0.028,0.028,0.028,0.0224,-0.8524,-0.7524,-0.6267,-0.6601,-0.5895,-0.5061,0.0,-0.4578,-0.4316,-0.4047,-0.4274,-0.4482,-0.4426,-0.474,-0.4987,-0.4913,-0.5138,0.0,-0.5579,-0.6032,-0.6294,-0.6245,-0.6453,-0.6601,-0.6496,-0.717,-0.7711,-0.7867,-0.8217,-0.8465,-0.8579,-0.8584,-0.8475,-0.8178,-0.8117,-0.8117,-0.8114,-0.7993,-0.775,-0.7385,-0.7385,-0.7204,-0.69,-0.69,-0.69,-0.69,-0.69,-0.69,0.0,-0.69,-0.69,-0.69,-0.69,-0.69,-0.6886,-0.6779,-0.6557,-0.6301,-0.6149,-0.5818,-0.5508,-0.5506,-0.5449,-0.5382,-0.5382,-0.5603,-0.5766,-0.5491,-0.5603,-0.5822,-0.5822,-0.6049,-0.6219,-0.588,-0.5822,-0.5712,-0.5435,-0.5382,-0.5043,-0.3805,-0.2629,-0.1456,-0.0224,0.0953,0.1795,0.1795,0.1795,0.1795,0.1795,0.1795,0.1795,0.1795,0.1795,0.1627,0.129,0.129,0.129,0.129,0.1065,0.0897,0.0897,0.0897,0.0897,0.0897,0.0897,0.0897,0.0897,0.0897,0.0897,0.0897,0.0897,0.0729,-0.7417,-0.6675,-0.5906,-0.5509,-0.5169,-0.4806,-0.4568,-0.4449,-0.4332,-0.4171,-0.4237,-0.4309,-0.4339,-0.4438,-0.454,-0.4682,-0.4761,-0.4988,-0.5525,-0.5861,-0.6032,-0.6139,-0.6353,-0.6566,-0.6846,-0.7161,-0.7345,-0.7486,-0.7698,-0.7823,-0.7856,-0.7858,-0.7923,-0.7969,-0.7992,-0.7809,-0.7475,-0.7363,-0.7247,-0.7122,-0.7054,-0.7023,-0.69,-0.69,-0.6775,-0.6528,-0.6528,-0.6407,-0.6223,-0.6467,-0.6528,-0.6589,-0.6837,-0.69,-0.6896,-0.6614,-0.6417,-0.6343,-0.6009,-0.5839,-0.5684,-0.562,-0.5584,-0.5549,-0.5486,-0.5483,-0.5491,-0.5437,-0.5435,-0.5547,-0.5547,-0.5605,-0.5661,-0.5547,-0.5547,-0.5266,-0.4367,-0.4142,-0.3805,-0.263,-0.2071,-0.1679,-0.1288,-0.0224,0.0561,0.0561,0.129,0.1795,0.1795,0.1795,0.1795,0.1795,0.1795,0.1739,0.1627,0.1627,0.1627,0.1627,0.157,0.1514,0.1514,0.129,0.1177,0.1177,0.1009,0.0897,0.0897,0.0897,0.0897,0.0897,0.0897,0.0841,0.0,-0.6912,-0.6129,-0.5767,-0.523,0.0,0.0,-0.4432,-0.4344,-0.4202,-0.4226,-0.4277,-0.4295,-0.4355,-0.4451,-0.46,-0.4594,-0.4758,-0.5173,-0.5396,-0.558,-0.5755,-0.5946,-0.6185,-0.6538,-0.6871,-0.7076,-0.7149,-0.7353,-0.7526,-0.7526,-0.7526,-0.7493,-0.7556,-0.7646,-0.7529,-0.7269,-0.7162,-0.6962,-0.6797,-0.6738,-0.669,-0.6532,-0.6532,-0.6407,-0.6221,-0.6221,-0.6099,0.0,-0.6099,-0.6221,-0.6221,-0.6469,-0.6532,-0.6471,-0.6283,-0.6221,-0.6151,-0.5912,-0.581,-0.5772,-0.5714,-0.5613,-0.5574,-0.5576,-0.5475,-0.5382,-0.5382,-0.5382,-0.5382,-0.5382,-0.5382,-0.5382,-0.5382,-0.5382,-0.5212,-0.4423,-0.4255,-0.403,-0.3302,-0.2798,-0.2463,-0.2463,-0.112,0.0,0.0,0.1009,0.1795,0.1795,0.1795,0.1795,0.1795,0.1795,0.1795,0.1795,0.1795,0.1795,0.1795,0.1795,0.1795,0.1795,0.1627,0.1514,0.1514,0.1346,0.1234,0.1234,0.1234,0.1234,0.1234,0.1234,0.1177,0.0,-0.7934,-0.6821,-0.7021,-0.5835,-0.4647,-0.46,-0.442,0.0,-0.4241,-0.4316,-0.4364,-0.4324,-0.4453,-0.4604,-0.4694,-0.4632,-0.4606,-0.4704,-0.4808,-0.4918,-0.5178,-0.5424,-0.5639,-0.5902,-0.6336,-0.6774,-0.696,-0.7252,-0.7459,-0.7459,-0.7459,-0.7257,-0.6985,-0.7162,-0.7245,-0.7245,-0.7142,-0.6914,-0.6508,-0.6495,-0.6256,-0.5927,-0.5921,-0.5916,0.0,-0.5916,-0.5916,-0.5916,-0.5916,-0.5916,-0.5916,-0.5916,-0.5916,-0.5916,-0.5916,-0.5916,-0.5916,-0.5916,-0.5861,-0.579,-0.579,-0.5729,-0.5594,-0.5594,-0.5535,-0.5398,-0.5392,-0.5392,-0.539,-0.5382,-0.5382,-0.5382,-0.5382,-0.5382,-0.5382,-0.5382,-0.5382,-0.5382,-0.5382,-0.448,-0.3692,-0.3636,-0.1679,-0.0112,0.0,0.1009,0.1795,0.1795,0.1795,0.1795,0.1795,0.1795,0.1795,0.1795,0.1795,0.1795,0.1795,0.1795,0.1795,0.1795,0.1795,0.1795,0.1795,0.1795,0.1795,0.1795,0.1795,0.1795,0.1795,0.1795,0.1627,-0.8843,0.0,-0.7078,-0.6062,-0.5534,-0.5044,0.0,0.0,0.0,0.0,0.0,-0.4382,-0.436,-0.4496,-0.4604,-0.4694,-0.4632,-0.4626,-0.4783,-0.5063,-0.53,-0.5431,-0.5667,-0.5874,-0.5946,-0.6182,-0.6358,-0.6471,-0.6614,-0.6723,-0.6723,-0.6723,-0.6721,-0.6587,-0.6633,-0.6687,-0.6687,-0.6594,-0.6469,-0.6316,-0.618,-0.6041,-0.5956,-0.5949,-0.5916,-0.5916,-0.5916,-0.5916,-0.5916,-0.5916,-0.5916,-0.5916,-0.5916,-0.5916,-0.5916,-0.5916,-0.5916,-0.5916,-0.5916,-0.5904,-0.5884,-0.5884,-0.5823,-0.5749,-0.5749,-0.5669,-0.5567,-0.5498,-0.5478,-0.5463,-0.5398,-0.5382,-0.5382,-0.5382,-0.5382,-0.5382,-0.5382,-0.5382,-0.5382,-0.5382,-0.5156,-0.4704,-0.3748,-0.2351,-0.1064,-0.0112,0.1009,0.1795,0.1795,0.1795,0.1795,0.1795,0.1795,0.1795,0.1795,0.1795,0.1795,0.1795,0.1795,0.1795,0.1795,0.1795,0.1795,0.1795,0.1795,0.1795,0.1795,0.1795,0.1795,0.1795,0.1795,0.1739,-0.8784,-0.8072,-0.7312,-0.6564,-0.5858,-0.5282,-0.4879,0.0,0.0,0.0,0.0,-0.4402,-0.4489,-0.4573,-0.4663,-0.4751,-0.4761,-0.4804,-0.4941,-0.5237,-0.5455,-0.5502,-0.5751,-0.5953,-0.5982,-0.6094,-0.6176,-0.6306,-0.6364,-0.6411,-0.6518,-0.652,-0.652,-0.652,-0.652,-0.652,-0.652,-0.6404,-0.6359,-0.6315,-0.6221,-0.6067,-0.5988,-0.594,-0.5957,-0.5916,-0.5916,-0.5916,-0.5916,-0.5916,-0.5916,-0.5916,-0.5916,-0.5916,-0.5916,-0.5916,-0.5916,-0.5916,-0.5916,-0.5916,-0.5916,-0.5916,-0.5884,-0.5843,-0.5843,-0.5808,-0.5681,-0.5606,-0.5569,-0.5559,-0.5514,-0.5471,-0.5439,-0.5439,-0.541,-0.5382,-0.5382,-0.5382,-0.5212,-0.4704,-0.4592,-0.4199,-0.2966,-0.1791,-0.0728,-0.0112,0.1009,0.1795,0.1795,0.1795,0.1795,0.1795,0.1795,0.1795,0.1795,0.1795,0.1795,0.1795,0.1795,0.1795,0.1795,0.1795,0.1795,0.1795,0.1795,0.1795,0.1795,0.1795,0.1795,0.1795,0.1795,0.1795,-0.8872,-0.816,-0.7625,-0.7533,-0.652,-0.5549,-0.5416,0.0,0.0,0.0,0.0,-0.4425,-0.4589,-0.4687,-0.4785,-0.49,-0.4983,-0.5051,-0.51,-0.5351,-0.5522,-0.551,-0.5751,-0.5947,-0.5962,-0.5982,-0.6051,-0.6266,-0.6288,-0.6335,-0.6494,-0.65,-0.6506,-0.652,-0.652,-0.652,-0.652,-0.652,-0.6415,-0.6337,-0.6323,-0.6239,-0.6031,-0.6015,-0.596,-0.5939,0.0,0.0,-0.5916,-0.5916,-0.5916,-0.5916,-0.5916,-0.5916,-0.5916,-0.5916,-0.5916,-0.5916,-0.5916,-0.5916,-0.5916,-0.5916,-0.5916,-0.5916,-0.5916,-0.5916,-0.5884,-0.5669,-0.5617,-0.5603,-0.5588,-0.5586,-0.5529,-0.5529,-0.5473,-0.542,-0.542,-0.541,-0.5118,-0.41,-0.3867,-0.3413,-0.2015,-0.0953,-0.0168,0.0224,0.1121,0.1795,0.1795,0.1795,0.1795,0.1795,0.1795,0.1795,0.1795,0.1795,0.1795,0.1795,0.1795,0.1795,0.1795,0.1795,0.1795,0.1795,0.1795,0.1795,0.1795,0.1795,0.1795,0.1795,0.1795,0.1795,-0.8828,-0.852,-0.8296,-0.7669,-0.6871,-0.6077,-0.5549,0.0,0.0,0.0,0.0,0.0,-0.4699,-0.4869,-0.5012,-0.5257,-0.5308,-0.5269,-0.5128,-0.5406,-0.5536,-0.5516,-0.5751,-0.5923,-0.5937,-0.5946,-0.6003,-0.6029,-0.6159,-0.6241,-0.6333,-0.6337,-0.6374,-0.6518,-0.652,-0.652,-0.652,-0.652,-0.6514,-0.6498,-0.6353,-0.6302,-0.6274,-0.6196,-0.6114,-0.597,0.0,-0.5926,-0.5916,-0.5916,-0.5916,-0.5916,-0.5916,-0.5916,-0.5916,-0.5916,-0.5916,-0.5916,-0.5916,-0.5916,-0.5916,-0.5916,-0.5916,-0.5916,-0.5916,-0.5916,-0.591,-0.5884,-0.5821,-0.5741,-0.5605,-0.5574,-0.5564,-0.5564,-0.5554,-0.5546,-0.5546,-0.5543,-0.5431,-0.5258,-0.5147,-0.4424,-0.2183,-0.1623,-0.084,0.1234,0.1683,0.1795,0.1795,0.1795,0.1795,0.1795,0.1795,0.1795,0.1795,0.1795,0.1795,0.1795,0.1795,0.1795,0.1795,0.1795,0.1795,0.1795,0.1795,0.1795,0.1795,0.1795,0.1795,0.1795,0.1795,0.1795,-0.8784,-0.8612,-0.8565,-0.8389,-0.7393,-0.6299,0.0,0.0,0.0,0.0,0.0,0.0,-0.4736,-0.491,-0.5092,-0.5463,-0.5522,-0.5529,-0.5543,-0.5688,-0.5776,-0.5733,-0.5841,-0.5916,-0.5916,-0.5955,-0.5938,-0.5986,-0.6027,-0.6151,-0.6237,-0.629,-0.6335,-0.6378,-0.6494,-0.652,-0.652,-0.652,-0.652,-0.652,-0.6411,-0.6366,-0.6315,-0.6274,-0.6204,-0.6119,0.0,-0.5966,-0.5926,-0.5937,-0.5916,-0.5916,-0.5916,-0.5916,-0.5916,-0.5916,-0.5916,-0.5916,-0.5916,-0.5916,-0.5916,-0.5916,-0.5916,-0.5916,-0.5916,-0.5916,-0.5916,-0.5916,-0.5886,-0.5845,-0.5802,-0.5755,-0.5718,-0.5718,-0.568,-0.5584,-0.5584,-0.5026,-0.4535,-0.4593,-0.3467,-0.2127,-0.1035,-0.0285,0.0511,0.1649,0.1806,0.1795,0.1795,0.1795,0.1795,0.1795,0.1795,0.1795,0.1795,0.1795,0.1795,0.1795,0.1795,0.1795,0.1795,0.1795,0.1795,0.1795,0.1795,0.1795,0.1795,0.1795,0.1795,0.1795,0.1795,0.1795,-0.874,-0.8612,-0.8633,-0.8718,0.0,0.0,0.0,0.0,0.0,0.0,0.0,0.0,-0.4891,-0.5102,-0.5286,-0.5508,-0.5607,-0.5697,-0.5898,-0.5916,-0.5916,-0.5916,-0.5916,-0.5916,-0.5916,-0.5916,-0.5947,-0.5954,-0.596,-0.6059,-0.6147,-0.6217,-0.6264,-0.6284,-0.6374,-0.6423,-0.6423,-0.651,-0.652,-0.652,-0.652,-0.6417,-0.6349,-0.6349,-0.6298,-0.6208,-0.6143,-0.6039,-0.6013,-0.5986,-0.5949,-0.5947,-0.5925,-0.5916,-0.5916,-0.5916,-0.5916,-0.5916,-0.5916,-0.5916,-0.5916,-0.5916,-0.5916,-0.5916,-0.5916,-0.5916,-0.5916,-0.5916,-0.5916,-0.5916,-0.5916,-0.5865,-0.5812,-0.5812,-0.5759,-0.5649,-0.5649,-0.4623,-0.3842,-0.4255,-0.218,-0.0353,-0.047,0.0524,0.1503,0.1793,0.1832,0.1817,0.1817,0.1817,0.1813,0.1806,0.1806,0.1803,0.1795,0.1795,0.1795,0.1795,0.1795,0.1795,0.1795,0.1795,0.1795,0.1795,0.1795,0.1795,0.1795,0.1795,0.1795,0.1795,0.1795,0.1795,-0.874,-0.8612,-0.8436,-0.7786,-0.7135,0.0,-0.7073,-0.602,0.0,-0.4975,0.0,0.0,-0.541,-0.5671,-0.5776,-0.5553,-0.5731,-0.5902,-0.5914,-0.5916,-0.5916,-0.5916,-0.5916,-0.5916,-0.5916,-0.5916,-0.5921,-0.5927,-0.5927,-0.5965,-0.5994,-0.6007,-0.6108,-0.6188,-0.628,-0.6327,-0.6327,-0.6413,-0.652,-0.652,-0.652,-0.6518,-0.6512,-0.6512,-0.6394,-0.6306,-0.63,-0.6249,-0.6163,-0.6017,-0.598,-0.5972,-0.5951,-0.5916,-0.5916,-0.5916,-0.5916,-0.5916,-0.5916,-0.5916,-0.5916,-0.5916,-0.5916,-0.5916,-0.5916,-0.5916,-0.5916,-0.5916,-0.5916,-0.5916,-0.5916,-0.5912,-0.5908,-0.5908,-0.5902,-0.5898,-0.5898,-0.4798,-0.4148,-0.541,-0.3444,-0.1588,-0.1764,-0.0646,0.0587,0.1706,0.1881,0.1879,0.1879,0.1879,0.1868,0.1782,0.178,0.1825,0.1797,0.1795,0.1795,0.1795,0.1795,0.1795,0.1795,0.1795,0.1795,0.1795,0.1795,0.1795,0.1795,0.1795,0.1795,0.1795,0.1795,0.1795,-0.8656,-0.8771,-0.8762,-0.8168,-0.7491,0.0,0.0,-0.5575,-0.5023,-0.5023,-0.509,0.0,0.0,-0.5769,-0.5884,-0.578,-0.5849,-0.5916,-0.5916,-0.5916,-0.5916,-0.5916,-0.5916,-0.5916,-0.5916,-0.5916,-0.5916,-0.5916,-0.5916,-0.5933,-0.5965,-0.596,-0.6005,-0.61,-0.6186,-0.6259,-0.6315,-0.6351,-0.6396,-0.652,-0.652,-0.652,-0.652,-0.652,-0.6502,-0.6398,-0.6341,-0.6296,-0.6257,-0.617,-0.6133,-0.6123,-0.6035,-0.5967,-0.5916,-0.5916,-0.5916,-0.5916,-0.5916,-0.5916,-0.5916,-0.5916,-0.5916,-0.5916,-0.5916,-0.5916,-0.5916,-0.5916,-0.5916,-0.5916,-0.5916,-0.5916,-0.5916,-0.5916,-0.5916,-0.5916,-0.5916,-0.4843,-0.4272,-0.562,-0.3039,-0.0908,-0.1816,-0.018,0.1375,0.1854,0.1898,0.1886,0.1886,0.1886,0.1881,0.187,0.1868,0.1864,0.1852,0.1851,0.1851,0.1851,0.1816,0.1795,0.1795,0.1795,0.1795,0.1795,0.1795,0.1795,0.1795,0.1795,0.1795,0.1795,0.1795,0.1795,-0.8612,-0.8643,-0.8538,-0.7938,0.0,0.0,-0.5703,-0.5234,-0.5048,-0.5084,-0.5292,-0.5429,-0.5526,0.0,-0.5888,-0.5802,-0.5861,-0.5916,-0.5916,-0.5916,-0.5916,-0.5916,-0.5916,-0.5916,-0.5916,-0.5916,-0.5916,-0.5916,-0.5916,-0.5916,-0.5916,-0.5916,-0.5948,-0.5948,-0.6094,-0.617,-0.6233,-0.629,-0.6349,-0.6411,-0.6508,-0.652,-0.652,-0.652,-0.652,-0.6518,-0.6388,-0.6359,-0.6353,-0.6261,-0.6206,-0.6176,-0.6117,-0.6039,-0.5959,-0.5959,-0.5943,-0.5916,-0.5916,-0.5916,-0.5916,-0.5916,-0.5916,-0.5916,-0.5916,-0.5916,-0.5916,-0.5916,-0.5916,-0.5916,-0.5916,-0.5916,-0.5916,-0.5916,-0.5916,-0.5916,-0.5916,-0.4863,-0.4307,-0.5669,-0.271,-0.0431,-0.1785,0.0183,0.1945,0.1945,0.1928,0.1915,0.1915,0.1915,0.1911,0.1901,0.1892,0.1886,0.1886,0.1886,0.1886,0.1886,0.1847,0.1819,0.181,0.18,0.1795,0.1795,0.1795,0.1795,0.1795,0.1795,0.1795,0.1795,0.1795,0.1795,-0.8616,-0.8238,-0.7644,-0.6891,0.0,0.0,-0.5352,-0.5106,-0.5105,-0.5326,-0.5667,-0.5833,-0.5559,-0.5733,-0.5829,-0.5555,-0.5739,-0.5916,-0.5916,-0.5916,-0.5916,-0.5916,-0.5916,-0.5916,-0.5916,-0.5916,-0.5916,-0.5916,-0.5916,-0.5916,-0.5916,-0.5916,-0.5916,-0.5916,-0.5942,-0.599,-0.599,-0.6227,-0.6315,-0.6319,-0.6411,-0.652,-0.652,-0.652,-0.652,-0.652,-0.652,-0.652,-0.6514,-0.6355,-0.6264,-0.6182,-0.6182,-0.6129,-0.5992,-0.5992,-0.5936,-0.5919,-0.5919,-0.5919,-0.5919,-0.5919,-0.5919,-0.5919,-0.5916,-0.5916,-0.5916,-0.5916,-0.5916,-0.5916,-0.5916,-0.5916,-0.5916,-0.5916,-0.5916,-0.5916,-0.5916,-0.4863,-0.4307,-0.5669,-0.271,-0.0431,-0.1785,0.0185,0.1977,0.1977,0.1977,0.1977,0.1977,0.1977,0.1965,0.1934,0.1904,0.1887,0.1887,0.1887,0.1887,0.1887,0.1887,0.1872,0.1784,0.1812,0.1795,0.1795,0.1795,0.1795,0.1795,0.1795,0.1795,0.1795,0.1795,0.1795,-0.8942,-0.875,-0.8313,-0.7445,-0.6884,-0.6273,0.0,-0.5298,0.0,0.0,-0.5667,-0.5853,-0.5582,-0.5776,-0.589,-0.5808,-0.5863,-0.5916,-0.5916,-0.5916,-0.5916,-0.5916,-0.5916,-0.5916,-0.5916,-0.5916,-0.5916,-0.5916,-0.5916,-0.5916,-0.5916,-0.5916,-0.5916,-0.5916,-0.5943,-0.5926,-0.599,-0.6041,-0.613,-0.6317,-0.6343,-0.6392,-0.652,-0.652,-0.652,-0.652,-0.652,-0.652,-0.6518,-0.6425,-0.6359,-0.6276,-0.6276,-0.6221,-0.6143,-0.6143,-0.6125,-0.6102,-0.6102,-0.6102,-0.6092,-0.597,-0.595,-0.5938,-0.5937,-0.5916,-0.5916,-0.5916,-0.5916,-0.5916,-0.5916,-0.5916,-0.5916,-0.5916,-0.5916,-0.5916,-0.5916,-0.5607,-0.5421,-0.5794,-0.4186,-0.2584,-0.2093,-0.0554,0.0925,0.1853,0.1977,0.1977,0.1977,0.1977,0.1973,0.1964,0.1955,0.1949,0.1949,0.1949,0.1949,0.1949,0.193,0.1904,0.1874,0.1864,0.1859,0.1859,0.1838,0.1827,0.1827,0.1806,0.1795,0.1795,0.1795,0.1795,-0.8672,-0.8418,-0.8065,-0.7222,-0.659,-0.6072,-0.5514,0.0,0.0,0.0,-0.569,-0.5884,-0.5714,-0.5843,-0.5916,-0.5916,-0.5916,-0.5916,-0.5916,-0.5916,-0.5916,-0.5916,-0.5916,-0.5916,-0.5916,-0.5916,-0.5916,-0.5916,-0.5916,-0.5916,-0.5916,-0.5916,-0.5916,-0.5916,-0.5916,-0.5943,-0.5936,-0.5972,-0.6043,-0.6212,-0.6282,-0.6345,-0.64,-0.6504,-0.652,-0.652,-0.652,-0.652,-0.652,-0.652,-0.6421,-0.6372,-0.6372,-0.6315,-0.6235,-0.6235,-0.6212,-0.618,-0.618,-0.618,-0.6172,-0.6121,-0.6104,-0.6094,-0.6039,-0.6021,-0.6021,-0.6021,-0.5996,-0.591,-0.591,-0.5945,-0.5916,-0.5916,-0.5916,-0.5916,-0.5916,-0.5916,-0.5916,-0.5916,-0.4802,-0.3629,-0.2892,-0.1231,0.0247,0.1111,0.1667,0.1977,0.1977,0.1977,0.2038,0.216,0.2222,0.2222,0.2407,0.2407,0.2407,0.2407,0.2264,0.2122,0.2162,0.1958,0.1886,0.1886,0.1868,0.1858,0.1858,0.1827,0.187,0.1983,0.197,0.202,-0.8045,-0.7643,-0.7246,-0.6534,-0.5969,-0.56,-0.5609,-0.5604,-0.5537,-0.5502,-0.572,-0.5912,-0.5896,-0.5906,-0.5916,-0.5916,-0.5916,-0.5916,-0.5916,-0.5916,-0.5916,-0.5916,-0.5916,-0.5916,-0.5916,-0.5916,-0.5916,-0.5916,-0.5916,-0.5916,-0.5916,-0.5916,-0.5916,-0.5916,-0.5916,-0.5916,-0.5916,-0.5938,-0.5982,-0.5992,-0.6225,-0.6308,-0.6321,-0.6413,-0.652,-0.652,-0.652,-0.652,-0.652,-0.652,-0.652,-0.652,-0.652,-0.6402,-0.6329,-0.6329,-0.6278,-0.6206,-0.6206,-0.6206,-0.6204,-0.6194,-0.6192,-0.619,-0.6182,-0.618,-0.618,-0.618,-0.6125,-0.6001,-0.5992,-0.593,-0.5927,-0.5919,-0.5916,-0.5916,-0.5916,-0.5916,-0.5916,-0.5916,-0.4926,-0.406,-0.3937,-0.1908,-0.0246,-0.0062,0.1111,0.2038,0.2038,0.2038,0.2161,0.2529,0.2529,0.2652,0.2961,0.3023,0.3023,0.3023,0.2714,0.2529,0.2529,0.2162,0.1894,0.1894,0.1892,0.189,0.1948,0.1859,0.2017,0.2363,0.2267,0.2418,-0.8212,-0.7436,-0.6653,-0.6672,-0.6237,-0.5769,-0.5841,-0.5843,-0.5749,-0.5467,-0.568,-0.5874,-0.5669,-0.5821,-0.5916,-0.5916,-0.5916,-0.5916,-0.5916,-0.5916,-0.5916,-0.5916,-0.5916,-0.5916,-0.5916,-0.5916,-0.5916,-0.5916,-0.5916,-0.5916,-0.5916,-0.5916,-0.5916,-0.5916,-0.5916,-0.5916,-0.5916,-0.5937,-0.592,-0.5992,-0.6159,-0.6247,-0.6321,-0.6413,-0.652,-0.652,-0.652,-0.652,-0.652,-0.652,-0.652,-0.652,-0.652,-0.651,-0.6425,-0.6425,-0.6479,-0.6461,-0.6461,-0.6461,-0.645,-0.631,-0.6288,-0.6274,-0.6202,-0.618,-0.618,-0.618,-0.6168,-0.6139,-0.6007,-0.5976,-0.5944,-0.5935,-0.5916,-0.5916,-0.5916,-0.5916,-0.5916,-0.5916,-0.5669,-0.5112,-0.406,-0.3445,-0.2338,-0.0308,0.1111,0.2099,0.2345,0.2406,0.253,0.2837,0.29,0.29,0.3023,0.3023,0.3023,0.3023,0.2961,0.29,0.29,0.2331,0.1957,0.1957,0.1934,0.204,0.2278,0.2303,0.2462,0.2751,0.2706,0.2685,-0.7851,-0.7325,-0.6837,-0.6346,-0.6064,-0.5859,-0.5906,-0.5669,-0.5373,-0.52,-0.5544,-0.5888,-0.5792,-0.5547,-0.5421,-0.5421,-0.5421,-0.5421,-0.5421,-0.5669,-0.5916,-0.5916,-0.5916,-0.5916,-0.5916,-0.5916,-0.5916,-0.5916,-0.5916,-0.5916,-0.5916,-0.5916,-0.5916,-0.5916,-0.5916,-0.5916,-0.5916,-0.5916,-0.5941,-0.5928,-0.6078,-0.6188,-0.6321,-0.6413,-0.652,-0.652,-0.652,-0.652,-0.652,-0.652,-0.652,-0.652,-0.652,-0.652,-0.652,-0.652,-0.652,-0.652,-0.652,-0.652,-0.6514,-0.6398,-0.6382,-0.6374,-0.6325,-0.6376,-0.6376,-0.6376,-0.628,-0.6235,-0.6192,-0.6147,-0.6092,-0.594,-0.5949,-0.5916,-0.5916,-0.5916,-0.5916,-0.5916,-0.5916,-0.5669,-0.4988,-0.4063,-0.2647,-0.0123,0.111,0.1975,0.2652,0.2714,0.2838,0.3208,0.3209,0.3271,0.3394,0.3455,0.3455,0.3455,0.3332,0.3209,0.3209,0.2777,0.2469,0.2469,0.245,0.25,0.2681,0.2641,0.28,0.3154,0.3045,0.3125,-0.7427,-0.7223,-0.701,-0.5905,-0.5722,-0.5916,-0.5916,-0.5483,-0.5049,-0.4926,-0.5237,-0.5548,-0.5548,-0.5112,-0.4742,-0.4742,-0.4742,-0.4742,-0.4742,-0.5298,-0.573,-0.573,-0.5855,-0.5916,-0.5916,-0.5916,-0.5916,-0.5916,-0.5916,-0.5916,-0.5916,-0.5916,-0.5916,-0.5916,-0.5916,-0.5916,-0.5916,-0.5916,-0.5916,-0.5919,-0.5948,-0.6081,-0.6319,-0.6396,-0.6506,-0.652,-0.652,-0.652,-0.652,-0.652,-0.652,-0.652,-0.652,-0.652,-0.652,-0.652,-0.652,-0.652,-0.652,-0.652,-0.652,-0.652,-0.652,-0.652,-0.652,-0.652,-0.652,-0.652,-0.6398,-0.6337,-0.6321,-0.6259,-0.6182,-0.6033,-0.6019,-0.5953,-0.5923,-0.5916,-0.5916,-0.5916,-0.5916,-0.5916,-0.5916,-0.4312,-0.234,-0.037,0.0801,0.1849,0.2714,0.2961,0.3208,0.3517,0.358,0.3642,0.3889,0.3889,0.3889,0.3889,0.3703,0.358,0.358,0.3332,0.3146,0.3146,0.3023,0.3023,0.3085,0.3045,0.3147,0.351,0.3454,0.3522,-0.7672,-0.7118,-0.6391,-0.5766,-0.5722,-0.5916,-0.5916,-0.5855,-0.5607,-0.5049,-0.4496,-0.419,-0.419,-0.4067,-0.4006,-0.4006,-0.4006,-0.4006,-0.4006,-0.4619,-0.5049,-0.5049,-0.5546,-0.5916,-0.5916,-0.5916,-0.5916,-0.5916,-0.5916,-0.5916,-0.5916,-0.5916,-0.5916,-0.5916,-0.5916,-0.5916,-0.5916,-0.5916,-0.5916,-0.5919,-0.5948,-0.6081,-0.6317,-0.6329,-0.638,-0.652,-0.652,-0.652,-0.652,-0.652,-0.652,-0.652,-0.652,-0.652,-0.652,-0.652,-0.652,-0.652,-0.652,-0.652,-0.652,-0.652,-0.652,-0.652,-0.652,-0.652,-0.652,-0.652,-0.6512,-0.6417,-0.6337,-0.6306,-0.6276,-0.6184,-0.6153,-0.6104,-0.5949,-0.5916,-0.5916,-0.5916,-0.5916,-0.5916,-0.5916,-0.4312,-0.2894,-0.2586,-0.0246,0.1665,0.2097,0.29,0.3517,0.3826,0.3826,0.3889,0.3889,0.3889,0.3889,0.3889,0.3889,0.3826,0.3826,0.3826,0.3765,0.3765,0.3271,0.3146,0.3455,0.3448,0.3569,0.3815,0.3816,0.3843,-0.7283,-0.681,-0.623,-0.5646,-0.541,-0.5358,-0.5358,-0.4807,-0.4192,-0.3883,-0.333,-0.3085,-0.376,-0.3637,-0.3391,-0.3391,-0.3391,-0.3391,-0.3391,-0.3944,-0.4496,-0.4863,-0.5174,-0.5483,-0.5855,-0.5916,-0.5916,-0.5916,-0.5916,-0.5916,-0.5916,-0.5916,-0.5916,-0.5916,-0.5916,-0.5916,-0.5916,-0.5916,-0.5916,-0.5919,-0.5948,-0.6031,-0.6108,-0.6272,-0.6368,-0.652,-0.652,-0.652,-0.652,-0.652,-0.652,-0.652,-0.652,-0.652,-0.652,-0.652,-0.652,-0.652,-0.652,-0.652,-0.652,-0.652,-0.652,-0.652,-0.652,-0.652,-0.652,-0.652,-0.652,-0.6512,-0.6404,-0.6394,-0.637,-0.628,-0.6257,-0.6221,-0.6092,-0.6027,-0.5916,-0.5927,-0.5607,-0.5358,-0.5358,-0.4067,-0.2835,-0.2218,-0.0246,0.148,0.2158,0.3146,0.3765,0.3889,0.3889,0.3889,0.3889,0.3889,0.3889,0.3889,0.3889,0.3889,0.3889,0.3889,0.3889,0.3889,0.3642,0.358,0.3703,0.3703,0.3765,0.3888,0.3924,0.3892,-0.6869,-0.6422,-0.6044,-0.5349,-0.4955,-0.4796,-0.4668,-0.3883,-0.3207,-0.3023,-0.2592,-0.2469,-0.3268,-0.3022,-0.2716,-0.2716,-0.2716,-0.2716,-0.2716,-0.3268,-0.3883,-0.4373,-0.4558,-0.4928,-0.5607,-0.5669,-0.573,-0.5916,-0.5916,-0.5916,-0.5916,-0.5916,-0.5916,-0.5916,-0.5916,-0.5916,-0.5916,-0.5916,-0.5916,-0.5919,-0.5924,-0.5968,-0.5994,-0.6126,-0.631,-0.6421,-0.651,-0.652,-0.652,-0.652,-0.652,-0.652,-0.652,-0.652,-0.652,-0.652,-0.652,-0.652,-0.652,-0.652,-0.652,-0.652,-0.652,-0.652,-0.652,-0.652,-0.652,-0.652,-0.652,-0.6453,-0.6252,-0.6252,-0.6168,-0.5837,-0.5822,-0.5794,-0.5882,-0.5859,-0.5718,-0.5468,-0.5003,-0.4619,-0.4619,-0.376,-0.2775,-0.1973,-0.0247,0.1295,0.2035,0.3146,0.3889,0.3889,0.3889,0.3889,0.3889,0.3889,0.3889,0.3889,0.3889,0.3889,0.3889,0.3889,0.3889,0.3889,0.3889,0.3889,0.3889,0.3889,0.3889,0.3889,0.3889,0.3927,-0.6566,-0.615,-0.5591,-0.4664,-0.4488,-0.4433,-0.4027,-0.3883,-0.3698,-0.3146,-0.2961,-0.2776,-0.2223,-0.2099,-0.2038,-0.2038,-0.2038,-0.2038,-0.2038,-0.2654,-0.3085,-0.3085,-0.3575,-0.4189,-0.4865,-0.4926,-0.5235,-0.5855,-0.5916,-0.5916,-0.5916,-0.5916,-0.5916,-0.5916,-0.5916,-0.5916,-0.5916,-0.5916,-0.5916,-0.5916,-0.5923,-0.5908,-0.599,-0.6001,-0.6097,-0.6329,-0.6417,-0.652,-0.652,-0.652,-0.652,-0.652,-0.652,-0.652,-0.652,-0.652,-0.652,-0.652,-0.652,-0.652,-0.652,-0.652,-0.652,-0.652,-0.652,-0.652,-0.652,-0.652,-0.652,-0.6319,-0.5649,-0.5448,-0.531,-0.4565,-0.443,-0.453,-0.5054,-0.5157,-0.4913,-0.4219,-0.4046,-0.3943,-0.3943,-0.3453,-0.2961,-0.29,-0.0678,0.1048,0.1048,0.2714,0.3889,0.3889,0.3889,0.3889,0.3889,0.3889,0.3889,0.3889,0.3889,0.3889,0.3889,0.3889,0.3889,0.3889,0.3889,0.3889,0.3889,0.3889,0.3889,0.3889,0.3889,0.3888,-0.6282,-0.5935,-0.5422,-0.4364,-0.395,-0.3684,-0.325,-0.2826,-0.2477,-0.2301,-0.2298,-0.2285,-0.2038,-0.1977,-0.1977,-0.1977,-0.1977,-0.1977,-0.1977,-0.2223,-0.2531,-0.2961,-0.3207,-0.376,-0.4803,-0.4925,-0.5174,-0.5855,-0.5916,-0.5916,-0.5916,-0.5916,-0.5916,-0.5916,-0.5916,-0.5916,-0.5916,-0.5916,-0.5916,-0.5916,-0.5916,-0.5684,-0.528,-0.5395,-0.5197,-0.4873,-0.5057,-0.5337,-0.5783,-0.5309,-0.5108,-0.5108,-0.558,-0.5783,-0.585,-0.6319,-0.652,-0.6453,-0.5984,-0.5783,-0.5714,-0.5242,-0.5377,-0.5783,-0.5783,-0.5783,-0.5783,-0.5783,-0.5444,-0.5041,-0.4772,-0.4705,-0.4638,-0.4368,-0.43,-0.4222,-0.3915,-0.4161,-0.4348,-0.4029,-0.3603,-0.3317,-0.3317,-0.2795,-0.2346,-0.2346,-0.0987,0.0247,0.0924,0.2158,0.3209,0.3826,0.3889,0.3889,0.3889,0.3889,0.3889,0.3889,0.3889,0.3889,0.3889,0.3889,0.3889,0.3889,0.3889,0.3889,0.3889,0.3889,0.3889,0.3889,0.3889,0.3889,-0.6103,-0.5651,-0.5144,-0.4065,-0.3612,-0.3308,-0.2755,-0.2329,-0.2012,-0.184,-0.1913,-0.1977,-0.1977,-0.1977,-0.1977,-0.1977,-0.1977,-0.1977,-0.1977,-0.1977,-0.2161,-0.2592,-0.2654,-0.3085,-0.4127,-0.4435,-0.4865,-0.5483,-0.5794,-0.5916,-0.5916,-0.5916,-0.5916,-0.5916,-0.5916,-0.5916,-0.5916,-0.5669,-0.5546,-0.5546,-0.536,-0.4989,-0.4559,-0.4669,-0.4453,-0.4103,-0.3928,-0.4333,-0.5012,-0.4495,-0.43,-0.4368,-0.4841,-0.5042,-0.5109,-0.5579,-0.578,-0.5713,-0.5176,-0.5042,-0.4975,-0.4435,-0.4638,-0.5042,-0.5042,-0.5042,-0.5042,-0.5042,-0.4705,-0.4234,-0.3966,-0.3764,-0.3564,-0.3564,-0.3564,-0.343,-0.296,-0.3302,-0.3635,-0.3442,-0.3017,-0.2666,-0.2652,-0.2316,-0.1988,-0.1978,-0.1172,-0.0123,0.0863,0.1849,0.2838,0.3826,0.3889,0.3889,0.3889,0.3889,0.3889,0.3889,0.3889,0.3889,0.3889,0.3889,0.3889,0.3889,0.3889,0.3889,0.3889,0.3889,0.3889,0.3889,0.3889,0.3889,0.0,0.0,0.0,-0.386,-0.361,-0.3396,-0.2613,-0.254,-0.2461,-0.1954,-0.1911,-0.2035,-0.1976,-0.1977,-0.1977,-0.1977,-0.1977,-0.1977,-0.1977,-0.1977,-0.1977,-0.2038,-0.2038,-0.2285,-0.2961,-0.3576,-0.4189,-0.4863,-0.5544,-0.5916,-0.5855,-0.5855,-0.5855,-0.5855,-0.5855,-0.5855,-0.5855,-0.5174,-0.4863,-0.4863,-0.4189,-0.3883,-0.3881,-0.3881,-0.3915,-0.397,-0.328,-0.3463,-0.4215,-0.4207,-0.4231,-0.4234,-0.4233,-0.43,-0.43,-0.43,-0.43,-0.43,-0.43,-0.43,-0.4233,-0.4234,-0.4233,-0.43,-0.43,-0.43,-0.43,-0.43,-0.4233,-0.41,-0.3362,-0.2691,-0.2222,-0.2222,-0.2222,-0.2222,-0.2222,-0.2729,-0.2965,-0.2242,-0.2086,-0.2056,-0.2026,-0.202,-0.2009,-0.1981,-0.1172,-0.0185,0.0863,0.1849,0.2837,0.3826,0.3889,0.3889,0.3889,0.3889,0.3889,0.3889,0.3889,0.3889,0.3889,0.3889,0.3889,0.3889,0.3889,0.3889,0.3889,0.3889,0.3889,0.3889,0.3889,0.3889,-0.6429,0.0,0.0,0.0,0.0,0.0,-0.3104,-0.2918,-0.2835,-0.2547,-0.2497,-0.2371,-0.2025,-0.1977,-0.1977,-0.1977,-0.1977,-0.1977,-0.1977,-0.1977,-0.2161,-0.2654,-0.2716,-0.3145,-0.425,-0.4496,-0.4926,0.0,-0.5794,-0.5669,-0.5174,-0.5174,-0.4928,-0.4498,-0.4928,-0.4928,-0.4436,-0.425,-0.4189,-0.4189,-0.4004,-0.3698,-0.3268,-0.3268,-0.303,-0.2548,-0.2387,-0.2408,-0.2623,-0.269,-0.2733,-0.2826,-0.3295,-0.3496,-0.3564,-0.41,-0.43,-0.4234,-0.3698,-0.3496,-0.343,-0.296,-0.3094,-0.3496,-0.3496,-0.3496,-0.3496,-0.3496,-0.3162,-0.2759,-0.2558,-0.2357,-0.2222,-0.2222,-0.2222,-0.2222,-0.2222,-0.2349,-0.2409,-0.2209,-0.2118,-0.2094,-0.2086,-0.2048,-0.2016,-0.2008,-0.174,-0.0987,0.0802,0.1233,0.2035,0.3703,0.3889,0.3889,0.3889,0.3889,0.3889,0.3889,0.3889,0.3889,0.3889,0.3889,0.3889,0.3889,0.3889,0.3889,0.3889,0.3889,0.3889,0.3889,0.3889,0.3889,0.0,0.0,0.0,0.0,0.0,0.0,-0.3805,-0.3446,-0.3191,-0.3062,-0.2784,-0.2489,-0.2377,-0.2065,-0.1875,-0.1913,-0.1919,-0.1933,-0.1971,-0.1977,-0.2223,-0.29,-0.3023,-0.3391,-0.4373,-0.4742,-0.5049,-0.5483,-0.5732,-0.5607,-0.4926,-0.4619,-0.4312,-0.3883,-0.425,-0.4312,-0.3883,-0.3637,-0.3513,-0.3513,-0.3268,-0.29,-0.2592,-0.2592,-0.2346,-0.1977,-0.1994,-0.2007,-0.2021,-0.2056,-0.2097,-0.2204,-0.2618,-0.2759,-0.2826,-0.3295,-0.343,-0.3362,-0.296,-0.2759,-0.2692,-0.2357,-0.249,-0.2759,-0.2759,-0.2759,-0.2759,-0.2759,-0.249,-0.2222,-0.2222,-0.2222,-0.2222,-0.2222,-0.2222,-0.2222,-0.2222,-0.2222,-0.2222,-0.2222,-0.214,-0.2124,-0.2111,-0.208,-0.2048,-0.2022,-0.2005,-0.1429,0.0185,0.074,0.1603,0.3146,0.3642,0.3889,0.3889,0.3889,0.3889,0.3889,0.3889,0.3889,0.3889,0.3889,0.3889,0.3889,0.3889,0.3889,0.3889,0.3889,0.3889,0.3889,0.3889,0.3889,0.0,0.0,0.0,0.0,0.0,0.0,-0.4565,-0.4132,-0.3718,-0.35,-0.2963,-0.2628,-0.2823,-0.2252,-0.1785,-0.1868,-0.1891,-0.193,-0.2086,-0.2099,-0.2407,-0.3146,-0.3207,-0.3453,-0.4067,-0.4681,-0.4988,-0.4988,-0.5483,-0.5483,-0.4803,-0.425,-0.3821,-0.3698,-0.376,-0.376,-0.3698,-0.3145,-0.29,-0.29,-0.2285,-0.1977,-0.1977,-0.1977,-0.1977,-0.1977,-0.1977,-0.1991,-0.2014,-0.2017,-0.2054,-0.2112,-0.2139,-0.2218,-0.2222,-0.2222,-0.2222,-0.2222,-0.2222,-0.2222,-0.2222,-0.2222,-0.2222,-0.2222,-0.2222,-0.2222,-0.2222,-0.2222,-0.2222,-0.2222,-0.2222,-0.2222,-0.2222,-0.2222,-0.2222,-0.2222,-0.2222,-0.2222,-0.2222,-0.2222,-0.2222,-0.2213,-0.2119,-0.2111,-0.2091,-0.2037,-0.2022,-0.1632,-0.0619,0.037,0.1356,0.2405,0.3332,0.3889,0.3889,0.3889,0.3889,0.3889,0.3889,0.3889,0.3889,0.3889,0.3889,0.3889,0.3889,0.3889,0.3889,0.3889,0.3889,0.3889,0.3889,0.3889,0.0,0.0,0.0,0.0,0.0,0.0,-0.5218,-0.4919,-0.4613,-0.4029,-0.3664,-0.3345,-0.3103,-0.2626,-0.2245,-0.2268,-0.2464,-0.263,-0.2758,-0.2776,-0.3207,-0.4373,-0.4558,-0.4803,-0.5423,-0.5607,-0.573,-0.573,-0.5297,-0.4803,-0.4127,-0.3943,-0.3453,-0.2407,-0.29,-0.29,-0.2346,-0.2285,-0.2223,-0.2223,-0.2038,-0.1977,-0.1977,-0.1977,-0.1977,-0.1977,-0.1977,-0.1979,-0.1986,-0.2009,-0.2054,-0.211,-0.2116,-0.2133,-0.2222,-0.2222,-0.2222,-0.2222,-0.2222,-0.2222,-0.2222,-0.2222,-0.2222,-0.2222,-0.2222,-0.2222,-0.2222,-0.2222,-0.2222,-0.2222,-0.2222,-0.2222,-0.2222,-0.2222,-0.2222,-0.2222,-0.2222,-0.2222,-0.2222,-0.2222,-0.2222,-0.222,-0.2214,-0.2125,-0.2105,-0.2093,-0.205,-0.1638,-0.0628,0.0373,0.1356,0.2405,0.3332,0.3889,0.3889,0.3889,0.3889,0.3889,0.3889,0.3889,0.3889,0.3889,0.3889,0.3889,0.3889,0.3889,0.3889,0.3889,0.3889,0.3889,0.3889,0.3889,0.0,0.0,0.0,-0.7138,0.0,0.0,0.0,-0.5703,-0.5405,-0.5179,-0.452,-0.3949,-0.393,-0.3203,-0.2597,-0.2696,-0.2826,-0.3037,-0.3482,-0.3474,-0.3821,-0.4802,-0.4925,-0.5174,-0.5855,-0.5916,-0.5916,-0.5916,-0.5297,-0.474,-0.4435,-0.3821,-0.3145,-0.2531,-0.2531,-0.2346,-0.1977,-0.1977,-0.1977,-0.1977,-0.1977,-0.1977,-0.1977,-0.1977,-0.1977,-0.1977,-0.1977,-0.1977,-0.1977,-0.1992,-0.2024,-0.2067,-0.2097,-0.2119,-0.2133,-0.2216,-0.2222,-0.2222,-0.2222,-0.2222,-0.2222,-0.2222,-0.2222,-0.2222,-0.2222,-0.2222,-0.2222,-0.2222,-0.2222,-0.2222,-0.2222,-0.2222,-0.2222,-0.2222,-0.2222,-0.2222,-0.2222,-0.2222,-0.2222,-0.2222,-0.2222,-0.2222,-0.2222,-0.2142,-0.2127,-0.2112,-0.207,-0.1845,-0.1326,0.0062,0.1171,0.1726,0.3023,0.3889,0.3889,0.3889,0.3889,0.3889,0.3889,0.3889,0.3889,0.3889,0.3889,0.3889,0.3889,0.3889,0.3889,0.3889,0.3889,0.3889,0.3889,0.3889,0.0,0.0,0.0,0.0,0.0,-0.6751,0.0,0.0,0.0,-0.6163,-0.5332,-0.4628,-0.4956,-0.4018,-0.3222,-0.3396,-0.3474,-0.3764,-0.4352,-0.4475,-0.4616,-0.4917,-0.4917,-0.5176,-0.5772,-0.5886,-0.5916,-0.5916,-0.5421,-0.5049,-0.4925,-0.3944,-0.3268,-0.3023,-0.2469,-0.2161,-0.1977,-0.1977,-0.1977,-0.1977,-0.1977,-0.1977,-0.1977,-0.1977,-0.1977,-0.1977,-0.1977,-0.1977,-0.1977,-0.1977,-0.199,-0.2016,-0.207,-0.2095,-0.2104,-0.2135,-0.2213,-0.2213,-0.222,-0.2222,-0.2222,-0.2222,-0.2222,-0.2222,-0.2222,-0.2222,-0.2222,-0.2222,-0.2222,-0.2222,-0.2222,-0.2222,-0.2222,-0.2222,-0.2222,-0.2222,-0.2222,-0.2222,-0.2222,-0.2222,-0.2222,-0.2222,-0.2222,-0.2222,-0.2213,-0.2122,-0.2092,-0.2062,-0.2031,-0.025,0.099,0.0986,0.2714,0.3889,0.3889,0.3889,0.3889,0.3889,0.3889,0.3889,0.3889,0.3889,0.3889,0.3889,0.3889,0.3889,0.3889,0.3889,0.3889,0.3889,0.3889,0.3889,0.0,0.0,0.0,0.0,-0.7714,0.0,0.0,0.0,-0.6441,-0.5944,0.0,-0.5716,-0.5774,0.0,0.0,-0.4937,-0.527,-0.5531,-0.5618,-0.6285,-0.6378,-0.5198,-0.509,-0.5182,-0.5531,-0.5774,-0.5916,-0.5916,-0.5855,-0.5544,-0.4926,-0.474,-0.419,-0.3023,-0.29,-0.2592,-0.1977,-0.1977,-0.1977,-0.1977,-0.1977,-0.1977,-0.1977,-0.1977,-0.1977,-0.1977,-0.1977,-0.1977,-0.1977,-0.1977,-0.1978,-0.1984,-0.2016,-0.2046,-0.2073,-0.2104,-0.2114,-0.2119,-0.2212,-0.2222,-0.2222,-0.2222,-0.2222,-0.2222,-0.2222,-0.2222,-0.2222,-0.2222,-0.2222,-0.2222,-0.2222,-0.2222,-0.2222,-0.2222,-0.2222,-0.2222,-0.2222,-0.2222,-0.2222,-0.2222,-0.2222,-0.2222,-0.2222,-0.2222,-0.2221,-0.2217,-0.2123,-0.2093,-0.2063,-0.0317,0.0939,0.0987,0.2714,0.3889,0.3889,0.3889,0.3889,0.3889,0.3889,0.3889,0.3889,0.3889,0.3889,0.3889,0.3889,0.3889,0.3889,0.3889,0.3889,0.3889,0.3889,0.3889,0.0,0.0,0.0,0.0,0.0,0.0,-0.7247,0.0,-0.7082,0.0,0.0,0.0,0.0,0.0,0.0,0.0,-0.5932,-0.6054,-0.6128,-0.6464,-0.662,-0.6327,-0.6323,-0.6293,-0.6166,-0.5698,-0.5512,-0.5667,-0.568,-0.556,-0.5263,-0.5036,-0.4681,-0.4127,-0.3391,-0.2838,-0.2592,-0.2223,-0.1977,-0.1977,-0.1977,-0.1977,-0.1977,-0.1977,-0.1977,-0.1977,-0.1977,-0.1977,-0.1977,-0.1977,-0.1977,-0.1977,-0.199,-0.2011,-0.2041,-0.2071,-0.2083,-0.2085,-0.2163,-0.2168,-0.2168,-0.2168,-0.2114,-0.2129,-0.2129,-0.2141,-0.2222,-0.2222,-0.2222,-0.2222,-0.2222,-0.2222,-0.2222,-0.2222,-0.2222,-0.2222,-0.2222,-0.2222,-0.2222,-0.2222,-0.2222,-0.2222,-0.2222,-0.2222,-0.2222,-0.2222,-0.2129,-0.2098,-0.2132,-0.0827,0.0314,0.0926,0.2281,0.3332,0.3828,0.3889,0.3889,0.3889,0.3889,0.3889,0.3889,0.3889,0.3889,0.3889,0.3889,0.3889,0.3889,0.3889,0.3889,0.3889,0.3889,0.3889,-1.1865,0.0,0.0,0.0,0.0,0.0,0.0,0.0,0.0,0.0,0.0,0.0,0.0,0.0,0.0,0.0,0.0,-0.6671,-0.682,-0.6877,-0.6924,-0.6983,-0.7049,-0.6959,-0.6686,-0.6036,-0.567,-0.5717,-0.5676,-0.5654,-0.5504,-0.5219,-0.5043,-0.4923,-0.3821,-0.3145,-0.3023,-0.2346,-0.1977,-0.1977,-0.1977,-0.1977,-0.1977,-0.1977,-0.1977,-0.1977,-0.1977,-0.1977,-0.1977,-0.1977,-0.1977,-0.1977,-0.1977,-0.1989,-0.201,-0.204,-0.2051,-0.2052,-0.2126,-0.2128,-0.2128,-0.2128,-0.2079,-0.2097,-0.2097,-0.2112,-0.2197,-0.2197,-0.2197,-0.2197,-0.2197,-0.2202,-0.2142,-0.2142,-0.2216,-0.2222,-0.2222,-0.2222,-0.2222,-0.2222,-0.2222,-0.2222,-0.2222,-0.2222,-0.2222,-0.2222,-0.2136,-0.2108,-0.2133,-0.115,-0.0126,0.0865,0.1911,0.29,0.3826,0.3889,0.3889,0.3889,0.3889,0.3889,0.3889,0.3889,0.3889,0.3889,0.3889,0.3889,0.3889,0.3889,0.3889,0.3889,0.3889,0.3889,0.0,0.0,0.0,-1.3597,0.0,0.0,0.0,0.0,-0.8063,0.0,0.0,0.0,0.0,0.0,0.0,0.0,0.0,0.0,0.0,-0.8102,-0.7767,-0.6583,0.0,0.0,0.0,-0.7004,-0.6851,-0.6227,-0.6174,-0.5988,-0.5551,-0.5516,-0.5288,-0.4918,-0.425,-0.3575,-0.3023,-0.2346,-0.1977,-0.1977,-0.1977,-0.1977,-0.1977,-0.1977,-0.1977,-0.1977,-0.1977,-0.1977,-0.1977,-0.1977,-0.1977,-0.1977,-0.1977,-0.1977,-0.1981,-0.2009,-0.202,-0.2024,-0.2054,-0.2128,-0.2128,-0.2128,-0.2129,-0.213,-0.213,-0.2131,-0.2131,-0.2131,-0.2131,-0.2131,-0.2131,-0.2089,-0.211,-0.211,-0.2133,-0.2222,-0.2222,-0.2222,-0.2222,-0.2222,-0.2222,-0.2222,-0.2222,-0.2222,-0.2222,-0.2222,-0.2221,-0.2198,-0.2136,-0.1225,-0.0191,0.0866,0.1911,0.29,0.3826,0.3889,0.3889,0.3889,0.3889,0.3889,0.3889,0.3889,0.3889,0.3889,0.3889,0.3889,0.3889,0.3889,0.3889,0.3889,0.3889,0.3889,0.0,0.0,-1.4431,-1.4671,0.0,0.0,0.0,0.0,0.0,0.0,0.0,0.0,0.0,0.0,0.0,0.0,0.0,0.0,0.0,0.0,-0.8006,0.0,0.0,0.0,0.0,-0.7013,-0.6661,-0.6614,-0.6187,-0.5931,-0.598,-0.5691,-0.5338,-0.4918,-0.425,-0.3637,-0.3023,-0.2346,-0.1977,-0.1977,-0.1977,-0.1977,-0.1977,-0.1977,-0.1977,-0.1977,-0.1977,-0.1977,-0.1977,-0.1977,-0.1977,-0.1977,-0.1977,-0.1977,-0.1977,-0.1988,-0.1991,-0.1992,-0.2003,-0.2006,-0.2006,-0.2006,-0.2019,-0.2034,-0.2034,-0.2048,-0.2128,-0.2128,-0.2128,-0.2128,-0.2128,-0.2071,-0.2079,-0.2079,-0.2087,-0.216,-0.216,-0.211,-0.2119,-0.2164,-0.2111,-0.2119,-0.2164,-0.216,-0.2101,-0.2121,-0.2125,-0.2103,-0.2041,-0.1716,-0.1135,-0.0124,0.0924,0.1911,0.29,0.3517,0.3889,0.3889,0.3889,0.3889,0.3889,0.3889,0.3889,0.3889,0.3889,0.3889,0.3889,0.3889,0.3889,0.3889,0.3889,0.3889,-1.7575,-1.7002,0.0,-1.6417,-1.4854,0.0,-1.3491,0.0,0.0,0.0,0.0,0.0,0.0,0.0,0.0,0.0,0.0,0.0,0.0,-0.7975,0.0,0.0,0.0,0.0,0.0,-0.7583,-0.7123,-0.7073,-0.6629,-0.6328,-0.6188,-0.5704,-0.5242,-0.4916,-0.4067,-0.3391,-0.3023,-0.2346,-0.1977,-0.1977,-0.1977,-0.1977,-0.1977,-0.1977,-0.1977,-0.1977,-0.1977,-0.1977,-0.1977,-0.1977,-0.1977,-0.1977,-0.1977,-0.1977,-0.1977,-0.1977,-0.1977,-0.1977,-0.1977,-0.1977,-0.1977,-0.1977,-0.1989,-0.2003,-0.2003,-0.2018,-0.2033,-0.2033,-0.2033,-0.2033,-0.2033,-0.204,-0.2048,-0.2048,-0.2056,-0.2128,-0.2128,-0.2079,-0.2087,-0.2132,-0.208,-0.2087,-0.2132,-0.2128,-0.2071,-0.209,-0.2093,-0.2075,-0.2024,-0.2018,-0.1631,-0.0617,0.0062,0.1048,0.2405,0.3332,0.3889,0.3889,0.3889,0.3889,0.3889,0.3889,0.3889,0.3889,0.3889,0.4011,0.4255,0.4255,0.4378,0.4624,0.4378,0.4255]},{"header":{"parameterUnit":"m.s-1","parameterCategory":1,"la1":30.6,"la2":29.2853,"lo1":-89.7004,"lo2":-87.6739,"dy":0.0162,"dx":0.0183,"nx":112,"ny":82,"refTime":"2023-03-28T06:00:00:Z","depth":0,"parameterNumber":3,"parameterNumberName":"V-component_of_WINDS"},"data":[0.0,0.0,0.0,0.0,0.0,0.0,0.0,0.0,0.0,0.0,0.0,0.0,0.0,0.0,0.0,0.0,0.0,0.0,0.0,0.0,0.0,0.0,0.0,0.0,0.0,0.0,0.0,0.0,0.0,0.0,0.0,0.0,0.0,0.0,0.0,0.0,0.0,0.0,0.0,0.0,0.0,0.0,0.0,0.0,0.0,0.0,0.0,0.0,0.0,0.0,0.0,0.0,0.0,0.0,0.0,0.0,0.0,0.0,0.0,0.0,0.0,0.0,0.0,0.0,0.0,0.0,0.0,0.0,0.0,0.0,0.0,0.0,0.0,0.0,0.0,0.0,0.0,0.0,0.0,0.0,0.0,0.0,0.0,0.0,0.0,0.0,0.0,0.0,0.0,0.0,3.5119,3.6127,3.67,3.7007,3.7007,3.7007,3.5596,3.23,0.0,0.0,0.0,0.0,0.0,0.0,0.0,0.0,0.0,0.0,0.0,0.0,0.0,0.0,0.0,0.0,0.0,0.0,0.0,0.0,0.0,0.0,0.0,0.0,0.0,0.0,0.0,0.0,0.0,0.0,0.0,0.0,0.0,0.0,0.0,0.0,0.0,0.0,0.0,0.0,0.0,0.0,0.0,0.0,0.0,0.0,0.0,0.0,0.0,0.0,0.0,0.0,0.0,0.0,0.0,0.0,0.0,0.0,0.0,0.0,0.0,0.0,0.0,0.0,0.0,0.0,0.0,0.0,0.0,0.0,0.0,0.0,0.0,0.0,0.0,0.0,0.0,0.0,0.0,0.0,0.0,0.0,0.0,0.0,0.0,0.0,0.0,0.0,0.0,0.0,0.0,0.0,0.0,0.0,0.0,0.0,0.0,0.0,0.0,0.0,0.0,0.0,0.0,0.0,3.4712,3.6661,3.6956,3.7007,3.7007,3.7007,3.5596,3.23,0.0,0.0,0.0,0.0,0.0,0.0,0.0,0.0,0.0,0.0,0.0,0.0,0.0,0.0,0.0,0.0,0.0,0.0,0.0,0.0,0.0,0.0,0.0,0.0,0.0,0.0,0.0,0.0,0.0,0.0,0.0,0.0,0.0,0.0,0.0,0.0,0.0,0.0,0.0,0.0,0.0,0.0,0.0,0.0,0.0,0.0,0.0,0.0,0.0,0.0,0.0,0.0,0.0,0.0,0.0,0.0,0.0,0.0,0.0,0.0,0.0,0.0,0.0,0.0,0.0,0.0,0.0,0.0,0.0,0.0,0.0,0.0,0.0,0.0,0.0,0.0,0.0,0.0,0.0,0.0,0.0,0.0,0.0,0.0,0.0,0.0,0.0,0.0,0.0,0.0,0.0,0.0,0.0,0.0,0.0,0.0,0.0,0.0,0.0,0.0,0.0,0.0,0.0,3.3668,3.5118,3.6816,3.7007,3.7007,3.7007,3.7007,3.5519,3.2065,3.1838,0.0,0.0,0.0,0.0,0.0,0.0,0.0,0.0,0.0,0.0,0.0,0.0,0.0,0.0,0.0,0.0,0.0,0.0,0.0,0.0,0.0,0.0,0.0,0.0,0.0,0.0,0.0,0.0,0.0,0.0,0.0,0.0,0.0,0.0,0.0,0.0,0.0,0.0,0.0,0.0,0.0,0.0,0.0,0.0,0.0,0.0,0.0,0.0,0.0,0.0,0.0,0.0,0.0,0.0,0.0,0.0,0.0,0.0,0.0,0.0,0.0,0.0,0.0,0.0,0.0,0.0,0.0,0.0,0.0,0.0,0.0,0.0,0.0,0.0,0.0,0.0,0.0,0.0,0.0,0.0,0.0,0.0,0.0,0.0,0.0,0.0,0.0,0.0,0.0,0.0,0.0,0.0,0.0,0.0,0.0,0.0,0.0,0.0,0.0,0.0,0.0,0.0,3.4253,3.5987,3.6981,3.7027,3.7007,3.7007,3.6673,3.5077,3.1807,3.1236,0.0,0.0,0.0,0.0,0.0,0.0,0.0,0.0,0.0,0.0,0.0,0.0,0.0,0.0,0.0,0.0,0.0,0.0,0.0,0.0,0.0,0.0,0.0,0.0,0.0,0.0,0.0,0.0,0.0,0.0,0.0,0.0,0.0,0.0,0.0,0.0,0.0,0.0,0.0,0.0,0.0,0.0,0.0,0.0,0.0,0.0,0.0,0.0,0.0,0.0,0.0,0.0,0.0,0.0,0.0,0.0,0.0,0.0,0.0,0.0,0.0,0.0,0.0,0.0,0.0,0.0,0.0,0.0,0.0,0.0,0.0,0.0,0.0,0.0,0.0,0.0,0.0,0.0,0.0,0.0,0.0,0.0,0.0,0.0,0.0,0.0,0.0,0.0,0.0,0.0,0.0,0.0,0.0,0.0,0.0,0.0,0.0,0.0,0.0,0.0,0.0,0.0,3.5332,3.7378,3.7297,3.7105,3.7007,3.7007,3.569,3.3924,3.1738,3.0189,0.0,0.0,0.0,0.0,0.0,0.0,0.0,0.0,0.0,0.0,0.0,0.0,0.0,0.0,0.0,0.0,0.0,0.0,0.0,0.0,0.0,0.0,0.0,0.0,0.0,0.0,0.0,0.0,0.0,0.0,0.0,0.0,0.0,0.0,0.0,0.0,0.0,0.0,0.0,0.0,0.0,0.0,0.0,0.0,0.0,0.0,0.0,0.0,0.0,0.0,0.0,0.0,0.0,0.0,0.0,0.0,0.0,0.0,0.0,0.0,0.0,0.0,0.0,0.0,0.0,0.0,0.0,0.0,0.0,0.0,0.0,0.0,0.0,0.0,0.0,0.0,0.0,0.0,0.0,0.0,0.0,0.0,0.0,0.0,0.0,0.0,0.0,0.0,0.0,0.0,0.0,0.0,0.0,0.0,0.0,0.0,0.0,0.0,0.0,0.0,0.0,0.0,3.4552,3.6453,0.0,3.722,3.7143,3.7007,3.648,3.4795,3.1604,0.0,0.0,0.0,0.0,0.0,0.0,0.0,0.0,0.0,0.0,0.0,0.0,0.0,0.0,0.0,0.0,0.0,0.0,0.0,0.0,0.0,0.0,0.0,0.0,0.0,0.0,0.0,0.0,0.0,0.0,0.0,0.0,0.0,0.0,0.0,0.0,0.0,0.0,0.0,0.0,0.0,0.0,0.0,0.0,0.0,0.0,0.0,0.0,0.0,0.0,0.0,0.0,0.0,0.0,0.0,0.0,0.0,0.0,0.0,0.0,0.0,0.0,0.0,0.0,0.0,0.0,0.0,0.0,0.0,0.0,0.0,0.0,0.0,0.0,0.0,0.0,0.0,0.0,0.0,0.0,0.0,0.0,0.0,0.0,0.0,0.0,0.0,0.0,0.0,0.0,0.0,0.0,0.0,0.0,0.0,0.0,0.0,0.0,0.0,0.0,0.0,0.0,3.2314,3.4602,3.6487,0.0,3.7428,3.7316,3.7124,3.6647,3.492,3.1511,0.0,0.0,0.0,0.0,0.0,0.0,0.0,0.0,0.0,0.0,0.0,0.0,0.0,0.0,0.0,0.0,0.0,0.0,0.0,0.0,0.0,0.0,0.0,0.0,0.0,0.0,0.0,0.0,0.0,0.0,0.0,0.0,0.0,0.0,0.0,0.0,0.0,0.0,0.0,0.0,0.0,0.0,0.0,0.0,0.0,0.0,0.0,0.0,0.0,0.0,0.0,0.0,0.0,0.0,0.0,0.0,0.0,0.0,0.0,0.0,0.0,0.0,0.0,0.0,0.0,0.0,0.0,0.0,0.0,0.0,0.0,0.0,0.0,0.0,0.0,0.0,0.0,0.0,0.0,0.0,0.0,0.0,0.0,0.0,0.0,0.0,0.0,0.0,0.0,0.0,0.0,0.0,0.0,0.0,0.0,0.0,0.0,0.0,0.0,0.0,0.0,0.0,3.2896,3.582,3.7899,3.7899,3.7721,3.7503,3.7316,3.5916,3.3967,0.0,0.0,0.0,0.0,0.0,0.0,0.0,0.0,0.0,0.0,0.0,0.0,0.0,0.0,0.0,0.0,0.0,0.0,0.0,0.0,0.0,0.0,0.0,0.0,0.0,0.0,0.0,0.0,0.0,0.0,0.0,0.0,0.0,0.0,0.0,0.0,0.0,0.0,0.0,0.0,0.0,0.0,0.0,0.0,0.0,0.0,0.0,0.0,0.0,0.0,0.0,0.0,0.0,0.0,0.0,0.0,0.0,0.0,0.0,0.0,0.0,0.0,0.0,0.0,0.0,0.0,0.0,0.0,0.0,0.0,0.0,0.0,0.0,0.0,0.0,0.0,0.0,0.0,0.0,0.0,0.0,0.0,0.0,0.0,0.0,0.0,0.0,0.0,0.0,0.0,0.0,0.0,0.0,0.0,0.0,0.0,0.0,0.0,0.0,0.0,0.0,0.0,0.0,3.2862,3.5936,3.8073,3.7916,3.7846,3.7721,3.7539,3.7094,3.5438,3.2213,0.0,0.0,0.0,0.0,0.0,0.0,0.0,0.0,0.0,0.0,0.0,0.0,0.0,0.0,0.0,0.0,0.0,0.0,0.0,0.0,0.0,0.0,0.0,0.0,0.0,0.0,0.0,0.0,0.0,0.0,0.0,0.0,0.0,0.0,0.0,0.0,0.0,0.0,0.0,0.0,0.0,0.0,0.0,0.0,0.0,0.0,0.0,0.0,0.0,0.0,0.0,0.0,0.0,0.0,0.0,0.0,0.0,0.0,0.0,0.0,0.0,0.0,0.0,0.0,0.0,0.0,0.0,0.0,0.0,0.0,0.0,0.0,0.0,0.0,0.0,0.0,0.0,0.0,0.0,0.0,0.0,0.0,0.0,0.0,0.0,0.0,0.0,0.0,0.0,0.0,0.0,0.0,0.0,0.0,0.0,0.0,0.0,0.0,0.0,0.0,0.0,0.0,3.2862,3.5986,3.8158,3.8021,3.8021,3.7934,3.7739,3.7721,3.6471,3.3512,0.0,0.0,0.0,0.0,0.0,0.0,0.0,0.0,0.0,0.0,0.0,0.0,0.0,0.0,0.0,0.0,0.0,0.0,0.0,0.0,0.0,0.0,0.0,0.0,0.0,0.0,0.0,0.0,0.0,0.0,0.0,0.0,0.0,0.0,0.0,0.0,0.0,0.0,0.0,0.0,0.0,0.0,0.0,0.0,0.0,0.0,0.0,0.0,0.0,0.0,0.0,0.0,0.0,0.0,0.0,0.0,0.0,0.0,0.0,0.0,0.0,0.0,0.0,0.0,0.0,0.0,0.0,0.0,0.0,0.0,0.0,0.0,0.0,0.0,0.0,0.0,0.0,0.0,0.0,0.0,0.0,0.0,0.0,0.0,0.0,0.0,0.0,0.0,0.0,0.0,0.0,0.0,0.0,0.0,0.0,0.0,0.0,0.0,0.0,0.0,0.0,0.0,3.2896,3.5986,3.8209,3.8209,3.8209,3.8141,3.7934,3.7934,3.7076,3.5084,0.0,0.0,0.0,0.0,0.0,0.0,0.0,0.0,0.0,0.0,0.0,0.0,0.0,0.0,0.0,0.0,0.0,0.0,0.0,0.0,0.0,0.0,0.0,0.0,0.0,0.0,0.0,0.0,0.0,0.0,0.0,0.0,0.0,0.0,0.0,0.0,0.0,0.0,0.0,0.0,0.0,0.0,0.0,0.0,0.0,0.0,0.0,0.0,0.0,0.0,0.0,0.0,0.0,0.0,0.0,0.0,0.0,0.0,0.0,0.0,3.3713,3.1071,0.0,0.0,0.0,0.0,0.0,0.0,0.0,0.0,0.0,0.0,0.0,0.0,0.0,0.0,0.0,0.0,0.0,0.0,0.0,0.0,0.0,0.0,0.0,0.0,0.0,0.0,0.0,0.0,0.0,0.0,0.0,0.0,0.0,0.0,0.0,0.0,0.0,0.0,0.0,0.0,3.288,3.5986,3.8209,3.8209,3.8209,3.8192,3.8141,3.8141,3.7369,3.5548,3.4848,0.0,0.0,0.0,0.0,0.0,0.0,0.0,0.0,0.0,0.0,0.0,0.0,0.0,0.0,0.0,0.0,0.0,0.0,0.0,0.0,0.0,0.0,0.0,0.0,0.0,0.0,0.0,0.0,0.0,0.0,0.0,0.0,0.0,0.0,0.0,0.0,0.0,0.0,0.0,0.0,0.0,0.0,0.0,0.0,0.0,0.0,0.0,0.0,0.0,0.0,0.0,0.0,0.0,0.0,0.0,0.0,0.0,0.0,0.0,3.4378,3.3342,0.0,0.0,0.0,0.0,0.0,0.0,0.0,0.0,0.0,0.0,0.0,0.0,0.0,0.0,0.0,0.0,0.0,0.0,0.0,0.0,0.0,0.0,0.0,0.0,0.0,0.0,0.0,0.0,0.0,0.0,0.0,0.0,0.0,0.0,0.0,0.0,0.0,0.0,0.0,0.0,3.3698,3.6453,3.8272,3.8241,3.8259,3.8242,3.8209,3.8209,3.7813,3.6915,3.5821,0.0,0.0,0.0,0.0,0.0,0.0,0.0,0.0,0.0,0.0,0.0,0.0,0.0,0.0,0.0,0.0,0.0,0.0,0.0,0.0,0.0,0.0,0.0,0.0,0.0,0.0,0.0,0.0,0.0,0.0,0.0,0.0,0.0,0.0,0.0,0.0,0.0,0.0,0.0,0.0,0.0,0.0,0.0,0.0,0.0,0.0,0.0,0.0,0.0,0.0,0.0,0.0,0.0,3.6825,3.6825,3.6825,3.6825,3.6683,3.6341,3.5155,3.5874,3.762,3.4191,0.0,0.0,0.0,0.0,0.0,0.0,0.0,0.0,0.0,0.0,0.0,0.0,0.0,0.0,0.0,0.0,0.0,0.0,0.0,0.0,0.0,0.0,0.0,0.0,3.8174,3.736,3.4974,0.0,0.0,0.0,0.0,0.0,0.0,0.0,0.0,0.0,0.0,0.0,3.48,3.6955,3.8385,3.8322,3.8323,3.8307,3.8241,3.8224,3.8224,3.8224,3.6673,3.5734,0.0,0.0,0.0,0.0,0.0,0.0,0.0,0.0,0.0,0.0,0.0,0.0,0.0,0.0,0.0,0.0,0.0,0.0,0.0,0.0,0.0,0.0,0.0,0.0,0.0,0.0,0.0,0.0,0.0,0.0,0.0,0.0,3.6874,3.9101,0.0,0.0,0.0,0.0,0.0,0.0,0.0,0.0,0.0,0.0,0.0,0.0,0.0,3.8345,3.9887,4.0308,4.1186,4.2523,4.2523,4.2523,4.2523,4.2523,4.2495,4.2317,3.9505,0.0,3.7793,3.7538,0.0,0.0,0.0,0.0,0.0,0.0,0.0,0.0,0.0,0.0,0.0,0.0,0.0,0.0,0.0,0.0,0.0,0.0,0.0,0.0,0.0,0.0,4.02,4.037,4.0636,4.0748,0.0,3.6492,3.2991,3.269,3.2523,0.0,0.0,0.0,0.0,0.0,0.0,0.0,3.547,3.7189,3.8399,3.8401,3.8401,3.8366,3.8366,3.8366,3.8366,3.8366,3.8118,3.7809,3.7468,3.6174,0.0,0.0,0.0,0.0,0.0,0.0,0.0,0.0,0.0,0.0,0.0,0.0,0.0,0.0,0.0,0.0,0.0,0.0,0.0,0.0,0.0,0.0,0.0,0.0,0.0,0.0,0.0,0.0,0.0,3.7328,3.895,4.1223,4.046,3.9135,0.0,0.0,0.0,0.0,0.0,0.0,0.0,0.0,0.0,3.9914,3.9845,4.0619,4.2438,4.2661,4.3098,4.378,4.378,4.378,4.378,4.378,4.378,4.3693,4.2345,4.1541,4.1063,3.8907,3.8251,3.8466,0.0,0.0,0.0,0.0,3.5653,3.5707,3.6033,3.7452,3.8919,3.7798,0.0,0.0,0.0,0.0,0.0,0.0,0.0,0.0,0.0,0.0,4.1207,4.2276,4.2361,4.2174,4.2081,3.9826,3.7339,0.0,3.525,3.4425,3.209,0.0,0.0,0.0,0.0,3.5989,3.6793,3.7881,3.8546,3.8462,3.8462,3.8446,3.8399,3.8185,3.8068,3.8068,3.7844,3.765,3.7469,3.6845,3.599,0.0,0.0,0.0,0.0,0.0,0.0,0.0,0.0,0.0,0.0,0.0,0.0,0.0,0.0,0.0,0.0,0.0,0.0,0.0,0.0,0.0,0.0,0.0,0.0,0.0,0.0,0.0,0.0,3.9232,4.0567,4.2812,4.224,4.1144,0.0,0.0,0.0,0.0,0.0,0.0,4.0855,4.0156,4.0734,4.2864,4.2451,4.2921,4.4483,4.4501,4.4501,4.4501,4.4501,4.4501,4.4501,4.4501,4.4501,4.4483,4.429,4.4202,4.3974,4.0714,3.9678,4.0144,3.9552,3.861,3.7561,3.7411,3.7324,3.7327,3.7233,3.8342,3.9729,3.9126,3.9406,3.9926,3.9747,0.0,0.0,0.0,0.0,3.8671,4.0402,4.1298,4.2136,4.3585,4.3512,4.3083,4.2992,4.2511,4.1342,0.0,3.8186,3.726,3.4537,0.0,0.0,0.0,0.0,3.6921,3.797,3.8465,3.8658,3.8559,3.8559,3.8544,3.8481,3.8203,3.8017,3.8017,3.7739,3.7596,3.7596,3.7596,3.7059,3.5931,0.0,0.0,0.0,0.0,0.0,0.0,0.0,0.0,0.0,0.0,0.0,0.0,0.0,0.0,0.0,0.0,0.0,0.0,0.0,0.0,0.0,0.0,0.0,0.0,0.0,0.0,0.0,0.0,0.0,4.3576,4.4749,0.0,0.0,0.0,0.0,4.0978,4.063,4.1437,4.3588,4.2992,4.3641,4.5902,4.5961,4.5979,4.6074,4.6074,4.6074,4.6074,4.6074,4.6074,4.6074,4.6074,4.6074,4.6056,4.5343,4.5045,4.4957,4.3992,4.353,4.3261,4.1081,4.0123,3.9856,3.9293,3.9073,3.9287,4.0771,4.1394,4.1481,4.1424,4.1693,4.1765,4.0324,4.011,0.0,0.0,3.9108,4.0841,4.0518,4.2132,4.3878,4.3971,4.3968,4.3949,4.3934,4.3852,4.3272,0.0,4.1166,4.0299,3.7478,0.0,3.8765,3.6163,3.7353,3.8566,3.8658,3.8673,3.8707,3.8692,3.8692,3.8692,3.8692,3.8676,3.8643,3.8643,3.8627,3.8627,3.8627,3.8627,3.8541,3.8334,3.5887,0.0,0.0,0.0,0.0,0.0,0.0,0.0,0.0,0.0,0.0,0.0,0.0,0.0,0.0,0.0,0.0,0.0,0.0,0.0,0.0,0.0,0.0,0.0,0.0,0.0,0.0,0.0,0.0,4.3623,4.4259,0.0,4.3104,4.3436,4.3278,4.2265,4.3413,4.4536,4.5337,4.5126,4.5354,4.6179,4.6196,4.6196,4.6196,4.6196,4.6196,4.6196,4.6196,4.6196,4.6196,4.6196,4.6196,4.6196,4.5916,4.581,4.5775,4.5495,4.4775,4.3746,4.2928,4.2589,4.2508,4.2291,4.2209,4.2226,4.2337,4.2377,4.2334,4.2076,4.2422,4.2868,4.2323,4.2248,4.2275,4.1773,4.2097,4.2588,4.2702,4.3355,4.4005,4.4005,4.4005,4.4005,4.4005,4.3974,4.3791,4.3185,4.2588,4.1683,4.0173,4.0459,4.0366,3.8728,3.9133,3.9396,3.8835,3.8762,3.8762,3.8762,3.8738,3.8707,3.8707,3.8449,3.8302,3.8302,3.8068,3.793,3.793,3.8186,3.8285,3.8234,3.7593,3.5593,0.0,0.0,0.0,0.0,0.0,0.0,0.0,0.0,0.0,0.0,0.0,0.0,0.0,0.0,0.0,0.0,0.0,0.0,0.0,0.0,0.0,0.0,0.0,0.0,0.0,4.0972,4.2224,4.3711,4.436,4.4483,4.3986,4.4395,4.4483,4.3968,4.5354,4.6196,4.6196,4.6196,4.6196,4.6196,4.6196,4.6196,4.6196,4.635,4.6447,4.6429,4.6596,4.6672,4.6672,4.6672,4.6672,4.6672,4.6501,4.6525,4.6649,4.6501,4.5929,4.5093,4.4536,4.4407,4.4516,4.4228,4.4236,4.4303,4.3806,4.3646,4.36,4.3325,4.3701,4.4194,4.392,4.3932,4.4048,4.4016,4.3809,4.366,4.3923,4.4005,4.4005,4.4005,4.4005,4.4005,4.4005,4.4005,4.4005,4.4005,4.35,4.2551,4.0877,4.0599,3.9996,3.8199,3.7985,3.7829,3.7208,3.7661,3.8026,3.8026,3.8464,3.8765,3.8735,3.7747,3.746,3.8296,3.7323,3.7099,3.7945,3.7437,3.7241,3.7515,3.6966,3.5302,3.2487,0.0,0.0,0.0,0.0,0.0,0.0,0.0,0.0,0.0,0.0,0.0,0.0,0.0,0.0,0.0,0.0,0.0,0.0,0.0,0.0,0.0,0.0,0.0,4.1217,4.2961,4.391,4.398,4.5308,4.6196,4.6196,4.6196,4.6214,4.6221,4.6221,4.6221,4.6246,4.6246,4.6246,4.6246,4.6246,4.6246,4.6246,4.6695,4.6931,4.6931,4.7378,4.7611,4.7611,4.7611,4.7611,4.7569,4.7115,4.7182,4.7569,4.7115,4.7182,4.7434,4.581,4.5451,4.5757,4.4971,4.4964,4.5314,4.5314,4.5334,4.5335,4.5335,4.5586,4.5772,4.4983,4.5023,4.5157,4.4321,4.4061,4.4042,4.4042,4.4023,4.4005,4.4005,4.4005,4.4005,4.4005,4.4005,4.4005,4.4005,4.4005,4.2971,3.9711,3.916,3.8025,3.4668,3.4229,0.0,3.4157,3.5606,3.662,3.6509,3.7968,3.8862,3.8696,3.6615,3.6302,3.8659,3.6597,3.6399,3.8799,3.6583,3.5694,3.649,3.4071,3.3618,3.5264,0.0,0.0,0.0,0.0,0.0,0.0,0.0,0.0,0.0,0.0,0.0,0.0,0.0,0.0,0.0,0.0,0.0,0.0,0.0,0.0,0.0,4.0833,4.2419,4.3611,4.3632,4.4165,4.5866,4.6158,4.6196,4.6196,4.6196,4.6326,4.6672,4.6719,4.6863,4.7204,4.7226,4.7226,4.7226,4.7226,4.7226,4.7226,4.7356,4.7399,4.7421,4.7548,4.7611,4.7611,4.7611,4.7611,4.7591,4.7464,4.7485,4.7591,4.7464,4.7485,4.7533,4.7101,4.6989,4.7078,4.6862,4.6494,4.609,4.609,4.5945,4.5755,4.5755,4.601,4.6286,4.6064,4.6075,4.6122,4.5881,4.5379,4.4934,4.4934,4.4469,4.4005,4.4005,4.4005,4.4005,4.4005,4.4005,4.4005,4.4005,4.4005,4.3711,4.2786,4.2637,4.2087,4.0515,4.0337,0.0,3.9486,3.9834,3.9205,3.6837,3.8453,3.8744,3.6381,3.7182,3.8103,3.8826,3.8253,3.8194,3.8873,3.8249,3.8253,3.9065,3.6685,3.5892,0.0,0.0,0.0,0.0,0.0,0.0,0.0,0.0,0.0,0.0,0.0,0.0,0.0,0.0,0.0,0.0,0.0,0.0,0.0,0.0,0.0,0.0,4.2704,4.4876,4.6061,4.5616,4.568,4.7042,4.6954,4.6788,4.6788,4.6788,4.6908,4.716,4.7182,4.7313,4.7591,4.7611,4.7611,4.7611,4.7611,4.7611,4.7611,4.7795,4.7897,4.7897,4.8058,4.8136,4.8136,4.8136,4.8136,4.8154,4.7977,4.7997,4.8117,4.7957,4.7997,0.0,0.0,0.0,0.0,0.0,4.7843,4.7459,4.7459,4.7316,4.7166,4.7166,4.7325,4.7441,4.7107,4.6995,4.6921,4.6587,4.616,4.5788,4.5788,4.5435,4.4952,4.4618,4.4544,4.4432,4.4079,4.4005,4.4005,4.4005,4.4005,0.0,4.4005,4.315,4.1965,4.037,4.0191,4.0038,3.9522,4.0055,3.9754,3.7844,3.946,3.9897,3.7997,3.8167,0.0,0.0,0.0,3.8446,3.8446,3.8783,0.0,0.0,0.0,3.6555,3.7612,0.0,0.0,0.0,3.5336,3.46,0.0,0.0,0.0,0.0,0.0,0.0,0.0,0.0,0.0,0.0,0.0,0.0,0.0,0.0,0.0,0.0,4.3625,4.6209,4.829,4.8118,4.7756,4.7695,4.7632,4.7611,4.7611,4.7611,4.7611,4.7674,4.7674,4.7695,4.7756,4.7756,0.0,0.0,0.0,4.7756,4.7777,4.8173,4.8382,4.8382,4.875,4.8909,4.8909,4.8909,4.8926,4.8909,4.855,4.8605,4.8909,4.855,4.8605,4.8855,4.8058,4.7997,4.842,4.8767,4.8909,4.8909,4.8909,0.0,0.0,4.8926,4.8926,4.8796,4.8054,4.785,4.7718,4.6977,4.6717,4.6643,4.664,4.6585,4.6325,4.5618,4.5451,4.5207,4.4349,4.4178,4.416,4.4113,4.4094,4.4079,4.4048,4.2233,4.0034,3.777,3.7495,3.7509,3.7436,3.8739,3.951,3.9138,0.0,0.0,4.1134,3.9332,3.9165,4.1374,3.9458,3.8229,3.8229,3.8975,3.8048,3.5224,3.5879,3.7005,3.8581,3.8581,4.0085,4.2797,3.7284,3.5974,0.0,0.0,0.0,0.0,0.0,0.0,0.0,0.0,0.0,0.0,0.0,0.0,0.0,0.0,0.0,4.4332,4.6648,4.8553,4.9003,4.8957,4.873,4.8309,4.786,4.7611,4.7611,4.7611,4.7775,4.8132,4.8172,4.8307,4.8641,4.866,4.866,4.866,4.866,4.8714,4.8804,4.8892,4.8946,4.8946,0.0,0.0,4.8909,4.9015,4.9049,4.9049,4.9047,4.9079,4.9129,4.9062,4.9079,4.9113,4.8767,4.8695,4.8785,4.8874,4.8909,4.8909,4.9032,4.9049,4.9049,4.9049,4.9116,4.9094,4.8775,4.8737,0.0,4.8517,4.798,4.7477,4.7525,4.7057,4.6536,4.6403,4.635,4.6153,4.5435,4.5292,4.5162,4.4731,4.4656,4.4591,4.436,4.3759,4.315,4.2634,4.2593,4.2593,4.2578,4.2838,4.2036,3.938,4.1137,4.1438,3.8813,3.994,4.1,4.1542,4.113,4.087,4.087,4.1018,4.1111,4.113,4.1297,4.1835,4.2816,4.2816,4.315,4.3726,4.1883,4.1646,0.0,0.0,0.0,0.0,0.0,0.0,0.0,0.0,0.0,0.0,0.0,4.1541,4.1541,0.0,4.5507,4.5507,4.7666,4.9345,4.9345,4.9295,4.9144,4.8854,4.8568,4.8403,4.8403,4.8403,4.8495,4.8732,4.875,4.882,4.8979,4.9029,4.9029,4.8996,4.9029,4.9081,4.915,4.915,4.915,4.915,4.915,4.9115,4.9046,4.9115,4.915,4.915,4.9181,4.9214,4.9214,4.9214,4.9214,4.9179,4.9096,4.9046,4.9046,4.9013,4.903,4.9046,4.9101,4.9116,4.915,4.915,4.9164,4.9179,4.9079,4.9098,4.915,4.9062,4.8747,4.8481,4.8668,4.8396,4.8029,4.7716,4.7664,4.7447,4.6719,4.6555,4.6354,4.5633,4.5506,4.5312,4.47,4.4498,4.4308,4.4033,4.4005,4.4005,4.4005,4.4005,4.3373,4.1739,4.2637,4.2711,4.1089,4.2062,4.277,4.2797,4.2797,4.2797,4.2797,4.2797,4.2983,4.3392,4.3392,4.3596,4.4005,4.4005,4.4005,4.3986,4.3726,4.3744,0.0,0.0,0.0,0.0,0.0,0.0,0.0,0.0,4.2367,4.2883,4.3096,4.3216,4.3216,4.4992,4.643,4.643,4.8157,4.9509,4.9509,4.9409,4.9327,4.9262,4.923,4.9214,4.9214,4.9214,4.9214,4.9214,4.9214,4.9181,4.9116,4.9164,4.9181,4.9116,4.9164,4.9214,4.9211,4.9211,4.9211,4.9211,4.9211,4.9211,4.9214,4.9211,4.9211,4.9211,4.9246,4.9262,4.9262,4.9262,4.9262,4.9262,4.9262,4.9262,4.9246,4.915,4.9166,4.9179,4.915,4.9164,4.9211,4.9211,4.9246,4.9246,4.9214,4.9244,4.9289,4.9273,4.9321,4.9393,4.9622,4.9712,4.9559,4.9087,4.8977,4.876,4.7987,4.7808,4.7579,4.6755,4.6603,4.6302,4.5311,4.5155,4.4909,4.4258,4.4166,4.4181,4.4181,4.4121,4.4109,4.4109,4.4033,4.4005,4.4005,4.4005,4.4005,4.4005,4.4005,4.4005,4.4005,4.4005,4.4005,4.4005,4.4005,4.4036,4.4079,4.4079,4.4091,4.4166,4.4374,4.4332,3.8952,3.8446,3.8652,3.8652,4.0095,4.2176,0.0,0.0,4.5865,4.8134,4.8599,4.8633,4.8633,4.8874,4.9077,4.9077,4.9321,4.9509,4.9509,4.9493,4.9474,4.9459,4.9313,4.9214,4.9214,4.9214,4.9214,4.9214,4.9214,4.9197,4.9197,4.9197,4.9197,4.9197,4.9197,4.9228,4.9292,4.9292,4.9292,4.9292,4.9292,4.926,4.9195,4.926,4.9292,4.9308,4.9409,4.9459,4.9459,4.9459,4.9459,4.9459,4.9459,4.9459,4.9443,4.9265,4.9179,4.9214,4.926,4.9292,4.9292,4.9292,4.9358,4.9427,4.9246,4.9411,4.9627,4.9569,4.9683,4.9854,5.0019,5.0043,5.0024,4.9966,4.994,4.9766,4.9064,4.8924,4.8757,4.817,4.8071,4.771,4.6579,4.6396,4.6003,4.4889,4.4763,4.48,4.48,4.4599,4.4438,4.4438,4.4181,4.4005,4.4005,4.4005,4.4005,4.4005,4.4005,4.4005,4.4005,4.4005,4.4005,4.4005,4.4005,4.4121,4.436,4.436,4.4465,4.4701,4.4739,4.4612,4.2636,4.1669,4.1262,4.4115,4.4477,4.4815,4.735,4.7913,4.8213,4.9283,4.9509,4.9509,4.9509,4.9509,4.9509,4.9509,4.9509,4.9509,4.9509,4.9509,4.9509,4.9509,4.984,4.9883,4.9433,4.9377,4.9565,5.0033,5.0071,5.026,5.0698,5.075,5.075,5.0717,5.075,5.078,5.0796,5.0812,5.0587,5.01,5.01,4.9859,4.9377,4.9409,4.9424,4.9424,4.9474,4.9509,4.9509,4.9509,4.9509,4.9509,4.9509,4.9509,4.9474,4.9327,4.9311,4.9361,4.9308,4.9358,4.9424,4.9424,4.954,4.9665,4.9569,4.9749,4.9987,4.9962,4.9999,5.0133,5.0342,5.0404,5.0417,5.0538,5.0568,5.0481,5.0218,5.015,4.9937,4.9206,4.9059,4.8745,4.7756,4.7584,4.7423,4.6915,4.5731,4.4905,4.4905,4.4804,4.4731,4.4731,4.4606,4.4516,4.4516,4.4516,4.4516,4.4516,4.4516,4.4516,4.4516,4.4516,4.4521,4.4519,4.4519,4.4559,4.4624,4.4624,4.4688,4.48,4.4973,4.4966,4.4279,4.3624,4.3272,4.7532,4.7696,4.7291,4.9119,4.9521,4.9509,4.9509,4.9509,4.9509,4.9509,4.9509,4.9509,4.9509,4.9509,4.9509,4.9509,4.9696,4.9828,4.9828,5.0541,5.0804,5.0222,5.0166,5.0391,5.0992,5.1029,5.1257,5.1811,5.1879,5.1879,5.183,5.1879,5.1912,5.1912,5.1912,5.1611,5.1029,5.1029,5.0729,5.0147,4.9922,4.9715,4.9509,4.9509,4.9509,4.9509,4.9509,4.9517,4.9589,4.9589,4.9634,4.9688,4.9573,4.9548,4.957,4.9562,4.9607,4.9688,4.9688,4.9787,4.9904,4.9904,5.0111,5.0309,5.0309,5.0353,5.0438,5.0635,5.0672,5.0727,5.0874,5.0898,5.0898,5.0898,5.0898,5.0716,5.0074,4.995,4.9691,4.8836,4.8693,4.8596,4.8364,4.6925,4.5779,4.5529,4.5229,4.5001,4.4912,4.4901,4.4901,4.4901,4.4901,4.4901,4.4901,4.4901,4.4901,4.4901,4.4901,4.4909,4.49,4.49,4.4912,4.4935,4.4935,4.4977,4.5052,4.5263,4.5323,0.0,0.0,4.3007,4.5646,4.7953,4.9598,4.9673,4.9593,4.9509,4.9509,4.9509,4.9509,4.9509,4.9509,4.9509,4.9509,4.9509,4.9509,4.9509,5.0166,5.067,5.067,5.1367,5.1855,0.0,5.1837,5.1837,5.1874,5.1874,5.1874,5.1912,5.1912,5.1912,5.1912,5.1912,5.1912,5.1912,5.1912,5.1893,5.1874,5.1874,5.1855,5.1799,5.1011,5.0241,4.9509,4.9509,4.9509,4.9509,4.9509,4.9615,4.979,4.979,4.9962,5.0171,5.0171,5.0006,4.983,5.0068,5.0171,5.0171,5.0171,5.0183,5.0195,5.0195,5.0383,5.0577,5.0577,5.0736,5.0882,5.089,5.089,5.089,5.0898,5.0898,5.0898,5.0898,5.0898,5.0898,5.0879,5.0859,5.0608,4.9796,4.966,4.937,4.8527,4.8345,4.7994,4.7144,4.6063,4.5256,4.4935,4.4901,4.4901,4.4901,4.4901,4.4901,4.4901,4.4901,4.4901,4.4901,4.4901,4.4901,4.4901,4.4901,4.5042,4.5275,4.5275,4.5428,4.5665,4.5676,4.5651,0.0,0.0,4.558,4.8029,4.9177,4.9692,4.9692,4.9612,4.9509,4.9509,4.8157,4.6974,4.6974,4.5641,4.5045,4.6711,4.7462,4.842,5.0053,5.0992,5.1499,5.1499,5.225,0.0,0.0,0.0,0.0,5.2719,5.2757,5.3001,5.3526,5.3564,5.3564,5.3564,5.3564,5.3564,5.3564,5.3564,5.3282,5.2757,5.2175,5.1986,5.216,5.1895,5.1424,5.0817,5.0817,5.0513,4.9955,4.9955,4.9987,5.0075,5.0075,5.0123,5.0218,5.0404,5.0415,5.032,5.023,5.0195,5.0195,5.0195,5.0309,5.0476,5.0476,5.0625,5.0797,5.0797,5.0858,5.0898,5.0898,5.0898,5.0898,5.0898,5.0898,5.0898,5.0898,5.0898,5.0898,5.0898,5.0898,5.0801,5.0531,5.0492,5.0221,4.9397,4.8778,4.8101,4.7216,4.6766,4.6259,4.556,4.5494,4.5494,4.5494,4.5494,4.5494,4.5494,4.5494,4.5494,4.5494,4.5494,4.5505,4.549,4.549,4.5526,4.558,4.558,4.5605,4.5703,4.57,4.5692,0.0,4.6423,4.6976,4.9491,4.9986,4.983,4.9774,4.9682,4.9303,4.8341,4.6843,4.5435,4.4552,4.3074,4.2905,4.5716,4.6636,4.7969,5.0729,5.1837,5.2362,5.2362,5.3113,5.3637,0.0,0.0,0.0,5.3599,5.3637,5.3846,5.4371,5.4409,5.4409,5.4409,5.4409,5.4409,5.4409,5.4409,5.4194,5.3779,5.3301,5.303,5.2908,5.2908,5.2552,5.1904,5.1617,5.1185,5.0638,5.034,5.0252,5.0331,5.0331,5.0385,5.0469,5.0644,5.0709,5.0672,5.0499,5.0448,5.0448,5.0448,5.0567,5.0709,5.0709,5.0797,5.0898,5.0898,5.0898,5.0898,5.0898,5.0898,5.0898,5.0898,5.0898,5.0898,5.0898,5.0898,5.0898,5.0898,5.0898,5.0898,5.0898,5.0898,5.0724,5.021,4.9649,4.8875,4.7715,4.756,4.7347,4.6786,4.6728,4.6593,4.629,4.6271,4.6136,4.5826,4.5807,4.5807,4.5807,4.5807,4.5793,4.581,4.581,4.5776,4.5727,4.5727,4.5746,4.575,4.5746,4.5712,4.562,4.6866,4.7329,4.9862,5.031,5.0082,4.9946,4.9707,4.8796,4.6243,4.5505,4.4608,0.0,0.0,4.2962,4.6336,4.703,4.8269,5.1518,5.27,5.3261,0.0,0.0,0.0,0.0,0.0,0.0,5.4409,5.4409,5.4409,5.4409,5.4409,5.4409,5.4409,5.4407,5.4424,5.4424,5.4441,5.4568,5.4821,5.508,5.4804,5.4084,5.4084,5.3618,5.2774,5.1997,5.1614,5.1469,5.0635,5.0432,5.0625,5.0625,5.0736,5.0898,5.0898,5.0898,5.0898,5.0898,5.0898,5.0898,5.0898,5.0898,5.0898,5.0898,5.0898,5.0898,5.0898,5.0898,5.0898,5.0898,5.0898,5.0898,5.0898,5.0898,5.0898,5.0898,5.0898,5.0898,5.0898,5.0898,5.0898,5.0898,5.0898,5.0898,5.0898,5.0898,5.0299,4.8682,4.8469,4.845,4.8392,4.8392,4.8063,4.7231,4.7173,4.6806,4.6,4.5923,4.5923,4.5923,4.5923,4.5923,4.5923,4.5923,4.5923,4.5923,4.5923,4.5921,4.5923,4.5921,4.588,4.8804,4.9661,4.9797,5.0479,5.0448,5.0249,5.0214,4.8555,4.6826,4.6144,4.2976,4.032,4.0282,4.024,4.1285,4.4594,4.7237,0.0,5.2491,5.3583,0.0,5.409,0.0,5.4409,5.4409,5.4409,0.0,5.4409,5.4409,5.4409,5.4409,5.4409,5.4409,5.4409,5.4581,5.4689,5.4689,5.4905,5.504,5.5107,5.5167,5.5209,5.5193,5.5193,5.4848,5.4255,5.4043,5.3213,5.1998,5.1776,5.134,5.0814,5.0814,5.0847,5.0898,5.0898,5.0898,5.0898,5.0898,5.0898,5.0898,5.0898,5.0898,5.0898,5.0898,5.0898,5.0898,5.0898,5.0898,5.0898,5.0898,5.0898,5.0898,5.0898,5.0898,5.0898,5.0898,5.0898,5.0898,5.0898,5.0898,5.0898,5.0898,5.0898,5.0898,5.0898,5.0898,5.0531,4.9494,4.9378,4.9126,4.8469,4.8392,4.8314,4.8082,4.8063,4.7966,4.7753,4.7734,4.7734,4.7734,4.7734,4.7734,4.7734,4.7734,4.7734,4.7734,4.7734,4.7734,4.7738,4.7734,4.7378,4.9995,5.0705,5.0713,5.0811,5.0615,5.0087,4.8966,4.7463,4.565,4.3398,4.064,3.8875,3.9633,3.9708,4.118,0.0,0.0,0.0,5.3337,5.4108,5.4409,0.0,5.4409,0.0,5.4568,5.4584,5.4629,5.4746,5.4626,5.4584,5.4584,5.4689,5.4746,5.4746,5.4905,5.4971,5.4971,5.5243,5.5384,5.5365,5.55,5.5628,5.5789,5.5789,5.5615,5.5316,0.0,5.4233,5.3285,5.2519,5.1912,5.1428,5.1053,5.0898,5.0898,5.0898,5.0898,5.0898,5.0898,5.0898,5.0898,5.0898,5.0898,5.0898,5.0898,5.0898,5.0898,5.0898,5.0898,5.0898,5.0898,5.0898,5.0898,5.0898,5.0898,5.0898,5.0898,5.0898,5.0898,5.0898,5.0898,5.0898,5.0898,5.0898,5.0898,5.0898,5.0898,5.0743,5.0279,5.0221,5.0035,4.9552,4.9494,4.9359,4.901,4.8972,4.8817,4.8411,4.8392,4.8392,4.8392,4.8392,4.8392,4.8392,4.8392,4.8392,4.8392,4.8392,4.8392,4.8392,4.8392,4.814,5.0135,5.0775,5.08,5.0986,5.0789,4.9894,4.7336,4.6398,4.469,3.9921,3.8628,3.869,3.9853,3.9977,4.2033,4.8641,0.0,5.0798,5.4054,5.4472,5.4474,5.4505,5.4522,5.4597,5.4836,5.4847,5.4962,5.518,5.5012,5.489,5.4847,5.5061,5.5218,5.5256,5.5256,5.5268,5.5305,5.5533,5.5649,5.5649,5.5893,5.6012,5.6012,5.6012,5.6012,5.5973,5.5258,5.4909,5.4677,5.3169,5.248,5.2287,5.1409,5.1072,5.1053,5.0937,5.0898,5.0898,5.0898,5.0898,5.0898,5.0898,5.0898,5.0898,5.0898,5.0898,5.0898,5.0898,5.0898,5.0898,5.0898,5.0898,5.0898,5.0898,5.0898,5.0898,5.0898,5.0898,5.0898,5.0898,5.0898,5.0898,5.0898,5.0898,5.0898,5.0898,5.0921,5.0921,5.0906,5.0898,5.0898,5.0898,5.0898,5.0608,4.9919,4.9861,4.9533,4.8778,4.874,4.874,4.874,4.874,4.874,4.874,4.874,4.874,4.874,4.874,4.874,4.874,4.874,4.8662,5.0907,5.1114,5.1114,5.1153,5.1048,5.0229,4.763,4.5299,0.0,0.0,3.7459,3.6955,4.0346,4.09,4.3042,4.973,5.0647,5.1567,5.4632,5.4876,5.4821,0.0,5.5048,5.5075,5.5134,5.5128,0.0,5.5193,5.5353,5.5353,5.5141,5.5167,5.5293,5.5522,5.5533,5.5639,5.5846,5.5902,5.5921,5.5921,5.5975,5.6012,5.6012,5.6012,5.6012,5.5993,5.5857,0.0,5.4774,5.4465,5.3923,5.3188,5.2298,5.197,5.1892,5.1169,5.0898,5.0898,5.0898,5.0898,5.0898,5.0898,5.0898,5.0898,5.0898,5.0898,5.0898,5.0898,5.0898,5.0898,5.0898,5.0898,5.0898,5.0898,5.0898,5.0898,5.0898,5.0898,5.0898,5.0898,5.0898,5.0898,5.0898,5.0898,5.0898,5.0898,5.099,5.1024,5.0914,5.0898,5.0898,5.0898,5.0898,5.084,5.0705,5.0685,5.0627,5.0473,5.0473,5.0473,5.0473,5.0473,5.0473,5.0473,5.0473,5.0473,5.0473,5.0473,5.0473,5.0473,5.0473,5.0105,4.9348,5.0112,5.1202,5.1202,5.1108,4.9993,4.6105,0.0,0.0,3.828,3.6766,3.7222,4.0809,4.1743,4.3716,4.9036,5.0553,5.1738,5.3633,5.4528,5.5067,5.518,5.5205,5.5256,5.5389,5.542,5.5466,5.5618,5.574,5.568,5.5412,5.5533,5.5689,5.5808,5.5808,5.5875,5.6003,5.6012,5.6012,5.6012,5.6012,5.6012,5.6012,5.6012,5.6012,5.6012,5.6012,5.578,5.5393,5.4967,5.4542,5.4097,5.3207,5.2597,5.2152,5.1738,5.1293,5.0906,5.0948,5.0956,5.0956,5.0956,5.0941,5.0898,5.0898,5.0898,5.0898,5.0898,5.0898,5.0898,5.0898,5.0898,5.0898,5.0898,5.0898,5.0898,5.0898,5.0898,5.0898,5.0898,5.0898,5.0898,5.0898,5.0954,5.1004,5.1004,5.1097,5.1132,5.1058,5.1053,5.1017,5.0921,5.0898,5.0937,5.0997,5.1004,5.1018,5.1047,5.1053,5.1053,5.1053,5.1053,5.1053,5.1053,5.1053,5.1053,5.1053,5.1053,5.1053,5.1053,5.1053,5.0858,4.8329,4.9531,5.1202,5.1202,5.1121,4.9763,4.4888,4.3544,0.0,3.7083,3.6523,3.7904,4.112,4.1884,4.3532,4.8157,4.9553,5.0722,5.261,5.3965,5.4903,5.5315,5.5365,0.0,5.566,5.5699,5.5769,5.5975,5.6158,5.6115,5.571,5.5893,5.6012,5.6012,5.6012,5.6012,5.6012,5.6012,5.6012,5.6012,5.6012,5.6012,5.6012,5.6012,5.6012,5.6012,5.6012,5.6012,5.5954,5.5316,5.5064,5.4967,5.4116,5.3362,5.2705,5.2345,5.1784,5.1173,5.1056,5.1012,5.102,5.102,5.099,5.0914,5.0914,5.0914,5.0914,5.0941,5.0948,5.0941,5.0933,5.0914,5.0914,5.0914,5.0914,5.0933,5.0941,5.0948,5.0937,5.0935,5.0935,5.0949,5.0965,5.106,5.1122,5.1122,5.1187,5.1213,5.1199,5.1209,5.1163,5.0972,5.0958,5.1005,5.1106,5.1111,5.1128,5.1203,5.1203,5.1203,5.1203,5.1203,5.1203,5.1203,5.1203,5.1203,5.1203,5.1203,5.1203,5.1203,5.1203,5.1203,5.024,5.0914,5.1202,5.1202,5.1196,5.0045,4.5666,0.0,4.2252,3.7873,3.6997,3.797,4.1127,4.05,4.1657,4.8192,4.7238,4.7489,5.2702,5.3359,5.3955,5.5729,0.0,0.0,5.5958,5.5967,5.5967,5.6003,5.6719,5.6815,5.6005,5.5995,5.6012,5.6012,5.6012,5.6012,5.6012,5.6012,5.6012,5.6012,5.6012,5.6012,5.6012,5.6012,5.6012,5.6012,5.6012,5.6012,0.0,5.5915,5.5896,5.5818,5.5006,5.4639,5.4368,5.2782,5.2187,5.2063,5.1276,5.1046,5.1094,5.1094,5.1053,5.0978,5.0978,5.0978,5.1005,5.106,5.1087,5.106,5.1012,5.0978,5.0978,5.0978,5.0978,5.1012,5.106,5.1087,5.1089,5.1086,5.1088,5.1099,5.1163,5.118,5.1184,5.1184,5.1254,5.1265,5.1202,5.1256,5.1261,5.1184,5.116,5.1175,5.1183,5.1183,5.1186,5.1193,5.1195,5.1203,5.1203,5.1203,5.1203,5.1203,5.1203,5.1203,5.1203,5.1203,5.1203,5.1203,5.1203,5.1203,4.7344,4.9136,5.1202,5.1202,5.1202,4.994,4.5122,0.0,4.2287,3.7974,3.7458,3.8325,4.0099,4.0281,4.139,4.5141,4.5661,0.0,5.1389,5.2766,5.4016,5.5844,5.6029,5.602,5.6065,5.602,5.6216,5.6738,5.7598,5.7927,5.7579,5.7559,5.7327,5.6796,5.6777,5.6525,5.6012,5.6012,5.6012,5.6012,5.6012,5.6012,5.6012,5.6012,5.602,5.6065,5.6065,5.6082,0.0,5.6082,5.6065,5.6026,5.5653,5.5238,5.4716,5.4014,5.3476,5.2949,5.2121,5.1858,5.1806,5.127,5.1089,5.1049,5.1067,5.106,5.106,5.1094,5.1101,5.1094,5.106,5.106,5.106,5.106,5.106,5.1069,5.1086,5.1103,5.1116,5.116,5.1156,5.1167,5.1193,5.1225,5.1263,5.1263,5.1324,5.1348,5.1326,5.1347,5.1348,5.1326,5.1254,5.1224,5.1256,5.1258,5.1288,5.1323,5.1321,5.132,5.132,5.1317,5.1315,5.1315,5.131,5.1327,5.1327,5.1327,5.1327,5.1327,5.1327,5.1327,4.5723,4.7947,5.0506,5.1004,5.0771,4.9337,0.0,0.0,4.2034,3.8266,3.8127,3.8792,3.9141,4.0091,4.1374,4.3131,4.4399,4.6358,4.9768,5.1717,5.3143,5.4119,5.4862,5.521,5.5002,5.5841,5.688,5.7983,5.8632,5.9087,5.9319,5.9339,5.8836,5.7714,5.7434,5.7009,5.639,5.6119,5.6012,5.6029,5.6029,5.6037,5.6065,5.6065,5.609,5.6133,5.6133,5.6149,0.0,5.6149,5.6133,5.6114,5.6082,5.5706,5.5183,5.4924,5.4463,5.3877,5.3054,5.2615,5.2292,5.1677,5.1327,5.1127,5.114,5.1121,5.1095,5.1127,5.1121,5.1095,5.1095,5.1107,5.1101,5.1095,5.1095,5.1108,5.1125,5.1127,5.1138,5.119,5.1219,5.1238,5.1252,5.1301,5.1328,5.1328,5.1363,5.1393,5.1393,5.1393,5.1393,5.1393,5.1327,5.1278,5.1327,5.1328,5.1347,5.1397,5.1397,5.1398,5.1398,5.1402,5.1403,5.1403,5.1405,5.1405,5.1405,5.1405,5.1405,5.1405,5.1405,5.1406,4.6848,4.8186,4.8838,5.0567,4.9808,4.8153,0.0,4.402,4.1495,3.8911,3.9024,3.9335,3.8477,3.9679,4.1361,4.3119,4.3408,0.0,4.8036,5.0028,5.0803,4.9963,5.2082,5.3284,5.2431,5.5397,5.8084,5.9758,5.9888,6.0228,6.1041,6.1079,6.0306,5.8651,5.7753,5.7299,5.728,5.6429,5.6029,5.6098,5.6098,5.6141,5.6199,5.6199,5.6199,5.6199,5.6199,5.6199,0.0,5.6199,5.6199,5.6199,5.6199,5.6199,5.6083,5.521,5.4883,5.4775,5.3967,5.312,5.2407,5.2387,5.1843,5.1202,5.1202,5.1159,5.1101,5.1171,5.1159,5.1095,5.1095,5.1108,5.1107,5.1108,5.1095,5.1127,5.1177,5.1202,5.1197,5.1206,5.1241,5.1327,5.1386,5.1397,5.1394,5.1394,5.1394,5.1394,5.1394,5.1394,5.1394,5.1394,5.1394,5.14,5.1409,5.139,5.139,5.1409,5.1395,5.1398,5.1398,5.1398,5.1398,5.1398,5.1398,5.1398,5.1398,5.1398,5.1398,5.1398,5.1398,5.1401,4.4325,4.5687,4.6836,4.7435,4.7198,4.6215,4.3923,4.2777,4.165,3.9684,3.948,3.9747,4.0019,4.0519,4.1451,4.3184,4.347,4.4644,4.8023,4.9989,5.1444,5.2356,5.4179,5.5472,5.5753,5.7288,5.8761,5.9885,6.0508,6.0965,6.1217,6.1236,6.0696,5.9527,5.9209,5.882,5.8253,5.7381,5.6963,5.6978,5.6436,5.6184,5.6199,5.6199,5.6194,5.6204,5.6204,5.6238,5.6258,5.6211,5.6204,5.6197,5.6187,5.6199,5.616,5.5879,5.5784,5.5675,5.4867,5.4414,5.4077,5.3475,5.3125,5.2795,5.2193,5.1624,5.1171,5.1196,5.1177,5.1165,5.1165,5.1178,5.1172,5.1165,5.1165,5.1175,5.1201,5.12,5.1206,5.1261,5.1286,5.1301,5.1331,5.1367,5.1403,5.1403,5.139,5.1394,5.1394,5.1394,5.1394,5.1394,5.1394,5.1396,5.14,5.14,5.14,5.14,5.1402,5.1403,5.1403,5.1409,5.1393,5.1393,5.1396,5.1398,5.1398,5.1398,5.1398,5.1398,5.1398,5.1399,0.0,4.3952,4.5034,4.5731,4.5462,0.0,0.0,4.217,4.1335,3.9975,4.0208,4.0694,4.0869,4.1432,4.2345,4.3763,4.3704,4.4335,4.6765,4.8293,4.9943,5.2026,5.3754,5.5359,5.6832,5.8052,5.9227,6.0399,6.0984,6.1297,6.1297,6.1297,6.1026,6.0447,6.0101,5.9703,5.9204,5.8331,5.7746,5.7431,5.6927,5.6519,5.6243,5.6243,5.6238,5.6239,5.6239,5.6252,0.0,5.6252,5.6239,5.6239,5.6231,5.6243,5.625,5.6232,5.6239,5.6168,5.5663,5.5281,5.4912,5.4368,5.3967,5.3598,5.3048,5.2096,5.1202,5.1202,5.1202,5.1202,5.1202,5.1202,5.1202,5.1202,5.1202,5.12,5.1196,5.121,5.1209,5.1241,5.1252,5.1269,5.1269,5.1335,5.1406,5.1406,5.1396,5.1394,5.1394,5.1394,5.1394,5.1394,5.1394,5.1394,5.1394,5.1394,5.1394,5.1394,5.1394,5.1394,5.1394,5.14,5.1403,5.1403,5.1408,5.1391,5.1391,5.1391,5.1391,5.1391,5.1391,5.1393,0.0,4.2806,4.3373,4.4963,4.4324,4.3306,4.3311,4.2053,0.0,3.9932,4.1063,4.1961,4.114,4.2364,4.3802,4.4656,4.4074,4.3821,4.4753,4.5744,4.7284,4.979,5.161,5.365,5.6155,5.7857,5.9459,6.1089,6.1271,6.1306,6.1306,6.1306,6.131,6.1302,6.0515,6.0092,6.0092,5.9239,5.842,5.7681,5.7564,5.7119,5.6388,5.633,5.6291,0.0,5.6291,5.6291,5.6291,5.6291,5.6291,5.6291,5.6291,5.6291,5.6291,5.6291,5.6291,5.6291,5.6291,5.5767,5.5087,5.5087,5.4504,5.3792,5.3792,5.2659,5.1358,5.1299,5.1299,5.128,5.1202,5.1202,5.1202,5.1202,5.1202,5.1202,5.1202,5.1202,5.1202,5.1202,5.1211,5.1195,5.1199,5.1301,5.1386,5.1406,5.1396,5.1394,5.1394,5.1394,5.1394,5.1394,5.1394,5.1394,5.1394,5.1394,5.1394,5.1394,5.1394,5.1394,5.1394,5.1394,5.1394,5.1394,5.1394,5.1394,5.1394,5.1394,5.1394,5.1394,5.1394,5.14,4.0731,0.0,4.1193,4.1809,4.1685,4.1452,0.0,0.0,0.0,0.0,0.0,4.2136,4.1922,4.2772,4.3802,4.4656,4.4074,4.4015,4.5511,4.8172,5.0425,5.1668,5.3922,5.5883,5.7172,5.8208,5.925,6.0298,6.101,6.1391,6.1391,6.1391,6.1371,6.1386,6.1184,6.1061,6.1061,6.0206,5.967,5.947,5.8188,5.7476,5.7269,5.6602,5.6291,5.6291,5.6291,5.6291,5.6291,5.6291,5.6291,5.6291,5.6291,5.6291,5.6291,5.6291,5.6291,5.6291,5.6291,5.6175,5.5981,5.5981,5.5398,5.4699,5.4699,5.3941,5.297,5.2309,5.2115,5.1979,5.1358,5.1202,5.1202,5.1202,5.1202,5.1202,5.1202,5.1202,5.1202,5.1202,5.1206,5.119,5.1191,5.1274,5.1337,5.1386,5.1396,5.1394,5.1394,5.1394,5.1394,5.1394,5.1394,5.1394,5.1394,5.1394,5.1394,5.1394,5.1394,5.1394,5.1394,5.1394,5.1394,5.1394,5.1394,5.1394,5.1394,5.1394,5.1394,5.1394,5.1394,5.1396,4.0244,4.0353,4.0438,4.0586,4.0713,4.0812,4.0842,0.0,0.0,0.0,0.0,4.233,4.2714,4.351,4.4365,4.52,4.5297,4.5705,4.7007,4.9823,5.1901,5.2348,5.4718,5.6641,5.7522,5.7981,5.8758,6.0001,6.0545,6.0992,6.1373,6.1393,6.1393,6.1393,6.1393,6.1393,6.1393,6.0934,6.0506,6.0079,5.9186,5.8338,5.758,5.7114,5.668,5.6291,5.6291,5.6291,5.6291,5.6291,5.6291,5.6291,5.6291,5.6291,5.6291,5.6291,5.6291,5.6291,5.6291,5.6291,5.6291,5.6291,5.5981,5.5592,5.5592,5.5262,5.4627,5.3339,5.2989,5.2892,5.2465,5.2057,5.1746,5.1746,5.1474,5.1202,5.1202,5.1202,5.12,5.119,5.1201,5.1215,5.1242,5.1297,5.1362,5.1386,5.1396,5.1394,5.1394,5.1394,5.1394,5.1394,5.1394,5.1394,5.1394,5.1394,5.1394,5.1394,5.1394,5.1394,5.1394,5.1394,5.1394,5.1394,5.1394,5.1394,5.1394,5.1394,5.1394,5.1394,5.1394,5.1394,4.0225,4.0335,4.04,4.0397,4.0593,4.0776,4.0794,0.0,0.0,0.0,0.0,4.2544,4.3666,4.4598,4.553,4.6618,4.7414,4.8055,4.8522,5.0911,5.2542,5.2426,5.4718,5.6583,5.7327,5.7522,5.8182,5.9613,5.9827,6.0273,6.114,6.1199,6.1257,6.1393,6.1393,6.1393,6.1393,6.1393,6.1031,6.0293,6.0157,5.936,5.7988,5.7832,5.7308,5.6505,0.0,0.0,5.6291,5.6291,5.6291,5.6291,5.6291,5.6291,5.6291,5.6291,5.6291,5.6291,5.6291,5.6291,5.6291,5.6291,5.6291,5.6291,5.6291,5.6291,5.5981,5.4511,5.4005,5.3869,5.3733,5.3145,5.2601,5.2601,5.2076,5.1571,5.1571,5.1474,5.1386,5.138,5.128,5.1214,5.1288,5.1358,5.1386,5.1406,5.1394,5.1394,5.1394,5.1394,5.1394,5.1394,5.1394,5.1394,5.1394,5.1394,5.1394,5.1394,5.1394,5.1394,5.1394,5.1394,5.1394,5.1394,5.1394,5.1394,5.1394,5.1394,5.1394,5.1394,5.1394,5.1394,4.0234,4.0301,4.0327,4.0392,4.0515,4.0662,4.0776,0.0,0.0,0.0,0.0,0.0,4.5186,4.6327,4.7686,5.0017,5.0503,5.0134,4.8794,5.1435,5.3228,5.2484,5.4718,5.635,5.6486,5.7172,5.7716,5.7968,5.8603,5.938,6.0254,6.0293,6.0642,6.1373,6.1393,6.1393,6.1393,6.1393,6.1335,6.1179,6.0448,5.9963,5.9691,5.8952,5.8176,5.7405,0.0,5.6978,5.6291,5.6291,5.6291,5.6291,5.6291,5.6291,5.6291,5.6291,5.6291,5.6291,5.6291,5.6291,5.6291,5.6291,5.6291,5.6291,5.6291,5.6291,5.6233,5.5981,5.5378,5.4621,5.3889,5.3598,5.35,5.35,5.3403,5.3326,5.3326,5.2737,5.2218,5.2216,5.1678,5.1215,5.1282,5.1302,5.1321,5.1391,5.1398,5.1394,5.1394,5.1394,5.1394,5.1394,5.1394,5.1394,5.1394,5.1394,5.1394,5.1394,5.1394,5.1394,5.1394,5.1394,5.1394,5.1394,5.1394,5.1394,5.1394,5.1394,5.1394,5.1394,5.1394,5.1394,4.0244,4.0301,4.0511,4.1464,4.1138,4.0628,0.0,0.0,0.0,0.0,0.0,0.0,4.5536,4.6715,4.8444,5.1979,5.2542,5.2601,5.2737,5.4116,5.4951,5.4543,5.5573,5.6291,5.6291,5.666,5.7094,5.7561,5.7949,5.8525,5.9341,5.9846,6.0273,6.0681,6.114,6.1393,6.1393,6.1393,6.1393,6.1393,6.0992,6.0565,6.0079,5.9691,5.903,5.8214,0.0,5.7366,5.6978,5.6486,5.6291,5.6291,5.6291,5.6291,5.6291,5.6291,5.6291,5.6291,5.6291,5.6291,5.6291,5.6291,5.6291,5.6291,5.6291,5.6291,5.6291,5.6291,5.6,5.5612,5.5204,5.4757,5.4407,5.4407,5.4038,5.3695,5.3695,5.3416,5.3166,5.3161,5.2894,5.2672,5.2705,5.2343,5.2068,5.2103,5.1707,5.1394,5.1394,5.1394,5.1394,5.1394,5.1394,5.1394,5.1394,5.1394,5.1394,5.1394,5.1394,5.1394,5.1394,5.1394,5.1394,5.1394,5.1394,5.1394,5.1394,5.1394,5.1394,5.1394,5.1394,5.1394,4.0253,4.0301,4.0616,4.1915,0.0,0.0,0.0,0.0,0.0,0.0,0.0,0.0,4.7031,4.8541,5.0289,5.2956,5.3908,5.4783,5.6117,5.6291,5.6291,5.6291,5.6291,5.6291,5.6291,5.6291,5.6583,5.725,5.7308,5.7651,5.8486,5.9147,5.9593,5.9788,6.0642,6.1109,6.1109,6.1296,6.1393,6.1393,6.1393,6.105,6.0409,6.0409,5.9924,5.9069,5.8447,5.8066,5.7813,5.6952,5.6602,5.6583,5.6369,5.6291,5.6291,5.6291,5.6291,5.6291,5.6291,5.6291,5.6291,5.6291,5.6291,5.6291,5.6291,5.6291,5.6291,5.6291,5.6291,5.6291,5.6291,5.5806,5.5301,5.5301,5.4796,5.4316,5.4316,5.4198,5.4102,5.4071,5.3979,5.3905,5.3904,5.3396,5.2986,5.2997,5.2448,5.2019,5.2019,5.2019,5.1921,5.1726,5.1707,5.1629,5.1414,5.1394,5.1394,5.1394,5.1394,5.1394,5.1394,5.1394,5.1394,5.1394,5.1394,5.1394,5.1394,5.1394,5.1394,5.1394,5.1394,5.1394,4.0253,4.0301,4.0338,4.0528,4.1798,0.0,4.4974,4.6113,0.0,4.6846,0.0,0.0,5.1474,5.396,5.4951,5.2834,5.4524,5.6155,5.6272,5.6291,5.6291,5.6291,5.6291,5.6291,5.6291,5.6291,5.633,5.6388,5.6388,5.6758,5.7638,5.7755,5.8117,5.8875,5.9749,6.0196,6.0196,6.1011,6.1393,6.1393,6.1393,6.1373,6.1315,6.1315,6.0837,6.0001,5.9943,5.9458,5.8642,5.7852,5.7502,5.7425,5.6622,5.6291,5.6291,5.6291,5.6291,5.6291,5.6291,5.6291,5.6291,5.6291,5.6291,5.6291,5.6291,5.6291,5.6291,5.6291,5.6291,5.6291,5.6291,5.6253,5.6214,5.6214,5.6155,5.6117,5.6117,5.5535,5.5,5.4929,5.4364,5.3902,5.3897,5.3844,5.3825,5.3899,5.3854,5.3815,5.3815,5.3815,5.3502,5.2685,5.2607,5.2273,5.1472,5.1394,5.1394,5.1394,5.1394,5.1394,5.1394,5.1394,5.1394,5.1394,5.1394,5.1394,5.1394,5.1394,5.1394,5.1394,5.1394,5.1394,4.0291,4.1046,4.2126,4.3279,4.4174,0.0,0.0,4.5814,4.7293,4.7293,4.8425,0.0,0.0,5.4893,5.5981,5.499,5.565,5.6291,5.6291,5.6291,5.6291,5.6291,5.6291,5.6291,5.6291,5.6291,5.6291,5.6291,5.6291,5.6447,5.6758,5.7308,5.7735,5.804,5.8855,5.9555,6.0079,6.0429,6.0856,6.1393,6.1393,6.1393,6.1393,6.1393,6.1218,6.0875,6.0332,5.9904,5.9535,5.87,5.835,5.8253,5.7418,5.6777,5.6291,5.6291,5.6291,5.6291,5.6291,5.6291,5.6291,5.6291,5.6291,5.6291,5.6291,5.6291,5.6291,5.6291,5.6291,5.6291,5.6291,5.6291,5.6291,5.6291,5.6291,5.6291,5.6291,5.6061,5.5833,5.5811,5.5659,5.55,5.5458,5.5078,5.4787,5.4793,5.4342,5.401,5.401,5.401,5.3873,5.3541,5.3502,5.3366,5.3034,5.3014,5.3014,5.3014,5.1999,5.1394,5.1394,5.1394,5.1394,5.1394,5.1394,5.1394,5.1394,5.1394,5.1394,5.1394,5.1394,5.1394,4.0301,4.1552,4.3168,4.4453,0.0,0.0,4.5621,4.6385,4.7526,4.8366,5.0348,5.2199,5.3131,0.0,5.6019,5.5204,5.5767,5.6291,5.6291,5.6291,5.6291,5.6291,5.6291,5.6291,5.6291,5.6291,5.6291,5.6291,5.6291,5.6291,5.6291,5.6881,5.7191,5.7191,5.7981,5.87,5.9302,5.9846,6.0409,6.0992,6.1276,6.1393,6.1393,6.1393,6.1393,6.1373,6.0778,6.0506,6.0448,5.9574,5.905,5.8758,5.8195,5.7457,5.6699,5.6699,5.6544,5.6291,5.6291,5.6291,5.6291,5.6291,5.6291,5.6291,5.6291,5.6291,5.6291,5.6291,5.6291,5.6291,5.6291,5.6291,5.6291,5.6291,5.6291,5.6291,5.6291,5.6294,5.63,5.6297,5.6419,5.6483,5.6417,5.6015,5.5708,5.5708,5.5201,5.483,5.483,5.483,5.4713,5.4439,5.4166,5.401,5.401,5.401,5.401,5.401,5.2878,5.2097,5.1824,5.155,5.1394,5.1394,5.1394,5.1394,5.1394,5.1394,5.1394,5.1394,5.1394,5.1394,4.032,4.1654,4.3077,4.3204,0.0,0.0,4.987,4.858,4.8069,5.0678,5.3922,5.5495,5.2892,5.4543,5.5456,5.2853,5.4601,5.6291,5.6291,5.6291,5.6291,5.6291,5.6291,5.6291,5.6291,5.6291,5.6291,5.6291,5.6291,5.6291,5.6291,5.6291,5.6291,5.6291,5.7133,5.7599,5.7599,5.9244,6.0079,6.0118,6.0992,6.1393,6.1393,6.1393,6.1393,6.1393,6.1393,6.1393,6.1335,6.0468,5.9593,5.8817,5.8817,5.8311,5.7619,5.7619,5.7075,5.6311,5.6311,5.6311,5.6311,5.6311,5.6311,5.6311,5.6291,5.6291,5.6291,5.6291,5.6291,5.6291,5.6291,5.6291,5.6291,5.6291,5.6291,5.6291,5.6291,5.6294,5.63,5.6297,5.6419,5.6483,5.6417,5.6503,5.6606,5.6606,5.6606,5.6606,5.6606,5.6606,5.6274,5.5396,5.4537,5.4029,5.4029,5.4029,5.4029,5.4029,5.4029,5.362,5.2743,5.1882,5.1414,5.1414,5.1414,5.1414,5.1414,5.1394,5.1394,5.1394,5.1394,5.1394,4.2068,4.4241,4.6549,4.6676,4.8222,4.9743,0.0,5.0406,0.0,0.0,5.3922,5.5689,5.3675,5.4951,5.6039,5.5262,5.5786,5.6291,5.6291,5.6291,5.6291,5.6291,5.6291,5.6291,5.6291,5.6291,5.6291,5.6291,5.6291,5.6291,5.6291,5.6291,5.6291,5.6291,5.6544,5.6978,5.7599,5.8085,5.894,6.0099,6.0351,6.0817,6.1393,6.1393,6.1393,6.1393,6.1393,6.1393,6.1373,6.1128,6.0506,5.971,5.971,5.9186,5.8447,5.8447,5.8273,5.8059,5.8059,5.8059,5.7962,5.7405,5.7211,5.7094,5.6486,5.6291,5.6291,5.6291,5.6291,5.6291,5.6291,5.6291,5.6291,5.6291,5.6291,5.6291,5.6291,5.6303,5.6302,5.6304,5.6329,5.6366,5.6406,5.6462,5.6555,5.6591,5.6606,5.6606,5.6606,5.6606,5.6508,5.6235,5.5981,5.5825,5.5825,5.5825,5.5825,5.5825,5.5259,5.4517,5.3659,5.3366,5.3229,5.3229,5.2624,5.2312,5.2312,5.1707,5.1394,5.1394,5.1394,5.1394,4.2862,4.5418,4.8197,4.8686,5.0056,5.1302,5.1385,0.0,0.0,0.0,5.4135,5.5981,5.4938,5.5592,5.6291,5.6291,5.6291,5.6291,5.6291,5.6291,5.6291,5.6291,5.6291,5.6291,5.6291,5.6291,5.6291,5.6291,5.6291,5.6291,5.6291,5.6291,5.6291,5.6291,5.6291,5.6544,5.7075,5.7425,5.8104,5.9108,5.9768,6.037,6.0895,6.1237,6.1393,6.1393,6.1393,6.1393,6.1393,6.1393,6.1089,6.0623,6.0623,6.0079,5.9322,5.9322,5.9108,5.8797,5.8797,5.8797,5.8719,5.8234,5.8078,5.7981,5.7457,5.7282,5.7282,5.7282,5.7049,5.6822,5.6822,5.6563,5.6291,5.6291,5.6291,5.6291,5.6291,5.6291,5.6291,5.6291,5.6299,5.6309,5.6352,5.6432,5.6503,5.6551,5.6577,5.6606,5.6606,5.6606,5.6584,5.656,5.6558,5.6558,5.655,5.655,5.655,5.655,5.6067,5.5545,5.5016,5.4359,5.401,5.401,5.3483,5.321,5.321,5.2331,5.1919,5.1915,5.1564,5.1406,4.3143,4.5673,4.8485,4.963,5.1884,5.385,5.3928,5.3319,5.2678,5.2348,5.4427,5.6253,5.6097,5.6194,5.6291,5.6291,5.6291,5.6291,5.6291,5.6291,5.6291,5.6291,5.6291,5.6291,5.6291,5.6291,5.6291,5.6291,5.6291,5.6291,5.6291,5.6291,5.6291,5.6291,5.6291,5.6291,5.6291,5.7094,5.7522,5.7619,5.9224,6.0021,6.0137,6.1011,6.1393,6.1393,6.1393,6.1393,6.1393,6.1393,6.1393,6.1393,6.1393,6.0914,6.0215,6.0215,5.9729,5.905,5.905,5.905,5.903,5.8933,5.8914,5.8894,5.8817,5.8797,5.8797,5.8797,5.8273,5.7696,5.7619,5.7017,5.6388,5.6311,5.6291,5.6291,5.6291,5.6291,5.6291,5.6291,5.6308,5.6299,5.6308,5.6393,5.6484,5.6504,5.6551,5.6604,5.6584,5.6584,5.658,5.6506,5.6506,5.65,5.6504,5.6501,5.6501,5.6501,5.6497,5.6506,5.6506,5.5036,5.4244,5.4244,5.4166,5.4127,5.4105,5.3249,5.2813,5.2799,5.1923,5.1506,4.4582,4.6618,4.8885,5.1109,5.319,5.4893,5.5573,5.5592,5.4699,5.2018,5.4038,5.5883,5.4511,5.5378,5.6291,5.6291,5.6291,5.6291,5.6291,5.6291,5.6291,5.6291,5.6291,5.6291,5.6291,5.6291,5.6291,5.6291,5.6291,5.6291,5.6291,5.6291,5.6291,5.6291,5.6291,5.6291,5.6291,5.6486,5.6919,5.7619,5.8603,5.9438,6.0137,6.1011,6.1393,6.1393,6.1393,6.1393,6.1393,6.1393,6.1393,6.1393,6.1393,6.1296,6.1128,6.1128,6.1004,6.083,6.083,6.083,6.0733,6.004,5.9827,5.9691,5.9011,5.8797,5.8797,5.8797,5.8681,5.8409,5.7755,5.7463,5.7153,5.6466,5.6291,5.6291,5.6291,5.6291,5.6291,5.6291,5.6297,5.6311,5.6299,5.632,5.6377,5.6483,5.6551,5.6582,5.6533,5.6511,5.6525,5.6491,5.6508,5.6508,5.6501,5.6501,5.6501,5.6501,5.6504,5.6508,5.6508,5.6202,5.604,5.604,5.5376,5.4982,5.4933,5.4111,5.3693,5.3621,5.2743,5.2333,4.5103,4.6912,4.9037,5.2154,5.4272,5.5747,5.6194,5.6297,5.5796,5.4008,5.5054,5.6019,5.5106,5.5701,5.6302,5.6302,5.6302,5.6302,5.6302,5.6297,5.6291,5.6291,5.6291,5.6291,5.6291,5.6291,5.6291,5.6291,5.6291,5.6291,5.6291,5.6291,5.6291,5.6291,5.6291,5.6291,5.6291,5.6291,5.6524,5.6997,5.7826,5.8875,6.0137,6.1011,6.1393,6.1393,6.1393,6.1393,6.1393,6.1393,6.1393,6.1393,6.1393,6.1393,6.1393,6.1393,6.1393,6.1393,6.1393,6.1393,6.1335,6.0875,6.072,6.0642,6.0176,6.0033,6.0033,6.0033,5.9749,5.9322,5.8914,5.8486,5.7962,5.7114,5.6602,5.6291,5.6291,5.6291,5.6291,5.6291,5.6291,5.6297,5.6303,5.6338,5.6383,5.6484,5.6532,5.6547,5.65,5.6497,5.6511,5.6491,5.651,5.6507,5.65,5.6496,5.6496,5.6496,5.6503,5.651,5.651,5.6533,5.6548,5.6548,5.6118,5.5862,5.5814,5.4976,5.4557,5.4499,5.3624,5.2994,4.468,4.6928,4.9486,5.2855,5.5016,5.6291,5.6291,5.6296,5.6297,5.6308,5.6319,5.6329,5.6329,5.6311,5.6324,5.6324,5.6324,5.6324,5.6324,5.6314,5.6291,5.6291,5.6298,5.6291,5.6291,5.6291,5.6291,5.6291,5.6291,5.6291,5.6291,5.6291,5.6291,5.6291,5.6291,5.6291,5.6291,5.6291,5.6291,5.6311,5.7191,5.8474,6.0118,6.0856,6.1257,6.1393,6.1393,6.1393,6.1393,6.1393,6.1393,6.1393,6.1393,6.1393,6.1393,6.1393,6.1393,6.1393,6.1393,6.1393,6.1393,6.1393,6.1393,6.1393,6.1393,6.1393,6.1393,6.1393,6.0875,6.0293,6.0137,5.9555,5.8817,5.8007,5.7263,5.6641,5.635,5.6291,5.6291,5.6291,5.6291,5.6291,5.6291,5.6359,5.6416,5.6464,5.6498,5.6493,5.6497,5.6504,5.6491,5.6492,5.6508,5.6504,5.6507,5.6507,5.6507,5.6507,5.65,5.6508,5.6508,5.6503,5.6494,5.6494,5.6501,5.6501,5.6498,5.5776,5.5418,5.5397,5.4519,5.3732,4.2695,4.6924,5.1125,5.3184,5.5016,5.6291,5.6291,5.6298,5.6303,5.6297,5.6344,5.6387,5.6387,5.6396,5.6401,5.6401,5.6401,5.6401,5.6401,5.6334,5.6297,5.6297,5.6309,5.6291,5.6291,5.6291,5.6291,5.6291,5.6291,5.6291,5.6291,5.6291,5.6291,5.6291,5.6291,5.6291,5.6291,5.6291,5.6291,5.6311,5.7191,5.8474,6.0099,6.0215,6.0701,6.1393,6.1393,6.1393,6.1393,6.1393,6.1393,6.1393,6.1393,6.1393,6.1393,6.1393,6.1393,6.1393,6.1393,6.1393,6.1393,6.1393,6.1393,6.1393,6.1393,6.1393,6.1393,6.1393,6.1315,6.105,6.0293,6.0001,5.971,5.8836,5.8545,5.8078,5.6602,5.6291,5.6291,5.6291,5.6291,5.6291,5.6291,5.6359,5.6391,5.6405,5.6464,5.6499,5.6504,5.6508,5.6492,5.6492,5.6492,5.6507,5.6507,5.6507,5.6507,5.6507,5.6507,5.6492,5.6492,5.6492,5.6496,5.6496,5.6507,5.6494,5.6496,5.6379,5.6332,5.6316,5.5435,5.4963,4.2387,4.697,5.1204,5.2078,5.4321,5.6288,5.6288,5.6358,5.6407,5.6409,5.6464,5.6498,5.6418,5.6426,5.6461,5.6461,5.6461,5.6461,5.6461,5.6405,5.6344,5.6294,5.6306,5.6296,5.6298,5.6291,5.6291,5.6291,5.6291,5.6291,5.6291,5.6291,5.6291,5.6291,5.6291,5.6291,5.6291,5.6291,5.6291,5.6311,5.7191,5.7988,5.8726,5.9671,6.0584,6.1393,6.1393,6.1393,6.1393,6.1393,6.1393,6.1393,6.1393,6.1393,6.1393,6.1393,6.1393,6.1393,6.1393,6.1393,6.1393,6.1393,6.1393,6.1393,6.1393,6.1393,6.1393,6.1393,6.1393,6.1315,6.0934,6.0837,6.0604,5.9749,5.9535,5.9186,5.7962,5.734,5.6881,5.6388,5.6303,5.6288,5.6288,5.6396,5.6452,5.646,5.6484,5.6504,5.6502,5.6494,5.6496,5.6507,5.6507,5.6507,5.6507,5.6507,5.6507,5.6507,5.6507,5.6507,5.6507,5.6507,5.6507,5.6507,5.6504,5.6508,5.65,5.65,5.6496,5.6487,5.6113,5.5665,4.2179,4.6058,4.9673,5.0891,5.3286,5.5516,5.6173,5.6409,5.6471,5.6501,5.6542,5.6548,5.6468,5.6482,5.6536,5.6536,5.6536,5.6536,5.6536,5.6468,5.6409,5.6354,5.6339,5.6328,5.6303,5.6297,5.6291,5.6291,5.6291,5.6291,5.6291,5.6291,5.6291,5.6291,5.6291,5.6291,5.6291,5.6291,5.6291,5.6311,5.6958,5.7386,5.7638,5.8901,6.004,6.1089,6.1296,6.1393,6.1393,6.1393,6.1393,6.1393,6.1393,6.1393,6.1393,6.1393,6.1393,6.1393,6.1393,6.1393,6.1393,6.1393,6.1393,6.1393,6.1393,6.1393,6.1393,6.1393,6.1393,6.14,6.1421,6.1421,6.1253,6.0618,6.0462,6.0171,5.9063,5.8182,5.7411,5.6788,5.6478,5.6334,5.6334,5.6418,5.6494,5.6508,5.6503,5.6508,5.6506,5.6494,5.6507,5.6507,5.6507,5.6507,5.6507,5.6507,5.6507,5.6507,5.6507,5.6507,5.6507,5.6507,5.6507,5.6507,5.6507,5.6507,5.6507,5.6507,5.6507,5.6507,5.6507,5.6152,4.1456,4.3414,4.595,5.0155,5.1955,5.3351,5.5831,5.6409,5.6422,5.6494,5.6504,5.6514,5.6577,5.6582,5.6584,5.6584,5.6584,5.6584,5.6584,5.6539,5.6498,5.6498,5.643,5.6368,5.6314,5.6308,5.63,5.6298,5.6291,5.6291,5.6291,5.6291,5.6291,5.6291,5.6291,5.6291,5.6291,5.6291,5.6291,5.6291,5.635,5.6803,5.7599,5.7696,5.8629,6.0215,6.105,6.1393,6.1393,6.1393,6.1393,6.1393,6.1393,6.1393,6.1393,6.1393,6.1393,6.1393,6.1393,6.1393,6.1393,6.1393,6.1393,6.1393,6.1393,6.1393,6.1393,6.1393,6.1393,6.1414,6.1479,6.1497,6.147,6.1432,6.1422,6.0965,5.9257,5.8209,5.7603,5.7619,5.6966,5.6386,5.6386,5.6457,5.6504,5.6508,5.65,5.6494,5.6494,5.6497,5.6507,5.6507,5.6507,5.6507,5.6507,5.6507,5.6507,5.6507,5.6507,5.6507,5.6507,5.6507,5.6507,5.6507,5.6507,5.6507,5.6507,5.6507,5.6507,5.6507,5.6507,5.6487,3.9108,4.1571,4.416,4.5847,4.8178,5.0314,5.1303,5.2815,5.4025,5.4052,5.5401,5.6575,5.6604,5.6606,5.6606,5.6606,5.6606,5.6606,5.6606,5.6577,5.6545,5.6504,5.6471,5.6418,5.6319,5.6289,5.6306,5.6298,5.6291,5.6291,5.6291,5.6291,5.6291,5.6291,5.6291,5.6291,5.6291,5.6291,5.6291,5.6291,5.6291,5.6453,5.6786,5.7344,5.7951,5.8645,6.0061,6.0997,6.1467,6.1451,6.1468,6.1468,6.1466,6.1467,6.146,6.1414,6.1393,6.14,6.1447,6.1467,6.1453,6.1456,6.1464,6.1467,6.1467,6.1467,6.1467,6.1467,6.1458,6.1473,6.1495,6.15,6.1505,6.1505,6.149,6.1339,6.0753,5.9503,5.851,5.8533,5.7876,5.7306,5.7306,5.6884,5.6553,5.6553,5.6534,5.6503,5.6496,5.6502,5.651,5.6492,5.6507,5.6507,5.6507,5.6507,5.6507,5.6507,5.6507,5.6507,5.6507,5.6507,5.6507,5.6507,5.6507,5.6507,5.6507,5.6507,5.6507,5.6507,5.6507,5.6507,3.7475,3.9579,4.1892,4.3208,4.5266,4.7306,4.8515,5.0806,5.2676,5.2702,5.4771,5.6606,5.6606,5.6606,5.6606,5.6606,5.6606,5.6606,5.6606,5.6606,5.658,5.6542,5.6539,5.6498,5.6372,5.6349,5.6314,5.6296,5.6304,5.6291,5.6291,5.6291,5.6291,5.6291,5.6291,5.6291,5.6291,5.6297,5.6309,5.6309,5.6308,5.6322,5.6359,5.6938,5.7386,5.7765,5.8951,6.0078,6.1123,6.1398,6.149,6.1505,6.1509,6.1493,6.1487,6.1446,6.1428,6.1434,6.1482,6.1493,6.1498,6.15,6.1505,6.1493,6.1493,6.1493,6.1493,6.1493,6.15,6.1514,6.1532,6.1545,6.1576,6.1576,6.1576,6.1584,6.1628,6.0476,5.944,5.9471,5.879,5.8142,5.7849,5.7355,5.6918,5.6645,5.6531,5.6504,5.6497,5.6493,5.6511,5.6492,5.6507,5.6507,5.6507,5.6507,5.6507,5.6507,5.6507,5.6507,5.6507,5.6507,5.6507,5.6507,5.6507,5.6507,5.6507,5.6507,5.6507,5.6507,5.6507,5.6507,0.0,0.0,0.0,4.252,4.3444,4.4382,4.7858,5.0581,5.2423,5.2659,5.4713,5.6506,5.6586,5.6606,5.6606,5.6606,5.6606,5.6606,5.6606,5.6606,5.6606,5.6604,5.6604,5.6575,5.6504,5.6449,5.6368,5.6294,5.629,5.6291,5.6298,5.6298,5.6298,5.6298,5.6298,5.6298,5.6298,5.6306,5.6294,5.6294,5.6368,5.6409,5.639,5.639,5.6877,5.7676,5.7758,5.8726,6.0282,6.1125,6.1476,6.1514,6.1495,6.149,6.149,6.149,6.149,6.149,6.149,6.149,6.1495,6.1514,6.1495,6.149,6.149,6.149,6.149,6.149,6.1495,6.1524,6.1588,6.164,6.1698,6.1698,6.1698,6.1698,6.1698,6.0974,6.0357,6.0427,5.9729,5.887,5.8011,5.7836,5.7523,5.6743,5.655,5.6503,5.6497,5.6493,5.6491,5.6492,5.6507,5.6507,5.6507,5.6507,5.6507,5.6507,5.6507,5.6507,5.6507,5.6507,5.6507,5.6507,5.6507,5.6507,5.6507,5.6507,5.6507,5.6507,5.6507,5.6507,3.5775,0.0,0.0,0.0,0.0,0.0,4.4384,4.606,4.808,5.1851,5.3203,5.4304,5.6233,5.6606,5.6606,5.6606,5.6606,5.6606,5.6606,5.6606,5.658,5.6539,5.6536,5.6475,5.6363,5.6344,5.6308,0.0,5.6304,5.6297,5.6306,5.6306,5.6328,5.6364,5.6328,5.6328,5.6369,5.6363,5.6368,5.6368,5.6381,5.6422,5.6468,5.6468,5.6638,5.6935,5.7548,5.8055,5.8613,6.0096,6.1072,6.1634,6.1591,6.1561,6.1576,6.1524,6.149,6.1514,6.1569,6.1561,6.1584,6.1628,6.1602,6.1561,6.1561,6.1561,6.1561,6.1561,6.1618,6.1657,6.1666,6.1693,6.1698,6.1698,6.1698,6.1698,6.1698,6.1498,6.132,6.1347,6.0646,5.9963,5.9729,5.8636,5.7719,5.7504,5.6965,5.6554,5.6518,5.651,5.6506,5.65,5.6507,5.6507,5.6507,5.6507,5.6507,5.6507,5.6507,5.6507,5.6507,5.6507,5.6507,5.6507,5.6507,5.6507,5.6507,5.6507,5.6507,5.6507,5.6507,5.6507,0.0,0.0,0.0,0.0,0.0,0.0,4.1407,4.3183,4.5631,5.0063,5.0998,5.1815,5.444,5.4062,5.3698,5.4791,5.4966,5.5357,5.645,5.6606,5.6577,5.6508,5.6501,5.6461,5.6354,5.6324,5.6297,5.6296,5.631,5.6303,5.6308,5.6334,5.6359,5.6409,5.6363,5.6359,5.6409,5.6426,5.6434,5.6434,5.6468,5.6508,5.6542,5.6542,5.6553,5.6626,5.7094,5.7484,5.7875,5.889,6.0041,6.1191,6.1507,6.1637,6.1634,6.1591,6.1584,6.1588,6.1628,6.1637,6.166,6.1693,6.1668,6.1637,6.1637,6.1637,6.1637,6.1637,6.1668,6.1698,6.1698,6.1698,6.1698,6.1698,6.1698,6.1698,6.1698,6.1698,6.1698,6.1698,6.1291,6.0822,6.0451,5.9553,5.8636,5.7914,5.7406,5.6955,5.6543,5.6499,5.6501,5.6494,5.6504,5.6507,5.6507,5.6507,5.6507,5.6507,5.6507,5.6507,5.6507,5.6507,5.6507,5.6507,5.6507,5.6507,5.6507,5.6507,5.6507,5.6507,5.6507,5.6507,0.0,0.0,0.0,0.0,0.0,0.0,3.9306,4.1494,4.416,4.7802,4.8445,4.9129,5.17,5.0321,4.9558,5.188,5.2505,5.3598,5.6211,5.6582,5.655,5.6494,5.6471,5.6457,5.6396,5.6329,5.6303,5.6303,5.6296,5.6296,5.6319,5.6363,5.6414,5.6422,5.6418,5.6418,5.6422,5.6475,5.6508,5.6508,5.6575,5.6606,5.6606,5.6606,5.6606,5.6606,5.6606,5.7016,5.766,5.7758,5.8831,6.0471,6.1252,6.1601,6.1698,6.1698,6.1698,6.1698,6.1698,6.1698,6.1698,6.1698,6.1698,6.1698,6.1698,6.1698,6.1698,6.1698,6.1698,6.1698,6.1698,6.1698,6.1698,6.1698,6.1698,6.1698,6.1698,6.1698,6.1698,6.1698,6.1698,6.1444,6.0686,6.0451,5.9866,5.8324,5.7914,5.7516,5.6735,5.6561,5.6507,5.6492,5.6503,5.6507,5.6507,5.6507,5.6507,5.6507,5.6507,5.6507,5.6507,5.6507,5.6507,5.6507,5.6507,5.6507,5.6507,5.6507,5.6507,5.6507,5.6507,5.6507,0.0,0.0,0.0,0.0,0.0,0.0,3.9973,4.0424,4.1699,4.6643,4.6555,4.6383,4.8984,4.909,4.8972,4.9479,5.1288,5.3529,5.6143,5.6514,5.6471,5.6354,5.6339,5.6319,5.6321,5.6303,5.6291,5.6291,5.6294,5.6319,5.6372,5.6386,5.6457,5.655,5.6508,5.6508,5.6553,5.6575,5.6577,5.6577,5.6584,5.6606,5.6606,5.6606,5.6606,5.6606,5.6606,5.6684,5.6879,5.7523,5.8831,6.0412,6.0588,6.1076,6.1698,6.1698,6.1698,6.1698,6.1698,6.1698,6.1698,6.1698,6.1698,6.1698,6.1698,6.1698,6.1698,6.1698,6.1698,6.1698,6.1698,6.1698,6.1698,6.1698,6.1698,6.1698,6.1698,6.1698,6.1698,6.1698,6.1698,6.164,6.1483,6.0861,6.0276,5.9944,5.8695,5.7731,5.7575,5.6932,5.6507,5.6492,5.6503,5.6507,5.6507,5.6507,5.6507,5.6507,5.6507,5.6507,5.6507,5.6507,5.6507,5.6507,5.6507,5.6507,5.6507,5.6507,5.6507,5.6507,5.6507,5.6507,0.0,0.0,0.0,3.5281,0.0,0.0,0.0,3.8446,3.9396,4.3757,4.3005,4.2473,4.5495,4.5101,4.4866,4.6582,4.7924,4.9653,5.2247,5.4831,5.6414,5.6299,5.6289,5.6306,5.6298,5.6291,5.6291,5.6291,5.6294,5.6305,5.6349,5.6414,5.6475,5.6545,5.6545,5.6572,5.6606,5.6606,5.6606,5.6606,5.6606,5.6606,5.6606,5.6606,5.6606,5.6606,5.6606,5.6606,5.6626,5.7035,5.7953,5.9183,6.0061,6.0666,6.1095,6.1542,6.1698,6.1698,6.1698,6.1698,6.1698,6.1698,6.1698,6.1698,6.1698,6.1698,6.1698,6.1698,6.1698,6.1698,6.1698,6.1698,6.1698,6.1698,6.1698,6.1698,6.1698,6.1698,6.1698,6.1698,6.1698,6.1698,6.1698,6.1349,6.09,6.0471,5.928,5.8291,5.7856,5.7031,5.6492,5.6497,5.6501,5.6507,5.6507,5.6507,5.6507,5.6507,5.6507,5.6507,5.6507,5.6507,5.6507,5.6507,5.6507,5.6507,5.6507,5.6507,5.6507,5.6507,5.6507,5.6507,0.0,0.0,0.0,0.0,0.0,3.5556,0.0,0.0,0.0,4.0333,3.9505,3.9102,4.1876,4.0799,4.0379,4.3148,4.4141,4.5293,4.7359,5.1799,5.4825,5.4819,5.4819,5.5011,5.5501,5.6,5.6291,5.6291,5.6302,5.6297,5.6289,5.6405,5.6468,5.6501,5.6548,5.658,5.6606,5.6606,5.6606,5.6606,5.6606,5.6606,5.6606,5.6606,5.6606,5.6606,5.6606,5.6606,5.6606,5.6606,5.6977,5.7719,5.928,6.0002,6.0256,6.1134,6.1444,6.1464,6.164,6.1698,6.1698,6.1698,6.1698,6.1698,6.1698,6.1698,6.1698,6.1698,6.1698,6.1698,6.1698,6.1698,6.1698,6.1698,6.1698,6.1698,6.1698,6.1698,6.1698,6.1698,6.1698,6.1698,6.1698,6.1698,6.1464,6.0764,5.9905,5.9046,5.8168,5.7284,5.669,5.6515,5.6497,5.6507,5.6507,5.6507,5.6507,5.6507,5.6507,5.6507,5.6507,5.6507,5.6507,5.6507,5.6507,5.6507,5.6507,5.6507,5.6507,5.6507,5.6507,5.6507,0.0,0.0,0.0,0.0,3.516,0.0,0.0,0.0,3.6764,3.7263,0.0,3.8247,3.8633,0.0,0.0,3.8808,4.1424,4.3478,4.3782,4.6944,4.9276,4.9454,4.9465,5.0359,5.262,5.4932,5.6291,5.6291,5.6298,5.629,5.6308,5.6305,5.6387,5.6501,5.6508,5.6542,5.6606,5.6606,5.6606,5.6606,5.6606,5.6606,5.6606,5.6606,5.6606,5.6606,5.6606,5.6606,5.6606,5.6606,5.6645,5.6821,5.7738,5.8577,5.9358,6.0237,6.0549,6.0666,6.1425,6.1698,6.1698,6.1698,6.1698,6.1698,6.1698,6.1698,6.1698,6.1698,6.1698,6.1698,6.1698,6.1698,6.1698,6.1698,6.1698,6.1698,6.1698,6.1698,6.1698,6.1698,6.1698,6.1698,6.1698,6.1698,6.1679,6.1562,6.0803,5.9944,5.9065,5.8183,5.7355,5.6573,5.6497,5.6507,5.6507,5.6507,5.6507,5.6507,5.6507,5.6507,5.6507,5.6507,5.6507,5.6507,5.6507,5.6507,5.6507,5.6507,5.6507,5.6507,5.6507,5.6507,0.0,0.0,0.0,0.0,0.0,0.0,3.5618,0.0,3.581,0.0,0.0,0.0,0.0,0.0,0.0,0.0,3.9992,4.1119,4.1622,4.2934,4.4964,4.8062,4.8437,4.9465,5.2097,5.2033,5.2445,5.3922,5.4038,5.4031,5.4041,5.5475,5.6329,5.6372,5.6461,5.6511,5.6542,5.6577,5.6606,5.6606,5.6606,5.6606,5.6606,5.6606,5.6606,5.6606,5.6606,5.6606,5.6606,5.6606,5.6606,5.6626,5.6977,5.7601,5.8441,5.9319,5.9651,5.971,6.0059,6.0195,6.0195,6.0195,6.0529,6.0959,6.0959,6.131,6.1698,6.1698,6.1698,6.1698,6.1698,6.1698,6.1698,6.1698,6.1698,6.1698,6.1698,6.1698,6.1698,6.1698,6.1698,6.1698,6.1698,6.1698,6.1698,6.1698,6.0959,6.008,5.92,5.8334,5.7479,5.6594,5.6497,5.6503,5.6511,5.6507,5.6507,5.6507,5.6507,5.6507,5.6507,5.6507,5.6507,5.6507,5.6507,5.6507,5.6507,5.6507,5.6507,5.6507,5.6507,5.6507,3.8506,0.0,0.0,0.0,0.0,0.0,0.0,0.0,0.0,0.0,0.0,0.0,0.0,0.0,0.0,0.0,0.0,3.8825,3.9692,4.0019,4.1655,4.57,4.6816,4.7994,4.9945,4.9162,4.9284,5.1166,5.1308,5.1625,5.2368,5.4202,5.5553,5.6269,5.6414,5.6475,5.6501,5.6572,5.6606,5.6606,5.6606,5.6606,5.6606,5.6606,5.6606,5.6606,5.6606,5.6606,5.6606,5.6606,5.6606,5.6606,5.6606,5.6957,5.7562,5.8421,5.8734,5.8773,5.9024,5.9102,5.9102,5.9102,5.9534,6.0041,6.0041,6.049,6.0995,6.0995,6.0995,6.0995,6.0995,6.1152,6.1349,6.1349,6.1522,6.1698,6.1698,6.1698,6.1698,6.1698,6.1698,6.1698,6.1698,6.1698,6.1698,6.1698,6.1154,6.0354,5.9239,5.8543,5.7734,5.6614,5.6491,5.6508,5.6492,5.6507,5.6507,5.6507,5.6507,5.6507,5.6507,5.6507,5.6507,5.6507,5.6507,5.6507,5.6507,5.6507,5.6507,5.6507,5.6507,5.6507,0.0,0.0,0.0,4.0637,0.0,0.0,0.0,0.0,3.5101,0.0,0.0,0.0,0.0,0.0,0.0,0.0,0.0,0.0,0.0,3.8532,3.9497,4.0701,0.0,0.0,0.0,4.6862,4.8365,4.8528,4.8535,4.966,5.2265,5.2484,5.3685,5.6211,5.6363,5.643,5.6501,5.6572,5.6606,5.6606,5.6606,5.6606,5.6606,5.6606,5.6606,5.6606,5.6606,5.6606,5.6606,5.6606,5.6606,5.6606,5.6606,5.6626,5.6743,5.7543,5.7836,5.7953,5.8812,5.9102,5.9102,5.9102,5.9122,5.9141,5.9141,5.9161,5.918,5.918,5.918,5.918,5.918,5.9807,6.0432,6.0432,6.1095,6.1698,6.1698,6.1698,6.1698,6.1698,6.1698,6.1698,6.1698,6.1698,6.1698,6.1698,6.1679,6.1035,5.9317,5.9089,5.8398,5.6673,5.6491,5.6508,5.6492,5.6507,5.6507,5.6507,5.6507,5.6507,5.6507,5.6507,5.6507,5.6507,5.6507,5.6507,5.6507,5.6507,5.6507,5.6507,5.6507,5.6507,0.0,0.0,4.2665,4.3532,0.0,0.0,0.0,0.0,0.0,0.0,0.0,0.0,0.0,0.0,0.0,0.0,0.0,0.0,0.0,0.0,3.8492,0.0,0.0,0.0,0.0,4.3659,4.3912,4.5617,4.5834,4.703,4.9602,5.1444,5.3602,5.6211,5.6363,5.6426,5.6501,5.6572,5.6606,5.6606,5.6606,5.6606,5.6606,5.6606,5.6606,5.6606,5.6606,5.6606,5.6606,5.6606,5.6606,5.6606,5.6606,5.6606,5.6626,5.6918,5.7016,5.7055,5.7348,5.7445,5.7445,5.7445,5.7816,5.8246,5.8246,5.8636,5.9102,5.9102,5.9102,5.9102,5.9102,5.9319,5.9534,5.9534,5.9768,5.9981,5.9981,6.0432,6.0666,6.0098,6.0451,6.0666,6.0078,5.9981,6.0178,6.0744,6.0842,6.0217,5.846,5.8236,5.7782,5.6621,5.6496,5.6491,5.6508,5.6492,5.6507,5.6507,5.6507,5.6507,5.6507,5.6507,5.6507,5.6507,5.6507,5.6507,5.6507,5.6507,5.6507,5.6507,5.6507,5.6507,4.5785,4.5626,0.0,4.5882,4.3758,0.0,4.0467,0.0,0.0,0.0,0.0,0.0,0.0,0.0,0.0,0.0,0.0,0.0,0.0,3.7521,0.0,0.0,0.0,0.0,0.0,4.1421,4.1185,4.2838,4.3067,4.4671,4.8218,5.0067,5.263,5.6191,5.6396,5.6461,5.6501,5.6572,5.6606,5.6606,5.6606,5.6606,5.6606,5.6606,5.6606,5.6606,5.6606,5.6606,5.6606,5.6606,5.6606,5.6606,5.6606,5.6606,5.6606,5.6606,5.6606,5.6606,5.6606,5.6606,5.6606,5.6606,5.6957,5.7367,5.7367,5.7777,5.8207,5.8207,5.8207,5.8207,5.8207,5.8421,5.8636,5.8636,5.887,5.9102,5.9102,5.9534,5.9768,5.92,5.9553,5.9768,5.92,5.9102,5.93,5.9846,5.9944,5.9417,5.7972,5.7797,5.7477,5.6598,5.6504,5.6494,5.6492,5.6503,5.6507,5.6507,5.6507,5.6507,5.6507,5.6507,5.6507,5.6507,5.6507,5.6479,5.6422,5.6422,5.6412,5.6393,5.6412,5.6422]}]]